GFSSGP_sfc_temp_000.txt.gz
Temp
80 89 94 90 79 81 76 78 83 82 81 86 87 83 82 84 79 74 89 91 91 92 93 88 78 79 79 78 78 78 78 77 78 78 77 77 76 76 76 76 76 77 77 78 78 79 79 79 79
93 90 91 92 76 73 80 81 80 84 85 86 85 83 82 79 86 87 90 91 92 92 90 91 79 78 79 78 78 77 77 77 77 77 77 77 77 76 76 76 76 76 77 77 78 78 79 79 79
92 93 88 85 80 74 76 81 83 85 87 86 84 85 84 81 84 88 92 91 92 92 92 90 80 78 78 78 77 77 77 77 77 77 77 77 77 76 76 76 75 76 77 77 78 78 79 79 79
92 92 90 78 75 79 79 84 86 85 86 88 87 80 84 88 86 90 91 92 92 93 92 87 76 77 78 78 78 77 77 77 77 77 77 77 76 76 76 76 75 75 76 76 77 78 78 79 78
94 91 79 76 76 80 85 87 86 84 87 87 85 81 81 85 88 90 90 90 90 92 91 91 76 76 77 77 78 77 77 77 77 76 77 77 76 76 75 75 75 75 75 76 76 77 77 77 78
86 88 76 74 76 81 85 88 86 86 88 86 82 82 84 89 87 88 89 89 90 89 87 87 79 75 74 75 75 74 74 74 74 73 73 74 75 76 76 74 75 75 75 75 75 76 77 75 77
83 82 76 77 76 78 82 88 85 86 86 85 87 79 84 85 88 87 87 87 87 87 87 86 85 83 74 73 72 72 72 72 71 71 72 72 73 74 75 74 74 75 75 74 75 75 75 75 76
88 83 77 78 76 76 85 85 88 86 85 87 87 79 81 87 86 87 88 88 88 87 88 85 84 86 82 82 75 71 70 70 69 70 70 70 71 71 74 73 73 75 73 74 75 75 75 75 74
91 78 74 77 78 81 88 84 88 88 86 84 86 85 86 86 86 87 86 87 88 87 86 85 85 83 80 81 79 72 72 70 69 69 69 70 75 77 77 74 74 74 74 74 75 75 74 75 74
83 77 77 85 86 84 88 86 88 82 82 81 81 83 83 84 85 85 84 85 83 83 85 85 80 79 78 80 78 77 75 71 69 69 68 70 72 74 76 74 72 72 73 74 74 74 74 75 80
84 76 84 86 88 89 87 86 88 83 81 85 84 87 83 84 84 84 85 84 82 82 84 84 78 77 76 79 78 78 72 72 71 70 71 69 71 72 73 78 77 76 74 77 77 79 80 81 78
78 84 85 87 88 87 83 87 83 84 87 88 88 88 85 83 83 83 83 82 83 81 81 80 79 76 75 76 78 74 70 72 71 74 70 71 73 72 69 70 76 75 76 75 75 81 79 77 78
81 83 87 88 88 87 85 83 83 85 89 88 88 86 84 83 83 82 81 82 81 80 79 79 77 75 74 73 76 73 72 75 75 73 72 74 73 67 71 71 73 76 77 75 74 77 78 76 77
85 85 85 86 86 85 82 83 80 87 87 85 83 84 84 83 82 81 79 79 78 78 78 78 77 75 75 74 73 72 73 74 76 73 73 72 70 67 69 73 69 69 75 75 76 78 77 77 78
85 78 82 83 84 82 83 77 78 88 84 82 81 83 83 82 82 80 80 77 78 80 77 77 76 76 75 74 75 74 75 73 75 75 74 74 72 70 69 71 72 76 74 75 77 75 77 77 79
79 80 73 83 82 81 80 68 80 88 81 81 82 82 80 79 80 80 79 78 79 78 76 77 78 77 76 75 75 76 74 73 69 70 74 74 73 72 70 69 70 71 73 74 76 79 78 79 79
77 69 73 76 84 81 78 74 82 87 83 81 82 81 80 79 78 78 79 79 78 77 76 76 77 77 76 76 76 75 74 74 72 68 67 72 73 74 71 70 72 72 73 72 74 78 78 78 78
69 70 74 72 79 79 77 76 81 85 84 80 81 81 79 78 77 78 78 79 78 77 76 76 77 76 75 78 78 74 71 71 69 65 63 69 71 73 73 71 72 72 73 72 73 74 79 80 78
76 73 71 76 80 75 75 76 79 83 84 82 81 79 78 77 80 79 78 78 78 76 76 76 75 76 75 78 77 74 70 69 69 66 64 63 70 72 71 73 73 74 73 73 73 74 74 74 76
74 71 71 76 78 75 75 74 79 82 83 84 81 79 78 77 77 77 76 77 77 76 75 76 76 76 75 78 76 74 74 75 68 63 64 65 67 72 70 71 72 73 75 72 73 74 73 73 74
72 70 70 70 75 77 74 70 76 81 83 84 82 83 80 78 76 75 75 76 78 76 76 77 76 76 76 75 78 72 72 75 69 65 67 65 66 70 71 72 74 74 76 75 72 74 74 73 69
68 76 74 71 68 63 73 59 71 77 79 82 82 80 80 78 78 77 76 75 77 78 79 77 77 76 77 76 76 72 69 70 72 68 67 66 69 65 70 72 73 74 77 72 71 73 74 74 67
71 79 74 72 68 67 68 63 70 77 74 79 84 84 80 79 78 77 77 77 79 79 79 79 78 77 76 76 75 77 73 70 71 72 68 71 69 70 70 69 70 70 69 70 72 72 74 75 65
79 73 72 71 69 57 67 66 67 75 75 79 84 83 81 79 78 79 78 79 79 80 79 78 77 77 77 78 76 73 69 69 66 66 68 70 68 69 69 68 67 71 72 72 73 73 73 71 72
75 68 58 55 56 55 67 63 69 77 81 82 82 84 80 79 78 77 76 78 78 78 78 78 77 76 77 77 76 75 74 69 66 65 63 67 65 68 67 67 69 69 71 71 72 73 72 73 72
71 69 61 49 52 60 66 59 72 80 83 83 82 82 80 78 79 78 78 78 79 78 78 78 77 77 78 78 76 76 75 78 67 70 65 65 66 63 66 65 70 70 73 70 73 73 70 70 68
71 65 75 63 66 59 65 69 77 81 81 81 79 77 76 76 77 78 79 78 79 78 78 78 78 78 78 78 76 76 76 75 72 72 71 69 65 67 70 69 67 71 71 70 72 71 71 69 66
76 78 62 65 51 49 61 62 67 73 76 77 76 76 75 77 78 79 79 78 79 79 79 78 79 78 78 78 78 78 77 77 77 75 74 73 72 68 66 69 70 72 73 73 71 69 72 70 69
71 69 69 70 67 56 53 63 77 76 78 78 80 78 76 77 79 79 80 80 80 80 81 78 79 79 78 78 78 77 77 78 77 77 77 75 71 74 68 63 63 64 70 70 72 71 68 67 65
76 71 69 62 58 64 63 64 81 80 81 81 81 79 80 81 81 81 81 80 80 79 80 78 79 80 80 79 78 76 77 78 77 77 77 78 75 74 70 66 64 63 64 67 72 73 72 72 68

GFSSGP_sfc_temp_003.txt.gz
Temp
82 93 100 95 80 84 79 83 89 86 86 92 92 89 87 89 83 75 94 97 96 97 95 87 79 79 79 79 78 78 78 78 78 78 78 77 77 77 77 77 77 77 77 78 78 78 79 79 79
98 96 96 90 78 75 77 88 84 88 91 92 91 90 88 83 92 92 94 95 97 96 94 94 78 78 79 79 78 78 78 78 78 77 77 77 77 77 77 77 76 76 77 78 78 78 79 79 79
97 98 89 86 81 77 77 86 88 91 92 91 89 91 88 85 90 93 96 95 96 95 96 91 78 78 78 79 78 78 77 77 77 78 78 77 77 77 76 76 76 76 77 77 78 78 78 79 79
95 95 92 80 77 83 82 88 90 90 92 93 92 86 91 93 91 95 97 97 96 98 97 84 79 78 78 78 78 77 77 77 77 77 77 77 77 76 76 76 76 76 76 77 77 77 77 78 79
97 93 81 78 80 86 88 91 91 88 90 91 91 85 86 91 94 95 94 95 94 96 96 94 79 77 77 78 78 78 77 77 77 76 76 76 76 76 76 76 75 76 76 76 76 76 76 77 77
88 92 78 76 79 85 89 91 90 90 91 92 88 87 88 95 92 94 95 94 94 92 91 91 80 78 75 74 74 74 74 74 74 74 73 73 74 74 74 76 76 75 75 76 76 76 76 76 76
85 84 78 80 81 83 86 92 89 89 90 89 93 83 90 92 95 93 93 92 91 92 90 90 88 85 76 76 73 72 72 72 71 71 71 72 72 73 73 74 75 74 74 75 75 75 75 75 76
90 86 79 82 80 80 91 89 94 89 88 95 93 83 85 92 93 93 94 94 92 92 92 90 89 90 86 85 76 72 72 71 70 70 70 71 71 71 72 72 74 74 74 75 75 74 75 75 76
96 80 77 80 81 84 92 88 93 95 90 91 92 90 92 93 93 92 91 92 93 92 90 90 89 86 85 84 83 76 76 74 73 73 72 71 73 77 77 75 75 74 73 74 74 75 75 75 75
87 79 80 89 89 86 89 90 92 89 88 88 88 91 89 91 91 90 89 89 89 88 89 89 86 82 81 83 82 81 79 77 74 73 70 71 72 74 76 73 73 72 73 74 74 74 75 75 81
88 79 86 88 90 91 88 89 94 88 84 90 86 90 89 90 89 88 91 90 87 87 88 88 83 80 79 81 81 80 80 72 70 70 68 68 70 74 74 73 77 75 72 74 76 77 78 80 80
83 87 88 87 90 90 87 92 88 88 88 93 93 93 92 89 88 88 89 88 87 86 85 84 82 79 78 79 80 81 79 73 74 71 68 71 72 71 70 73 72 71 74 74 72 73 79 79 79
83 84 87 91 92 91 91 87 87 88 93 94 93 92 91 90 88 88 88 87 85 83 83 82 80 78 77 76 78 77 74 72 76 76 75 72 70 70 72 71 72 74 72 73 71 75 76 80 79
88 88 88 90 90 91 86 87 86 89 92 89 90 90 90 87 88 87 84 83 82 82 81 80 80 78 78 74 74 71 72 72 76 79 76 73 72 69 70 72 73 70 70 69 71 76 79 77 77
90 82 86 87 88 86 89 81 82 90 91 89 88 86 88 90 90 86 85 82 82 83 81 79 79 79 77 75 77 74 74 73 72 74 72 74 72 70 70 71 71 70 73 72 74 69 77 72 75
83 83 75 86 88 88 85 73 86 92 90 86 87 89 88 89 88 87 86 83 82 81 80 80 82 80 79 77 77 76 76 74 72 70 65 68 72 73 70 71 71 69 71 71 73 77 76 75 73
79 71 75 79 89 85 82 76 86 91 89 86 87 88 88 87 85 85 85 83 82 81 80 79 79 79 78 78 79 78 75 73 71 67 64 66 72 74 71 70 71 72 70 71 75 73 76 73 68
71 74 77 76 84 84 80 79 86 89 88 86 88 87 87 85 84 84 83 83 82 81 80 79 80 79 77 79 69 79 74 74 72 69 66 66 72 73 73 71 71 71 70 71 72 71 71 75 72
80 77 76 81 86 82 79 78 83 87 88 87 87 87 86 85 86 84 82 82 81 80 79 79 78 78 77 79 74 77 71 75 75 71 69 70 69 72 73 71 71 72 70 71 73 75 71 69 72
79 76 75 80 84 81 78 76 82 85 86 88 87 88 86 84 83 82 80 80 79 79 79 79 79 78 78 80 78 77 72 74 76 74 72 71 73 71 72 72 74 74 72 71 73 72 68 74 71
78 74 74 74 80 82 77 73 78 85 88 88 89 89 88 84 81 80 79 79 80 79 79 79 79 78 77 78 79 78 77 73 71 73 73 71 71 72 72 72 76 75 76 72 72 73 74 72 71
72 81 78 75 72 66 79 63 74 81 82 85 87 87 87 85 83 81 79 78 79 81 81 80 80 78 79 78 78 75 71 68 70 73 70 69 72 72 72 73 75 75 76 77 75 73 74 72 67
76 83 79 76 71 70 71 66 73 81 78 81 85 88 87 86 83 80 80 80 81 82 81 81 80 79 78 77 76 77 72 72 70 70 71 69 70 70 73 72 74 75 76 76 75 74 73 73 73
85 79 77 76 72 60 69 68 70 76 78 81 86 88 86 86 83 82 82 81 81 82 82 80 79 78 79 79 77 75 73 71 70 68 68 70 67 67 71 72 71 73 74 72 73 75 72 72 71
80 72 61 57 59 57 73 68 71 80 83 84 85 87 86 85 83 81 80 80 80 80 80 80 80 78 79 79 77 76 76 72 70 69 68 70 67 63 68 70 70 70 72 74 74 72 71 71 71
75 72 63 51 56 63 72 63 73 83 86 86 87 87 86 83 83 81 81 81 81 80 80 81 80 79 79 79 77 77 77 75 70 67 67 64 67 68 70 69 71 72 73 73 73 71 70 73 73
75 68 77 67 69 64 69 73 80 83 83 85 85 84 82 81 81 81 81 82 81 81 79 80 80 80 80 79 78 77 78 76 68 70 70 68 69 67 71 72 71 72 72 72 71 69 73 72 71
80 82 66 69 53 51 64 67 70 75 79 82 81 81 80 81 81 82 82 81 82 81 80 80 81 80 80 79 80 79 79 78 77 77 74 71 66 71 68 72 71 71 72 72 71 71 72 68 67
75 73 73 72 69 58 56 65 80 79 81 80 83 83 81 81 82 83 83 82 83 83 83 80 81 80 79 80 79 79 79 79 78 77 77 72 71 68 73 73 73 71 71 72 72 71 71 69 66
80 75 74 65 60 68 67 69 84 83 84 84 84 84 84 84 84 85 84 83 83 82 82 80 81 81 81 81 80 79 79 79 78 77 77 74 72 66 65 72 73 74 73 70 73 73 72 68 65

GFSSGP_sfc_temp_006.txt.gz
Temp
78 85 89 92 75 78 75 77 87 86 85 91 92 88 85 87 81 71 92 95 96 90 85 82 79 79 79 79 78 78 78 77 77 77 77 77 77 77 77 77 77 77 77 77 78 79 78 79 79
94 95 93 86 71 69 75 84 82 87 90 92 92 90 87 82 91 91 90 95 97 92 82 84 78 78 79 78 78 78 77 77 77 77 77 77 77 77 77 77 77 77 77 77 78 79 79 79 79
87 98 85 80 76 71 73 84 86 90 94 90 88 93 89 82 90 92 94 95 96 93 90 82 78 78 78 78 78 77 77 77 77 77 78 77 77 76 76 76 77 77 77 77 78 78 79 78 79
92 92 88 75 74 82 82 86 90 88 92 94 91 85 90 94 91 95 96 97 96 96 93 80 78 78 78 78 78 78 77 77 77 77 77 77 77 77 76 76 76 76 77 77 77 78 77 77 77
94 89 76 75 78 81 87 91 90 87 89 91 91 84 83 91 95 95 94 95 94 93 89 82 78 79 78 78 78 78 77 76 76 77 76 76 75 75 76 76 76 77 76 76 77 77 76 76 76
84 87 73 72 79 85 88 92 90 88 90 91 89 87 84 92 92 94 95 93 94 90 87 84 79 78 77 76 75 74 74 73 74 74 74 74 74 74 74 75 75 76 76 76 76 77 76 76 75
81 79 74 77 77 81 86 93 87 88 88 88 92 82 87 89 94 94 93 92 91 91 88 85 84 80 77 76 76 74 73 72 72 72 71 72 72 73 73 74 74 75 76 75 75 76 76 75 75
86 83 75 78 77 79 90 91 93 90 87 95 94 82 82 89 93 92 92 92 90 90 90 86 83 86 81 75 74 74 73 73 72 72 72 71 71 72 72 72 73 74 75 74 74 75 75 75 75
93 76 72 76 79 82 91 88 94 97 90 91 93 90 92 93 92 90 88 91 91 91 88 85 86 82 80 81 80 74 75 73 74 74 73 71 69 71 73 74 74 75 74 74 73 75 74 74 75
83 75 75 85 87 85 89 88 89 88 88 88 89 93 92 91 90 88 87 86 87 88 87 85 80 77 78 81 78 77 78 76 73 71 70 68 69 68 72 73 74 74 74 74 74 74 74 74 72
84 77 83 85 89 90 87 87 91 87 83 88 86 90 89 88 88 87 89 90 84 84 85 83 79 79 77 76 76 75 75 73 72 70 68 68 68 68 70 69 70 69 72 69 72 72 72 72 72
79 86 87 88 90 88 85 89 86 88 88 94 93 93 91 87 85 86 87 85 83 84 83 83 80 77 76 76 75 75 73 72 71 71 68 67 68 66 67 68 68 67 67 67 67 68 69 70 71
81 85 88 90 88 88 90 86 87 87 93 95 95 93 90 89 87 86 86 86 84 82 82 81 78 77 76 74 73 73 71 72 72 69 68 69 67 65 66 67 67 67 68 66 66 66 69 69 72
86 86 87 88 87 89 85 86 87 89 93 92 91 90 90 89 88 84 84 83 81 82 81 80 79 78 77 74 72 71 71 71 71 68 67 70 68 65 66 67 66 66 67 66 66 68 66 69 70
86 79 83 85 86 85 89 80 81 90 92 89 89 90 90 90 90 86 82 80 81 81 81 79 78 77 75 74 73 71 71 70 67 67 68 67 67 66 67 65 65 65 66 66 66 67 67 67 70
79 79 72 83 86 87 85 71 84 90 89 86 89 89 89 87 89 88 85 80 80 80 79 80 81 79 77 75 73 71 70 70 68 68 67 65 67 68 67 65 66 66 65 65 66 65 66 67 67
75 67 71 76 87 85 84 75 85 90 88 86 87 88 89 88 86 84 85 81 79 79 79 79 79 77 77 75 72 70 73 72 70 68 65 65 68 70 67 65 67 67 65 65 65 64 65 66 65
66 69 73 72 81 85 80 78 84 87 87 85 86 87 87 86 83 83 82 81 79 79 78 78 77 77 76 74 68 67 70 72 70 69 68 67 67 70 68 66 66 67 65 64 65 65 67 68 68
75 73 73 79 85 79 77 78 82 86 86 85 86 86 85 84 85 82 81 80 78 77 76 76 77 77 75 73 71 70 70 69 68 68 69 68 67 68 68 66 66 67 65 65 65 66 66 65 65
74 72 72 79 85 82 79 78 82 85 84 85 85 85 86 83 82 80 78 78 76 75 76 76 76 77 75 74 72 72 72 70 72 69 69 70 68 68 68 67 66 66 65 66 66 67 65 62 64
73 71 72 73 80 82 78 73 77 83 87 88 89 88 88 82 80 78 77 76 76 75 76 76 77 77 76 75 71 72 70 68 69 68 67 66 70 69 69 69 67 66 67 67 66 65 65 63 65
68 79 78 76 72 64 78 61 73 79 81 85 86 86 85 83 82 79 77 75 75 76 77 77 77 76 76 75 73 70 66 64 66 67 67 65 71 70 69 69 70 68 67 66 65 66 63 63 61
74 82 79 77 72 70 69 64 70 79 76 81 85 87 85 83 81 79 78 77 78 78 76 76 76 76 77 76 74 70 69 67 67 66 67 66 63 68 70 69 70 68 67 67 67 66 66 65 64
84 79 78 76 71 59 67 65 66 73 77 81 85 87 85 84 82 80 79 79 78 79 77 76 76 76 77 77 75 73 68 67 66 65 65 65 65 65 69 70 70 69 68 69 69 68 67 67 66
80 72 59 55 56 55 70 66 68 79 83 84 84 84 84 83 81 79 77 77 77 76 76 77 76 74 76 76 75 74 69 65 67 65 64 65 64 64 66 67 68 68 68 70 70 68 67 67 67
76 71 61 49 52 58 72 62 71 83 86 87 87 86 84 82 80 79 78 77 78 77 76 77 76 74 76 76 75 75 68 65 67 67 64 64 65 65 67 67 68 69 69 68 68 66 66 67 67
74 68 76 65 67 61 67 72 79 83 82 84 85 84 80 80 78 79 79 78 77 76 76 77 76 76 77 76 75 75 69 68 68 68 66 64 67 67 68 68 68 69 69 68 67 67 67 68 66
78 81 65 66 51 50 61 65 68 73 78 81 81 81 79 79 79 79 79 78 79 77 76 77 78 77 77 77 76 76 70 72 70 69 68 64 67 68 67 68 67 68 68 68 68 67 68 67 65
74 72 72 70 67 56 53 62 78 77 78 75 77 81 79 79 79 80 80 80 80 79 78 76 77 77 76 76 76 76 74 75 71 68 70 64 66 68 68 68 68 68 68 67 67 67 67 66 65
79 74 73 63 59 65 64 64 81 82 82 82 80 81 81 81 81 82 81 80 80 78 78 76 77 77 77 77 76 76 75 74 70 68 69 66 66 69 70 71 70 68 69 68 67 67 67 65 64

GFSSGP_sfc_temp_009.txt.gz
Temp
72 75 74 75 60 60 56 69 78 78 74 78 83 80 74 76 73 59 78 83 82 78 76 78 78 79 79 78 78 78 77 77 77 77 77 77 77 77 77 76 76 77 77 77 78 78 78 78 79
76 81 77 72 57 50 58 74 76 74 79 82 83 81 76 73 82 80 79 84 82 78 74 76 78 78 78 78 78 77 77 77 77 77 77 77 77 77 77 77 77 77 77 77 77 78 78 79 79
82 87 71 64 58 55 60 72 79 80 85 81 78 85 80 75 82 80 82 85 80 78 76 77 78 78 78 78 77 77 77 77 77 77 77 77 77 77 76 76 76 77 77 77 77 78 78 78 78
79 76 74 59 58 68 71 76 81 78 82 83 82 76 81 84 83 84 86 88 84 80 81 78 78 78 78 78 78 77 77 77 76 77 77 77 77 77 76 76 76 76 76 77 77 77 78 78 77
77 72 60 57 63 73 77 83 80 78 79 80 83 75 74 82 86 85 86 88 82 74 74 76 77 77 78 78 78 77 77 76 76 76 77 76 76 76 76 76 76 76 77 77 77 77 77 76 76
69 70 56 55 66 77 80 78 82 78 81 81 79 74 73 83 84 83 84 83 80 75 74 74 78 77 77 77 77 75 74 74 73 73 74 74 74 74 74 74 75 76 76 77 77 76 76 76 75
66 61 58 63 68 73 80 83 80 80 77 78 81 74 72 80 83 82 81 79 80 79 74 72 72 75 77 76 76 75 74 74 73 73 72 72 72 73 73 73 74 74 75 75 76 75 75 75 75
73 65 62 66 66 67 83 84 82 81 81 89 88 75 68 76 82 80 78 77 78 78 76 73 69 69 69 69 76 75 74 74 73 72 72 72 71 71 72 72 73 74 74 75 75 74 75 75 74
82 62 61 65 68 73 81 78 86 89 83 84 85 83 82 82 82 77 73 72 74 78 75 73 71 69 68 67 71 74 75 75 73 72 73 68 63 64 67 70 73 73 74 74 74 74 74 74 74
73 64 66 76 77 76 78 78 81 82 81 81 82 83 84 83 78 75 73 74 74 74 72 70 69 68 69 75 67 65 68 66 65 65 64 62 62 61 68 70 73 74 74 74 74 73 73 74 66
76 67 75 78 82 83 79 78 83 80 76 80 78 78 80 78 75 74 74 73 72 74 71 69 69 68 67 67 65 64 65 63 63 64 62 61 62 60 61 61 63 63 69 65 68 68 69 67 65
71 77 79 80 84 82 78 80 80 82 80 87 85 82 79 77 74 74 75 72 72 71 70 69 68 68 66 65 65 64 64 63 62 62 62 60 60 60 60 61 62 62 62 62 63 62 64 65 66
73 77 81 83 84 79 81 78 80 82 85 87 87 84 77 75 75 74 75 72 71 70 70 68 69 66 66 65 64 63 63 63 63 63 63 61 60 61 61 61 61 61 61 61 61 62 64 65 65
78 78 79 82 81 79 78 80 81 82 86 86 84 81 80 78 75 72 73 70 70 70 69 68 69 66 66 64 64 64 63 64 63 62 63 64 64 62 60 60 60 60 60 61 61 62 62 62 63
77 72 76 78 80 77 82 74 76 81 84 81 80 80 80 78 76 74 72 70 69 69 70 68 68 67 66 65 64 64 63 64 62 62 63 66 65 63 60 60 60 60 60 61 61 62 61 61 63
69 70 63 73 77 81 78 66 77 82 80 77 80 80 79 76 76 73 72 69 69 69 68 69 74 67 65 65 65 64 64 63 63 63 62 64 65 64 61 60 60 60 60 60 60 60 60 62 62
65 56 61 67 78 78 74 69 78 81 80 76 76 77 79 75 71 72 73 69 69 69 68 68 68 67 66 66 65 64 65 63 63 63 61 62 63 64 61 60 61 61 60 59 60 60 61 60 60
56 58 64 64 73 76 73 72 75 78 78 75 74 75 76 73 72 72 71 71 68 68 68 68 67 66 66 65 63 62 63 63 64 62 61 62 61 64 62 61 62 61 59 59 59 59 60 61 60
65 63 63 70 77 74 70 71 73 75 76 74 72 72 73 71 71 71 71 70 68 67 66 66 65 65 64 62 62 61 60 62 62 63 63 63 62 63 61 61 61 61 59 59 60 60 60 60 60
66 63 62 69 76 72 71 69 73 76 74 73 74 73 70 67 69 70 68 67 66 65 66 66 66 65 64 63 63 63 62 63 63 63 64 64 64 62 62 61 60 61 60 60 60 60 59 58 60
65 62 62 63 71 74 67 61 66 74 75 77 76 74 70 69 67 68 68 65 64 65 65 66 65 65 65 65 63 62 63 62 62 62 61 62 65 64 63 63 61 61 60 60 60 60 60 57 60
60 71 70 68 64 53 66 47 60 67 69 73 77 69 69 69 69 68 67 63 65 65 67 67 66 65 66 65 63 62 60 59 61 62 63 62 64 64 64 63 63 61 60 60 61 61 61 61 60
65 73 70 69 64 59 59 50 56 65 65 70 71 70 70 70 69 67 66 67 67 68 65 65 66 65 66 65 64 62 61 61 62 61 61 60 62 64 65 64 62 61 61 61 62 59 61 61 60
76 70 69 67 62 46 56 54 56 60 66 69 73 74 70 69 68 68 69 68 67 66 65 65 64 64 66 65 65 62 61 62 60 60 59 60 61 61 64 65 62 62 62 62 61 61 62 61 61
71 61 49 42 43 41 60 55 58 66 71 73 68 69 69 70 68 67 67 66 65 64 64 65 65 64 65 65 65 62 61 62 60 60 59 60 60 60 61 62 62 62 62 64 63 63 63 63 62
66 62 50 38 39 47 62 53 62 73 76 74 74 72 71 68 69 67 66 65 65 65 65 66 64 64 65 65 64 62 62 61 61 60 60 60 60 60 62 62 62 63 64 64 63 61 62 62 62
65 59 65 53 52 47 53 61 66 74 71 71 71 71 66 65 65 66 66 65 65 64 64 65 64 65 65 65 65 62 63 63 62 62 61 60 61 62 63 63 63 63 64 63 63 63 63 63 62
70 69 55 49 41 36 50 53 54 63 67 69 67 65 64 65 66 67 67 65 64 65 65 65 65 66 65 66 65 64 66 64 63 63 63 60 61 62 63 63 63 63 63 63 64 63 62 62 61
66 62 58 56 51 41 40 47 63 64 67 66 67 67 66 66 65 66 66 66 65 65 65 65 66 65 65 65 65 67 65 64 64 63 61 61 62 64 63 63 63 63 64 63 62 63 62 62 63
71 62 58 54 46 52 49 49 68 67 68 68 69 69 66 67 66 67 67 66 65 64 64 65 65 65 65 66 66 66 65 64 63 63 63 61 61 63 64 64 63 65 63 63 63 63 63 61 60

GFSSGP_sfc_temp_012.txt.gz
Temp
70 72 73 73 60 56 52 61 70 72 70 75 77 76 73 72 71 60 73 80 79 76 75 78 78 78 78 78 78 77 77 77 77 77 77 77 77 77 77 76 76 76 77 77 77 77 78 78 78
72 77 73 67 54 48 53 66 67 72 76 77 78 73 73 70 77 76 74 78 80 76 74 76 78 78 78 78 77 77 77 77 77 77 77 77 77 77 77 77 77 77 77 77 77 77 78 78 78
78 82 66 59 54 50 54 69 75 77 80 77 74 78 76 73 78 78 77 78 78 75 75 75 78 78 78 78 77 77 77 77 77 77 77 77 77 77 77 77 76 77 77 78 78 77 77 78 78
77 72 68 56 54 61 66 73 79 75 79 77 78 73 77 81 81 81 80 80 77 75 76 77 78 77 78 78 77 77 77 77 77 77 77 77 77 77 76 76 76 76 77 77 77 77 77 77 78
73 66 56 52 57 65 73 77 77 74 76 75 76 70 71 79 83 82 80 80 75 73 74 76 77 77 78 78 78 77 77 77 76 77 77 77 77 76 76 76 76 76 77 77 77 77 76 77 77
64 64 51 51 59 70 72 77 79 76 78 75 73 72 72 79 80 79 79 75 75 73 72 74 77 77 77 77 77 77 76 75 75 75 74 74 74 75 75 75 75 75 76 76 77 77 76 76 75
61 57 51 57 62 66 72 80 75 77 77 76 76 68 70 75 79 78 76 74 73 74 72 72 73 76 77 77 76 76 75 74 74 74 73 73 73 73 73 73 74 75 75 75 75 76 75 75 75
67 61 54 58 60 62 74 77 77 77 78 83 83 68 66 76 78 75 73 72 72 72 73 70 66 68 68 70 76 75 75 74 74 73 73 72 72 72 72 72 72 73 74 75 75 75 75 74 75
73 55 54 57 61 67 76 69 81 84 78 80 81 76 80 80 75 72 70 70 69 71 67 66 66 65 66 67 70 74 75 75 74 72 73 71 63 62 66 68 71 73 73 73 74 75 74 73 74
65 55 61 70 70 70 75 72 77 77 77 77 75 77 80 79 75 73 70 69 67 67 66 66 65 66 66 71 66 65 66 65 65 64 63 61 60 60 65 68 71 72 73 73 73 74 73 73 66
67 63 71 72 76 77 75 76 81 77 72 76 74 75 76 74 72 72 71 70 67 67 67 65 64 64 65 64 62 61 61 60 61 63 61 60 61 59 59 59 61 61 67 64 67 68 67 66 64
62 71 73 74 78 77 75 80 78 78 78 81 80 79 75 73 72 71 70 68 67 67 66 65 64 64 63 62 62 61 61 61 60 61 61 59 58 58 59 59 60 60 61 61 62 62 62 64 64
66 71 75 77 77 78 80 77 78 78 82 82 81 78 75 74 73 71 70 70 66 65 64 64 64 63 63 63 61 61 61 61 61 60 61 60 59 58 61 61 60 59 59 60 60 60 62 62 63
71 71 73 76 75 77 75 76 76 79 82 81 77 75 76 74 73 68 68 66 66 66 64 64 64 63 63 62 62 61 61 62 61 61 61 62 60 59 61 59 59 58 59 59 60 60 60 60 61
70 65 71 73 74 74 76 71 72 78 79 77 76 76 75 75 73 72 71 69 68 67 66 64 64 64 63 62 61 61 61 62 61 61 62 62 61 61 62 58 58 59 59 59 59 60 60 60 61
62 59 54 68 72 76 70 62 73 77 76 74 76 76 76 72 73 72 71 69 65 65 64 65 70 64 63 61 62 61 62 61 61 61 61 62 62 61 59 58 58 59 58 58 58 59 58 59 59
56 52 55 61 71 72 68 65 74 80 79 76 74 73 74 73 69 69 70 68 66 65 64 64 64 63 63 63 62 61 62 61 62 61 61 61 62 62 59 59 59 60 58 57 58 58 59 58 58
50 51 57 59 68 69 66 66 73 77 75 75 73 72 71 70 70 67 65 67 64 64 64 63 63 63 63 61 61 61 60 61 62 62 61 62 61 62 59 59 59 59 57 57 57 58 60 59 58
60 57 56 64 71 66 64 67 72 77 69 70 71 70 69 66 65 66 67 66 64 63 63 63 63 62 61 60 60 59 59 60 61 62 63 63 60 61 58 59 59 59 57 57 58 58 59 57 58
60 57 57 65 70 64 65 65 72 73 69 71 72 70 65 61 63 66 64 64 63 62 63 62 63 61 61 60 61 60 60 61 61 62 63 64 62 62 60 59 59 59 58 58 58 59 57 57 58
59 57 59 59 66 67 63 60 65 71 70 73 73 69 64 64 63 64 64 62 61 61 62 63 62 62 62 63 61 60 60 61 61 60 61 62 64 63 61 61 59 59 58 58 57 58 58 56 57
55 66 65 63 58 49 62 45 55 64 67 68 71 66 62 65 66 65 63 59 61 62 63 63 62 62 63 62 61 60 58 57 59 59 61 60 64 63 63 61 60 59 59 58 58 59 58 59 57
60 68 64 63 58 52 58 48 55 60 63 66 68 63 62 66 65 64 63 64 63 63 61 62 62 63 63 62 61 60 58 59 59 59 59 61 61 63 63 61 60 59 59 59 60 59 59 59 59
69 63 61 59 55 44 56 52 57 56 64 66 66 64 63 62 62 62 64 64 63 62 61 61 62 62 62 62 61 60 58 59 58 58 58 58 60 60 61 62 60 60 59 60 58 59 59 58 61
64 53 42 37 41 43 57 51 55 61 65 70 68 62 62 63 61 63 62 62 60 60 61 61 61 61 61 62 61 60 59 59 58 57 57 58 58 58 59 60 60 60 60 60 60 59 61 59 61
60 57 44 36 37 43 57 49 59 68 70 69 66 65 65 61 63 63 63 62 62 62 61 62 61 61 61 61 61 60 60 59 59 59 59 58 58 58 59 60 61 61 62 61 60 60 60 60 60
58 53 62 49 47 44 49 56 63 65 63 64 63 64 61 61 61 62 63 61 61 60 61 61 61 61 62 61 60 60 60 61 60 62 60 59 59 61 60 61 60 61 62 61 60 61 61 61 61
64 64 51 44 40 36 45 49 51 59 59 62 61 60 59 60 61 63 63 61 61 62 61 61 62 61 62 62 61 62 62 62 61 60 59 60 60 61 61 61 60 61 61 61 62 62 61 61 62
57 58 54 54 48 41 38 45 58 61 62 61 63 62 61 61 63 63 62 62 61 61 60 61 61 62 61 62 62 64 62 62 61 59 59 60 60 61 61 61 61 61 61 61 61 59 61 61 62
65 57 58 52 44 47 46 47 62 61 65 67 64 65 63 64 63 63 62 61 60 60 60 61 61 62 62 63 62 62 62 61 61 60 59 60 60 61 61 62 62 62 61 61 61 61 63 63 61

GFSSGP_sfc_temp_015.txt.gz
Temp
71 71 70 71 59 54 50 57 65 68 69 72 74 72 71 71 70 61 72 76 77 77 74 77 78 78 78 78 78 77 77 77 77 77 77 77 77 77 77 76 76 76 76 76 77 77 77 78 78
71 75 73 66 53 46 51 62 66 69 75 72 74 71 71 69 74 73 73 76 77 74 74 75 78 78 78 78 77 77 77 77 77 77 77 77 77 77 77 77 76 77 77 77 77 77 77 77 78
75 78 66 59 50 47 52 63 68 74 78 74 70 74 73 71 76 74 76 76 75 74 75 75 78 78 78 78 77 77 77 77 77 77 77 77 76 76 76 77 77 77 77 78 78 78 77 77 77
75 70 65 54 52 57 61 68 70 73 75 74 74 70 75 78 76 78 77 77 75 75 75 75 77 77 77 78 77 77 77 77 77 77 77 76 77 77 76 76 76 77 77 78 78 78 77 77 77
71 65 56 51 55 60 67 72 72 72 74 73 74 70 70 77 80 77 76 78 75 71 71 73 77 77 78 78 77 77 77 76 76 77 77 77 76 76 76 76 76 76 77 77 77 77 77 76 77
62 61 50 49 56 64 68 72 71 73 75 73 71 70 70 76 76 74 76 73 74 71 69 71 77 77 77 77 77 77 76 76 76 76 76 75 75 75 75 75 75 76 76 76 77 77 76 76 75
61 55 50 53 59 62 68 72 68 70 71 73 73 68 69 72 75 74 73 72 71 71 71 71 73 75 77 77 76 76 76 75 75 75 74 74 74 74 74 74 74 75 75 75 75 75 75 75 75
64 59 51 55 56 60 70 71 69 71 75 77 77 69 66 73 74 71 69 69 67 68 71 69 68 70 70 71 76 76 75 75 74 74 74 73 73 73 73 72 72 73 73 73 74 75 75 75 74
68 53 51 55 59 62 69 66 75 80 76 77 79 74 77 77 72 69 66 65 64 68 64 64 64 66 66 67 70 75 76 75 75 73 74 71 64 62 65 68 71 71 72 73 73 74 74 74 74
62 52 58 69 67 65 68 68 73 73 74 73 77 77 75 76 72 70 67 66 64 64 64 63 63 63 64 69 65 65 66 64 64 65 63 62 60 59 64 66 70 71 72 73 73 73 74 74 65
62 60 68 69 72 69 69 71 77 72 70 74 74 75 72 72 70 71 71 71 70 68 64 63 62 62 63 64 61 60 60 60 60 62 61 60 60 59 59 58 59 59 64 62 65 65 66 65 63
59 66 71 72 75 68 69 74 73 75 75 82 78 77 72 71 70 71 71 69 65 64 64 63 62 62 61 61 59 59 59 59 59 60 60 58 58 58 58 57 58 59 59 60 60 61 62 63 63
61 67 71 72 71 72 74 71 73 74 80 83 80 74 72 72 72 73 73 70 64 63 64 63 61 61 61 60 59 59 59 60 60 60 60 59 58 57 58 59 60 60 59 58 59 60 60 61 62
65 66 67 70 71 72 70 71 73 76 79 79 75 71 73 72 72 69 65 65 63 65 64 62 62 61 61 60 60 60 59 60 60 59 60 61 59 58 58 61 60 58 57 58 59 59 59 60 60
66 61 66 68 71 70 73 66 68 77 76 73 72 72 72 73 73 69 72 67 66 65 64 62 61 61 61 60 60 59 59 60 60 60 61 61 60 59 59 60 59 57 58 58 58 58 59 59 59
59 55 52 65 70 72 67 58 70 77 73 72 73 72 72 72 71 73 69 66 64 62 62 62 67 61 60 59 59 60 60 60 60 60 60 61 61 60 59 58 57 58 58 57 57 57 57 57 58
51 50 52 59 67 66 63 60 69 73 71 70 73 73 72 73 67 67 66 64 62 63 62 62 62 61 60 60 59 59 60 60 60 60 60 61 62 62 58 57 57 59 57 56 57 56 57 57 57
48 47 55 55 62 64 62 61 69 73 72 71 74 73 69 71 69 67 63 63 63 62 62 61 61 60 60 59 59 59 59 60 61 60 61 62 62 61 58 57 58 58 57 56 56 56 57 57 57
58 55 54 60 65 62 59 60 65 71 68 67 68 68 68 65 62 61 63 66 63 61 60 60 60 59 59 57 58 58 59 59 59 60 62 63 62 60 58 57 58 58 56 56 56 56 57 56 57
57 53 53 59 64 61 59 59 66 68 69 69 70 71 63 59 59 62 63 65 63 60 60 60 61 59 59 58 59 59 58 60 60 60 62 63 62 61 59 58 58 58 56 56 56 57 57 56 57
55 53 54 55 60 62 59 56 61 69 68 70 68 68 64 63 59 61 62 62 60 60 60 61 60 60 59 60 59 58 59 59 59 59 60 60 63 62 60 60 59 57 57 55 56 57 57 55 57
51 61 61 59 53 46 57 41 53 60 64 65 68 66 66 60 60 62 64 58 60 60 60 60 60 59 60 60 59 59 57 56 57 58 59 60 63 62 61 61 59 58 57 56 57 58 57 57 56
57 64 60 58 52 48 53 45 51 56 60 63 67 66 59 58 60 62 60 61 60 60 59 60 60 59 60 60 60 58 57 57 57 57 58 58 60 62 62 60 59 58 57 57 57 57 57 57 57
66 57 55 54 48 41 51 47 48 54 60 63 65 60 59 58 58 58 60 60 60 59 59 59 59 59 60 60 60 59 58 57 57 57 57 57 59 59 60 60 58 59 58 58 58 58 58 57 59
59 48 36 33 35 37 52 47 54 60 63 65 67 61 58 57 57 59 61 58 58 58 58 59 59 59 59 60 60 58 58 58 56 58 57 56 57 57 57 58 59 58 58 59 57 58 58 59 59
56 53 38 32 33 40 53 45 54 64 67 67 68 61 59 57 58 60 60 60 60 59 58 60 59 58 59 59 60 58 59 58 57 58 57 57 57 57 58 59 59 60 60 59 58 58 57 59 59
56 49 58 45 43 40 45 52 59 61 60 61 58 58 56 57 58 59 60 59 58 58 58 59 58 59 59 59 59 59 59 59 59 58 58 57 57 59 59 59 59 60 60 59 59 59 59 59 59
56 60 46 42 34 33 43 46 50 57 57 57 57 55 56 55 57 59 59 58 59 59 59 58 59 60 60 59 59 60 60 60 59 59 58 58 59 59 59 59 59 59 59 59 62 61 61 61 61
51 52 48 51 46 36 35 43 55 60 59 58 58 57 56 57 59 60 59 59 60 58 58 58 58 60 59 59 59 60 60 60 59 58 58 59 59 59 59 59 59 59 59 59 60 60 62 63 61
61 56 54 45 41 46 42 48 60 60 62 62 60 60 57 59 60 60 60 57 57 57 57 58 58 59 60 60 60 60 60 60 58 58 59 59 59 59 60 60 60 60 59 59 60 61 63 62 60

GFSSGP_sfc_temp_018.txt.gz
Temp
71 70 69 69 58 53 48 55 62 64 64 69 74 71 69 72 66 59 70 73 76 75 72 77 78 78 78 78 78 77 77 77 77 77 77 77 77 76 76 76 76 76 76 76 77 77 77 77 77
70 72 70 65 54 46 50 58 62 67 71 70 70 69 68 70 73 72 72 74 75 74 72 75 78 78 78 78 77 77 77 77 77 77 77 77 77 77 77 77 76 77 77 77 77 77 77 77 77
73 77 67 59 51 48 51 61 65 71 74 73 68 72 71 72 74 74 75 74 73 73 73 74 78 77 78 78 77 77 77 77 77 77 77 77 77 77 76 77 77 77 77 78 78 78 77 77 77
73 71 66 54 50 56 58 64 65 68 73 72 72 70 73 79 76 77 77 75 73 73 74 75 77 77 77 78 77 77 77 77 77 77 77 77 77 76 76 76 76 77 77 78 78 78 78 77 77
69 64 54 50 53 58 64 67 66 67 68 72 71 70 69 75 77 76 73 76 73 70 71 73 77 77 77 78 77 77 77 76 76 77 77 77 76 76 76 75 76 77 77 77 77 77 77 77 76
62 61 49 48 56 62 65 68 66 67 69 70 68 66 70 73 74 73 73 72 73 70 67 70 77 77 77 77 77 77 76 76 76 76 77 77 76 76 76 76 76 76 76 76 77 76 76 76 75
59 54 49 53 58 60 64 68 67 66 68 70 70 66 70 71 75 72 71 70 69 69 68 69 73 75 77 77 77 76 76 76 76 75 75 75 75 75 75 74 74 74 75 75 75 75 75 75 75
65 57 49 55 56 59 68 69 69 68 70 74 75 68 69 72 72 69 68 67 66 67 68 68 70 72 72 73 77 76 76 75 75 75 75 74 74 74 74 73 72 72 73 75 74 75 75 75 74
65 51 48 54 55 60 64 63 70 77 73 73 76 74 75 71 69 68 64 64 63 67 65 66 67 68 68 69 71 76 76 76 75 74 74 72 67 65 68 68 71 72 72 73 73 74 74 74 74
60 50 54 64 63 63 63 63 68 68 70 70 73 77 76 71 68 68 66 67 63 65 63 64 64 65 65 69 67 67 67 66 66 66 65 65 64 62 65 67 70 71 72 72 73 73 73 74 69
59 58 66 67 69 64 65 66 69 67 66 72 70 76 72 68 67 68 70 70 70 70 65 63 63 63 63 63 62 61 62 62 62 63 63 62 62 61 62 61 62 62 65 64 65 65 66 68 67
54 63 69 70 72 66 66 69 68 71 71 77 77 76 72 68 66 69 68 69 66 64 64 62 62 61 61 61 61 61 60 60 60 61 61 60 59 59 59 59 60 60 61 61 62 62 64 65 65
58 64 67 68 66 67 70 66 68 70 77 79 77 74 72 68 70 71 72 70 67 62 62 61 60 60 60 60 60 59 59 60 60 60 61 60 59 59 59 59 60 60 61 61 61 61 63 64 64
61 64 65 65 66 70 67 67 68 73 79 76 74 74 71 68 69 69 66 67 65 64 60 60 62 60 60 60 59 59 59 60 60 60 61 61 60 59 59 60 61 61 60 59 60 61 61 62 63
61 56 60 63 66 66 71 62 65 75 75 70 73 74 72 69 69 68 72 70 69 61 61 61 60 61 60 60 59 59 59 60 59 60 61 61 61 60 60 59 59 60 59 60 60 60 61 61 62
56 54 49 62 67 68 66 55 68 74 69 69 72 72 70 69 69 72 74 67 60 60 62 62 66 61 60 59 59 59 59 59 60 60 61 62 62 61 60 59 59 59 59 59 59 59 59 60 60
48 48 50 56 66 65 62 55 67 69 67 67 70 71 71 71 66 70 68 61 60 62 61 61 61 60 60 59 59 59 60 59 60 60 61 62 62 63 60 59 59 60 59 59 59 58 59 59 59
45 45 50 52 62 63 57 58 65 69 67 67 67 68 67 68 68 68 62 60 61 61 62 61 60 60 59 59 58 58 59 60 60 61 62 63 63 63 60 59 59 59 59 58 58 59 59 60 60
54 52 52 55 63 59 56 56 61 67 64 64 65 66 67 64 64 61 60 61 61 61 60 60 59 58 58 58 58 58 59 60 60 61 62 63 63 62 60 58 59 59 59 58 58 59 59 59 59
54 52 50 56 63 59 56 56 61 65 64 64 67 68 66 61 60 58 57 60 62 61 61 59 59 58 58 58 59 59 59 59 60 61 61 63 63 62 61 59 59 59 58 58 58 59 58 58 59
52 51 52 53 58 57 54 53 58 65 64 65 65 65 64 62 59 56 58 59 59 60 59 59 59 59 59 60 59 59 59 59 59 60 60 62 63 63 62 60 60 59 58 57 58 58 59 57 58
49 58 58 56 49 41 53 38 53 58 61 63 66 64 65 60 57 57 57 55 59 59 59 59 59 59 60 60 59 59 58 56 58 58 59 61 63 63 62 61 60 59 58 57 58 59 59 59 57
54 62 58 56 48 43 47 41 49 54 56 60 64 66 63 58 56 56 56 59 60 59 59 59 59 59 60 59 60 58 58 57 58 59 59 60 61 63 62 61 60 59 59 59 59 59 60 60 59
64 57 53 49 44 37 47 44 45 50 59 61 63 63 58 55 55 56 58 59 58 58 58 58 59 58 59 60 60 59 59 58 58 58 58 58 59 60 61 61 60 60 59 59 59 60 60 60 61
59 47 34 31 32 32 49 44 51 56 60 63 64 63 56 54 55 57 58 58 57 57 57 58 59 58 59 60 60 60 59 59 58 58 58 58 58 59 59 60 60 60 60 60 60 59 60 60 61
55 50 36 30 30 38 49 40 49 62 67 65 65 61 55 53 55 58 59 58 58 58 58 59 58 59 59 60 60 60 59 58 58 59 59 58 58 59 60 61 61 61 61 60 60 60 59 61 61
52 47 51 41 42 38 41 49 57 61 63 62 58 57 53 52 54 56 58 58 57 57 58 58 58 59 59 60 59 60 60 60 59 60 59 59 59 60 60 61 61 61 61 61 60 60 60 61 60
57 58 44 43 34 31 40 44 48 56 61 58 55 54 52 52 54 57 58 57 58 58 58 58 58 59 60 59 60 61 61 61 61 60 59 60 60 61 60 61 61 61 61 61 62 62 62 62 61
47 49 44 47 39 33 33 41 52 58 60 59 56 54 52 54 56 58 57 58 58 57 57 58 58 59 59 59 59 61 61 61 60 60 60 60 61 61 61 61 61 61 60 61 61 61 62 62 61
59 52 51 45 39 41 41 43 58 59 60 58 59 56 53 55 57 58 58 56 56 56 57 57 58 59 60 60 60 61 61 60 59 60 60 61 61 61 61 61 61 61 61 61 61 62 63 62 61

GFSSGP_sfc_temp_021.txt.gz
Temp
77 78 79 77 71 70 66 69 74 75 78 84 84 82 81 83 78 77 84 85 86 86 83 82 78 78 78 78 78 78 77 77 77 77 77 77 77 76 76 76 76 76 77 77 77 77 77 77 78
80 78 80 77 64 62 65 70 73 79 83 86 84 83 81 82 86 88 87 84 87 85 82 84 78 78 78 78 78 77 77 77 77 77 77 77 77 77 77 77 77 77 77 77 77 77 77 77 77
80 82 80 75 68 65 70 74 78 80 84 81 82 85 84 84 86 87 91 85 86 84 84 82 78 78 78 78 78 77 77 77 77 77 78 78 77 77 77 77 77 77 78 78 78 78 79 78 77
81 82 78 67 65 69 71 78 78 81 83 82 83 82 85 89 88 91 89 86 85 86 85 82 78 78 78 78 78 77 77 77 77 77 77 77 77 77 77 76 77 77 77 78 78 79 78 78 78
83 80 70 64 65 70 75 79 79 79 80 84 83 81 82 88 89 88 87 86 86 86 86 85 78 78 78 78 78 77 77 77 77 77 77 77 77 77 76 76 76 77 77 78 78 77 77 77 77
77 77 65 63 67 73 77 81 79 79 81 83 80 80 85 88 87 89 87 86 89 85 83 84 79 77 77 78 78 77 77 77 77 77 77 77 77 77 76 76 76 76 77 77 77 76 77 75 76
74 71 66 64 66 69 75 81 79 81 80 81 84 80 87 89 90 87 87 87 86 85 82 82 83 80 77 77 77 77 76 76 76 76 76 76 76 76 76 75 75 75 75 75 76 76 76 75 75
77 74 65 66 67 70 78 80 83 82 80 86 86 80 82 91 85 85 86 86 85 84 84 82 82 84 82 82 77 77 76 76 76 76 75 75 75 75 75 74 74 73 73 74 75 75 75 75 74
75 68 64 66 67 74 78 78 81 85 82 84 87 87 89 85 81 83 82 83 84 82 82 82 83 82 82 83 82 77 77 77 76 76 75 75 80 79 78 75 72 73 73 73 73 74 74 74 74
72 66 68 76 77 75 76 77 78 78 79 80 84 88 88 85 85 84 82 84 82 82 82 82 80 80 81 82 80 81 81 82 80 79 78 78 77 76 75 74 71 71 72 72 73 73 73 74 79
72 66 74 77 78 77 77 77 81 77 75 82 80 83 87 88 84 82 87 88 87 85 84 80 77 78 79 80 80 80 80 79 77 76 75 76 76 75 75 75 75 74 72 75 75 75 77 77 77
66 72 75 77 79 77 75 79 75 77 78 84 85 85 85 85 84 84 84 86 85 85 82 79 77 75 77 79 78 78 77 77 76 76 74 73 74 73 72 74 74 71 73 72 73 75 73 74 75
67 72 75 76 77 77 77 73 73 75 82 86 86 84 83 85 85 84 84 86 86 82 80 76 76 75 74 73 77 76 75 76 77 76 75 74 74 72 73 72 73 72 74 73 72 72 73 73 74
75 72 73 76 75 76 72 73 75 77 82 82 82 83 85 85 86 86 81 79 80 79 77 76 75 74 74 74 73 74 74 76 76 75 75 72 73 71 73 72 72 72 72 72 72 72 72 73 72
72 66 70 70 72 71 75 68 70 79 82 79 80 82 84 85 87 83 84 78 79 79 75 73 74 73 72 73 74 74 75 75 74 75 72 72 71 70 70 71 70 70 69 68 71 71 71 71 71
66 66 61 72 72 73 71 63 77 81 79 78 79 80 81 83 85 86 84 80 80 76 72 73 76 73 72 73 74 75 74 74 73 73 73 72 71 71 70 71 71 71 70 71 71 70 70 70 70
61 59 58 64 71 71 69 67 77 79 76 75 77 79 81 82 83 83 82 81 74 72 72 72 72 73 73 72 74 73 72 73 73 73 73 72 72 71 71 70 71 69 70 70 69 69 69 67 67
55 53 59 60 69 71 69 67 74 75 76 75 77 79 79 79 81 84 80 76 72 72 72 71 71 72 72 73 71 73 72 73 74 73 74 72 72 71 70 64 66 68 68 69 68 67 68 67 68
64 60 59 65 70 67 67 67 70 74 76 75 75 76 77 77 82 77 73 72 71 71 70 70 70 70 71 72 73 72 72 73 73 73 72 72 72 72 67 66 67 67 67 68 67 67 66 65 67
60 59 59 65 68 66 66 65 70 72 73 75 76 76 77 78 79 71 68 69 69 69 70 70 71 69 71 73 72 75 74 74 73 73 71 71 72 71 68 67 63 65 66 66 66 66 65 65 67
58 56 58 59 65 66 63 61 66 73 74 76 77 78 77 77 77 69 67 68 70 69 69 70 70 70 71 72 72 71 71 71 72 72 72 71 71 70 66 67 67 68 68 66 66 66 66 64 65
53 63 62 60 57 53 64 51 63 68 69 73 76 77 78 78 72 69 68 67 68 69 72 71 71 70 71 71 71 70 71 70 71 71 71 71 69 71 66 68 69 69 68 66 67 69 69 66 65
58 65 61 60 57 56 57 52 59 67 64 70 75 77 78 73 71 68 68 68 71 71 71 71 71 71 71 71 72 72 69 71 71 71 68 68 71 70 70 70 69 69 69 68 68 67 68 69 66
65 63 62 61 58 46 55 54 55 63 66 71 77 79 72 68 67 68 69 70 70 73 72 71 70 70 71 71 71 70 69 68 70 69 70 70 69 67 70 70 70 69 69 69 69 69 69 69 68
63 57 47 44 44 44 59 53 55 68 71 72 75 79 71 68 67 67 67 70 69 70 71 71 71 69 71 71 71 70 69 68 68 68 70 67 66 66 69 69 69 69 69 69 69 69 69 69 68
58 57 50 39 42 50 57 50 56 70 75 76 77 77 71 67 68 68 70 70 71 71 71 72 71 71 71 71 71 70 69 72 71 69 70 66 68 70 69 69 70 70 70 70 69 71 71 69 70
57 54 63 54 53 52 54 56 62 70 71 72 74 71 68 67 67 68 70 71 71 71 70 71 72 72 72 71 71 70 70 69 70 68 68 69 68 69 69 70 70 70 71 70 69 70 68 69 67
62 65 50 55 44 41 50 51 59 65 69 73 72 69 66 66 67 68 70 71 72 72 71 72 73 72 72 72 72 72 71 71 70 69 68 69 69 69 70 70 70 70 70 70 69 69 69 68 66
59 57 59 59 56 47 46 54 67 70 72 73 74 69 66 66 68 69 71 71 73 73 73 71 72 72 71 72 72 71 71 71 70 70 71 70 70 70 70 70 70 69 65 66 66 67 67 65 65
65 60 59 52 47 55 53 55 68 70 72 73 72 68 68 69 69 71 72 72 72 72 72 72 71 73 73 73 72 71 71 71 69 69 70 70 70 71 70 71 71 65 64 65 66 65 67 67 64

GFSSGP_sfc_temp_024.txt.gz
Temp
80 90 96 91 80 79 74 77 85 84 85 92 93 91 89 92 87 81 97 100 99 98 93 85 79 79 79 79 78 78 77 77 77 78 77 77 77 77 77 77 77 77 77 77 77 77 78 78 78
94 91 92 91 77 73 77 84 82 87 89 93 93 93 89 88 98 98 99 98 100 98 92 89 78 79 79 78 78 77 77 77 77 77 78 77 77 77 77 77 77 77 77 78 78 78 78 78 78
93 93 89 84 79 75 80 85 87 88 91 91 90 94 92 90 96 100 102 99 99 97 94 90 79 78 79 78 78 77 77 77 77 78 78 78 78 78 77 77 77 77 78 78 79 79 79 79 78
90 91 90 77 76 82 83 88 88 88 91 93 92 88 95 99 97 101 100 100 99 99 97 89 78 78 78 78 78 77 77 77 77 78 78 78 78 77 77 77 77 77 78 78 79 79 79 79 79
92 91 79 77 79 84 87 90 90 88 89 91 92 88 90 98 100 99 98 99 99 99 99 97 78 78 78 79 78 77 77 77 77 78 78 78 77 77 77 77 77 77 77 77 78 78 78 77 78
85 88 76 75 80 84 88 92 91 90 91 91 90 89 92 99 99 100 100 99 101 99 96 96 80 78 78 78 78 77 77 77 77 77 77 77 77 77 77 77 77 77 77 77 77 77 75 76 76
80 81 77 79 79 80 86 93 90 90 91 89 93 86 94 98 100 99 100 100 99 99 96 94 91 82 77 77 77 77 77 77 76 76 76 77 77 77 77 76 76 76 75 75 75 76 76 76 76
88 84 77 80 77 78 87 90 92 90 89 94 93 86 88 98 98 99 100 101 100 98 98 94 91 91 87 86 77 77 77 76 76 76 76 76 76 76 76 75 75 75 74 74 74 75 75 75 75
90 77 74 78 79 81 88 87 90 92 90 93 94 93 97 99 98 99 98 99 100 98 97 96 95 93 90 90 87 78 77 77 76 77 76 77 84 85 83 80 75 74 74 74 73 73 74 74 75
81 76 78 86 87 86 89 86 88 85 86 88 92 97 97 97 98 96 97 97 96 96 97 96 92 91 91 93 89 85 87 87 86 85 84 84 84 84 82 79 74 73 73 73 73 73 74 74 82
82 75 85 87 89 90 87 86 92 86 82 88 88 92 96 96 95 96 97 98 98 100 98 96 89 88 89 91 90 89 89 88 87 84 83 83 84 83 83 83 82 80 77 81 81 81 81 82 79
77 83 84 86 89 87 83 88 85 87 87 92 93 94 94 93 95 97 98 99 99 99 98 96 91 85 85 91 89 89 89 87 86 85 81 80 81 80 80 82 80 79 81 79 79 81 78 79 80
79 82 84 86 85 86 86 83 84 86 90 93 93 93 93 93 95 97 98 98 97 96 97 95 90 84 84 84 88 87 86 86 86 85 83 82 82 80 81 79 79 77 78 79 79 80 79 78 79
84 84 84 85 85 86 82 83 85 86 88 89 90 91 94 94 95 96 95 95 95 94 94 93 88 84 84 83 83 83 83 86 84 85 84 80 81 79 81 78 77 77 77 79 79 78 78 79 79
83 76 81 81 83 82 85 77 78 88 88 87 89 91 93 94 96 94 95 93 94 94 92 89 85 84 82 82 82 82 85 84 85 85 81 80 79 79 76 78 77 77 73 75 75 77 77 78 79
74 75 68 79 80 81 80 70 83 90 89 87 88 90 90 91 94 95 95 95 95 92 89 86 86 84 81 81 82 84 85 84 84 84 83 80 78 77 75 75 73 71 70 71 73 75 77 77 78
71 64 68 72 83 80 78 72 83 90 87 85 86 87 89 90 92 94 95 95 93 90 87 82 83 83 80 77 82 82 81 82 84 83 83 81 79 78 74 72 69 71 69 70 72 74 75 75 71
63 66 68 70 79 77 75 74 82 87 86 84 85 87 88 89 90 94 94 91 90 86 82 81 82 81 79 81 81 83 83 83 84 83 82 80 80 78 74 70 72 67 68 70 72 73 73 73 70
71 70 69 74 80 76 73 74 80 85 84 82 84 86 87 87 93 94 88 84 82 81 79 79 79 77 80 80 81 81 80 82 83 83 81 80 79 76 71 70 66 66 66 66 70 70 68 67 69
68 66 68 74 78 75 73 72 79 82 83 83 84 85 87 88 90 91 84 80 79 78 78 77 77 76 79 82 82 83 82 84 84 84 80 79 79 74 71 69 69 68 67 70 70 67 66 67 68
67 64 66 67 73 75 70 67 71 79 83 85 86 87 87 88 88 89 80 78 79 77 77 77 77 77 79 80 80 79 80 80 80 80 80 78 77 75 71 71 69 71 73 73 68 68 67 65 68
62 71 68 66 64 58 71 57 68 75 77 81 83 85 87 90 90 86 80 78 78 78 79 78 77 77 78 78 79 77 80 79 82 80 82 79 77 75 74 71 71 74 71 68 69 72 71 68 66
66 73 68 67 63 62 64 60 66 74 71 76 81 85 88 90 88 83 81 79 79 79 79 78 77 77 77 78 79 79 77 80 80 80 75 75 75 73 75 75 75 73 69 70 72 72 70 69 68
74 70 67 68 64 53 61 61 62 68 72 77 83 86 89 85 82 81 80 79 79 81 80 78 77 76 77 78 77 76 75 76 78 77 76 73 69 70 75 76 73 72 72 73 73 74 72 70 70
70 63 54 51 52 51 65 61 64 73 78 79 82 85 84 82 80 78 78 79 79 79 79 79 77 76 77 77 77 77 75 74 73 74 74 69 68 70 73 74 74 73 74 74 75 73 73 71 69
65 64 59 46 50 57 66 57 66 77 81 83 85 86 84 82 81 79 80 79 80 79 79 79 78 77 77 78 77 77 76 80 79 76 76 77 70 73 75 74 74 75 76 76 75 75 73 73 70
65 61 72 62 62 59 64 67 73 77 78 81 83 84 83 80 79 79 80 80 80 79 78 79 78 78 78 78 77 76 77 76 77 75 74 76 73 77 74 75 74 75 75 75 73 71 73 73 71
70 73 60 63 49 48 61 61 65 72 75 80 81 83 82 79 79 80 80 79 80 80 79 79 80 78 79 79 78 78 77 78 77 74 74 74 74 76 75 75 75 75 75 75 73 73 73 72 66
67 64 66 67 64 54 53 61 72 74 80 80 84 85 80 78 80 80 81 81 81 81 81 79 79 79 78 79 79 77 77 77 77 74 73 75 75 76 76 76 76 73 74 75 73 72 73 70 71
72 67 66 59 55 62 62 61 78 79 82 83 83 81 80 81 81 82 82 81 81 80 80 79 79 80 80 80 79 77 77 77 75 73 75 75 76 77 77 77 75 74 75 74 70 71 73 69 67

GFSSGP_sfc_temp_027.txt.gz
Temp
80 90 97 95 81 84 81 84 93 88 89 96 97 94 93 96 90 83 104 106 106 103 92 84 79 79 79 79 78 78 77 77 78 78 78 78 78 78 78 77 77 77 78 78 78 78 78 78 78
97 96 96 91 79 78 82 91 86 92 95 97 98 97 94 90 102 102 103 105 106 103 92 89 79 79 79 78 78 77 77 77 77 78 78 78 77 77 77 77 77 77 78 78 78 78 78 78 78
91 98 89 85 81 79 79 83 90 95 96 96 94 98 96 92 100 103 106 105 106 101 97 91 78 78 79 78 78 77 77 77 77 78 78 78 78 77 77 77 77 78 78 78 79 79 79 79 78
95 94 91 80 79 88 88 92 94 92 97 98 98 92 99 103 101 105 106 106 106 104 101 88 78 78 78 78 78 77 77 77 77 78 78 78 78 78 77 77 77 78 78 78 79 79 79 79 78
96 93 81 80 81 89 93 96 95 91 95 95 97 92 94 101 104 104 104 105 104 105 103 96 78 78 78 79 78 78 77 77 77 78 78 78 78 77 77 77 77 77 77 77 77 78 77 77 78
86 90 77 77 81 90 93 97 95 95 96 96 93 93 96 105 104 104 105 104 106 104 102 99 80 78 78 78 78 77 77 77 77 77 77 78 77 77 77 77 77 77 77 77 77 77 77 76 76
83 83 77 81 82 86 90 98 94 94 94 95 98 88 97 102 103 104 104 105 104 105 102 100 90 82 78 78 77 77 77 77 77 77 77 77 77 77 77 77 77 77 76 76 76 76 76 76 76
88 85 79 82 80 82 94 94 98 95 94 100 98 88 91 100 103 105 107 107 106 105 105 100 96 91 86 85 77 77 77 77 76 76 76 76 76 77 76 76 76 76 76 75 75 74 74 75 75
93 78 76 80 81 86 96 91 99 98 95 96 98 97 101 104 105 104 104 106 106 106 103 102 100 96 90 90 86 78 77 77 76 77 76 77 82 84 83 80 78 75 75 74 74 74 74 74 74
84 77 79 89 90 88 94 93 94 91 91 91 94 101 103 103 102 100 100 101 103 104 104 103 98 95 94 95 90 84 85 85 84 84 84 83 84 85 85 81 76 75 74 74 74 74 74 75 81
85 77 86 89 93 93 92 93 96 91 87 93 92 96 100 100 99 99 101 102 103 105 105 103 96 94 94 94 94 89 89 87 87 85 85 85 86 86 86 85 81 78 76 78 78 78 78 80 81
80 86 87 90 92 92 90 94 91 92 92 97 97 98 98 97 97 99 100 102 103 104 103 103 99 91 90 95 94 92 91 90 89 88 85 83 83 82 81 84 85 82 83 81 80 81 79 80 82
83 86 89 91 91 91 92 88 89 90 95 99 98 97 95 96 97 100 101 102 102 101 102 103 99 90 87 86 93 91 90 91 90 88 86 84 84 82 83 83 81 79 83 83 80 76 75 74 76
87 88 88 90 90 90 86 87 89 90 95 95 95 94 96 97 98 99 99 99 98 99 99 100 98 90 88 86 87 88 89 90 89 88 87 83 83 82 83 81 78 79 79 80 78 72 74 75 73
87 80 84 86 88 87 90 81 83 92 94 92 93 94 95 97 99 98 98 97 97 98 97 96 96 91 86 85 86 87 88 83 88 87 85 85 82 81 79 82 79 75 73 76 75 76 72 74 79
79 79 71 81 85 87 85 73 85 92 92 90 93 94 95 95 97 98 99 98 98 97 95 95 97 92 85 84 86 87 88 86 88 87 86 82 81 80 79 79 79 78 75 73 73 71 72 70 76
74 67 70 75 85 85 83 76 85 91 90 88 90 93 93 94 95 96 98 98 97 96 94 93 91 90 85 84 85 85 85 86 87 87 86 84 82 81 77 76 76 74 72 71 69 69 73 68 73
65 67 70 71 81 83 80 79 85 89 89 87 89 91 91 91 93 96 97 99 97 94 92 90 88 86 84 85 83 85 85 85 87 86 86 84 83 80 79 77 73 72 72 66 66 68 72 72 71
74 72 71 76 83 79 77 78 84 87 87 87 88 90 90 89 95 97 98 94 89 88 86 83 82 83 83 82 82 83 83 84 85 86 85 83 83 80 77 76 72 72 71 70 68 65 64 69 71
71 69 70 76 82 78 77 77 82 85 85 86 87 88 89 90 92 95 96 88 85 84 82 81 82 81 81 83 83 86 85 86 86 87 84 83 82 78 77 75 71 71 69 70 71 69 68 68 67
70 68 68 70 77 80 76 73 76 83 85 86 87 88 90 90 90 92 95 86 84 82 81 80 80 78 81 83 84 83 84 84 83 83 82 81 78 78 74 75 72 72 71 71 71 71 68 65 69
64 75 74 71 69 62 76 61 72 78 80 83 85 87 89 91 92 94 93 84 82 82 82 81 79 78 82 82 81 79 81 81 84 84 85 79 79 78 76 74 74 72 74 73 72 71 68 68 65
70 77 74 73 68 67 68 64 69 77 75 79 84 87 89 91 92 94 90 85 84 83 81 80 79 79 80 80 81 80 79 83 83 83 80 77 77 76 76 74 74 71 72 73 71 70 70 68 68
77 74 74 73 69 57 65 65 66 71 76 80 85 87 89 92 94 92 89 85 83 83 82 80 78 78 79 80 80 79 78 79 80 79 77 72 72 73 75 77 73 74 72 72 73 70 73 70 70
74 67 57 54 55 54 69 65 68 77 82 83 84 86 90 93 89 87 83 83 81 81 80 80 79 77 79 79 79 79 78 77 76 76 76 72 71 72 72 74 74 73 74 74 74 72 73 70 69
68 67 59 47 52 58 70 60 69 83 86 87 88 89 90 87 87 84 83 83 83 81 81 81 79 78 79 79 79 79 79 78 75 76 78 75 75 72 76 76 75 76 76 76 76 74 72 73 72
67 64 73 64 69 64 70 73 79 82 83 84 86 86 85 86 83 83 85 83 83 81 81 80 80 79 80 80 79 79 79 78 78 76 76 74 75 75 77 76 74 75 76 76 76 73 74 71 68
70 76 61 66 52 53 64 67 68 76 80 83 83 85 85 85 84 85 84 83 83 82 81 81 81 80 81 81 80 79 78 77 76 76 75 73 76 79 77 75 74 75 76 76 74 73 74 70 64
66 67 68 68 67 58 56 64 80 78 81 82 85 86 86 84 85 85 85 84 84 83 83 81 82 81 80 81 81 76 77 79 74 75 75 75 76 78 76 77 75 75 75 75 72 70 67 70 65
72 69 68 64 58 67 66 64 83 82 85 86 87 87 87 86 86 86 85 84 84 83 82 81 81 82 82 82 81 77 79 79 74 74 73 73 73 79 78 77 78 78 78 74 72 74 74 72 70

GFSSGP_sfc_temp_030.txt.gz
Temp
78 85 90 90 74 77 73 80 92 88 89 97 97 94 91 94 88 78 99 103 100 89 82 81 79 79 79 78 78 78 77 77 77 78 78 78 78 78 78 78 78 78 78 78 78 78 78 78 78
87 91 89 85 71 69 75 88 87 90 91 97 97 96 93 89 99 98 99 103 101 88 82 82 78 78 79 78 78 77 77 77 77 77 78 78 78 78 78 78 77 78 78 78 78 78 78 78 78
83 89 82 78 74 70 76 87 87 89 89 96 94 99 95 91 99 99 102 103 100 90 85 82 78 78 78 78 78 77 77 77 77 78 78 78 78 77 77 77 77 77 78 78 79 79 79 79 79
85 85 83 70 69 81 83 88 91 83 92 97 96 91 99 102 101 103 105 105 101 96 91 83 78 78 78 78 78 77 77 77 77 78 78 78 78 77 77 77 77 78 78 78 78 78 78 78 78
89 86 74 74 77 84 90 94 93 90 92 95 97 90 90 99 103 105 103 104 101 99 95 84 78 78 78 78 78 77 77 77 77 77 78 78 78 77 77 77 77 77 78 78 78 77 77 77 76
78 83 69 70 77 87 92 97 95 94 94 93 93 92 92 102 101 103 104 101 104 99 94 84 79 78 78 78 78 77 77 77 77 77 77 77 77 77 77 77 77 77 77 77 77 77 76 76 76
76 76 72 75 78 83 90 97 92 92 93 93 97 88 95 97 101 102 103 102 101 102 96 84 81 79 78 77 77 77 77 76 76 76 77 77 77 77 77 77 77 77 77 76 76 76 75 75 75
83 79 72 76 76 78 90 94 96 94 92 100 98 86 88 96 102 103 104 105 102 102 101 86 82 83 80 79 77 77 77 76 76 76 76 76 76 76 76 76 76 77 76 76 75 75 75 74 74
88 71 69 73 77 81 91 89 97 99 94 97 97 96 99 103 105 103 101 102 104 103 98 93 88 84 82 82 80 77 77 77 76 76 76 75 76 77 78 77 77 77 76 76 75 75 74 74 74
78 71 73 83 85 85 90 90 92 90 90 91 93 99 102 103 101 98 97 97 99 100 101 98 92 86 84 88 82 77 78 78 76 77 76 75 77 77 81 78 78 76 76 75 75 74 74 74 72
80 72 80 84 88 90 88 89 93 88 86 89 88 94 99 99 97 96 98 99 99 100 99 97 87 85 86 87 85 80 80 78 78 77 76 77 78 77 78 77 76 73 74 74 75 73 72 73 73
74 81 83 85 88 88 86 90 87 89 90 96 97 98 98 96 95 96 96 97 99 98 95 95 89 84 84 87 87 81 82 80 79 79 78 77 78 76 75 75 76 73 74 72 70 72 71 71 74
78 80 84 87 88 88 90 87 87 88 94 98 98 97 95 95 95 95 96 97 96 93 94 93 90 84 82 81 85 83 82 82 81 81 79 79 76 74 76 75 76 76 74 74 73 73 72 71 73
82 82 83 87 87 89 86 87 88 90 94 94 94 94 96 96 96 94 94 92 92 92 91 92 90 82 83 82 80 80 81 83 82 80 79 77 76 74 76 75 75 74 73 73 72 71 70 69 70
82 77 82 84 86 85 88 80 82 90 93 91 92 93 95 95 97 94 94 90 92 92 89 88 88 82 81 81 80 82 82 82 80 79 79 77 76 75 76 75 74 72 71 72 70 69 69 68 70
75 76 69 80 83 85 83 71 84 91 90 88 91 92 93 94 96 96 94 91 92 90 88 88 93 83 81 80 81 81 81 80 80 78 78 78 77 77 75 74 73 73 71 69 68 68 68 67 67
71 64 67 72 83 82 81 73 84 90 88 86 88 89 91 92 94 92 94 92 90 88 88 88 87 83 81 80 81 81 81 79 78 78 78 77 77 77 74 73 73 72 70 68 67 67 66 65 65
61 63 67 68 78 81 77 77 83 88 88 86 88 89 89 90 91 92 92 92 91 90 88 88 85 82 80 80 79 79 79 78 78 78 78 78 77 78 74 73 72 71 68 67 66 65 66 65 65
70 68 67 74 81 77 75 76 80 86 87 86 86 87 86 88 93 93 92 90 87 86 86 84 81 80 79 79 78 75 76 76 77 78 79 79 79 77 74 72 71 69 67 68 67 65 64 62 64
67 66 67 74 79 77 76 75 81 84 85 86 86 86 86 87 89 91 90 89 83 81 81 80 79 79 78 78 77 78 77 78 78 78 78 78 78 76 75 72 70 69 67 66 66 65 63 63 64
66 65 66 67 74 77 74 70 75 83 85 87 88 88 88 86 86 87 89 83 81 79 78 78 78 77 78 77 77 77 77 78 76 77 76 77 78 76 75 72 70 68 67 65 66 66 65 62 63
61 72 71 69 66 60 74 58 70 77 79 83 85 86 86 87 88 88 88 80 79 79 79 78 77 76 78 77 77 75 73 73 75 75 74 75 76 74 73 71 70 68 68 67 67 66 65 64 61
65 73 70 70 66 65 66 61 67 76 74 79 83 86 87 88 89 89 89 81 82 79 78 77 76 75 78 78 76 75 74 76 77 76 73 74 73 75 74 72 71 69 67 67 67 67 65 64 63
74 69 69 69 67 56 64 63 63 69 74 79 83 86 88 89 90 90 84 82 80 80 78 76 74 75 76 77 76 75 74 74 74 74 71 69 70 70 72 73 70 69 69 68 68 67 67 65 64
68 63 52 51 53 51 67 63 65 74 80 82 82 85 88 89 90 83 80 80 78 77 76 76 75 74 75 77 76 76 75 75 75 74 72 72 69 70 70 71 69 69 69 69 69 67 67 66 64
64 62 55 43 48 55 67 58 66 79 84 86 87 87 88 88 86 83 81 79 79 77 76 76 75 74 76 76 75 76 75 74 74 73 71 70 70 69 70 70 70 71 72 70 69 67 66 67 65
62 58 68 60 63 58 64 69 75 80 82 84 85 85 85 82 82 81 81 79 78 77 76 76 75 75 76 76 75 75 75 74 72 74 74 72 72 71 73 71 71 72 72 71 70 66 67 66 65
65 71 57 61 47 47 59 62 67 74 77 82 82 82 81 81 81 81 80 79 79 78 77 77 77 76 77 76 76 76 73 73 74 74 71 73 72 71 71 72 71 71 71 71 69 67 68 65 64
61 61 64 65 62 53 52 61 79 75 81 81 81 84 81 81 81 81 81 81 80 80 79 77 77 77 76 76 76 73 74 72 73 71 72 73 74 73 72 71 72 71 70 69 67 67 66 64 64
67 63 63 57 54 62 61 62 82 82 84 85 85 85 83 82 82 82 82 81 80 79 79 78 77 78 78 78 75 74 72 70 70 71 72 73 73 71 73 72 73 72 70 70 70 68 69 67 65

GFSSGP_sfc_temp_033.txt.gz
Temp
72 75 75 75 61 61 58 66 77 81 81 84 89 85 79 81 79 66 83 86 82 76 76 78 78 79 79 78 78 77 77 77 77 78 78 77 77 78 77 77 77 77 77 78 78 78 78 78 78
78 82 76 70 58 53 61 75 73 77 83 87 89 84 83 80 89 86 84 85 82 77 75 76 78 78 78 78 77 77 77 77 77 77 78 77 77 77 77 77 77 77 77 78 78 78 78 78 78
79 83 67 63 60 57 59 74 77 83 88 87 86 93 87 82 89 88 89 85 81 77 76 76 78 78 78 78 77 77 77 77 77 77 78 78 77 77 77 77 77 77 78 78 78 78 78 78 78
77 73 71 60 59 68 72 78 84 78 88 89 89 83 89 90 91 91 89 85 81 78 78 78 78 78 78 78 77 77 77 77 77 77 77 77 77 77 77 77 77 77 78 78 78 78 78 78 78
75 70 58 59 64 73 80 83 83 82 85 86 91 80 81 89 93 94 90 88 82 79 79 78 78 78 78 78 78 77 77 77 77 77 77 77 77 77 77 77 77 77 77 78 78 77 77 77 76
66 68 55 55 66 76 82 86 85 85 86 86 87 86 80 90 91 91 93 89 87 82 80 77 78 77 77 78 77 77 76 76 77 77 77 77 77 77 77 77 77 77 77 77 77 77 76 76 75
62 60 57 61 66 73 81 88 84 82 84 85 88 80 79 86 90 91 91 91 88 86 81 77 77 77 77 77 77 76 76 76 76 76 76 76 76 76 76 76 77 77 76 77 77 76 75 75 75
73 62 57 61 64 67 82 86 83 86 86 95 93 80 76 84 91 91 89 87 88 86 81 77 76 77 75 75 77 76 76 76 76 76 76 76 76 76 76 75 75 77 76 76 76 76 75 75 74
80 58 56 62 66 71 83 81 91 93 89 89 90 88 89 92 90 84 83 85 83 86 80 78 76 75 75 75 76 76 77 76 76 76 76 74 71 71 73 75 75 76 76 76 76 75 75 74 74
70 59 62 73 75 75 81 83 85 85 84 84 86 91 93 93 87 84 81 80 80 82 79 79 77 75 75 78 75 73 74 74 73 72 71 70 69 68 74 74 76 76 76 76 75 75 75 74 67
71 62 71 74 78 81 80 81 87 82 79 82 82 87 93 91 87 81 81 82 83 86 81 80 79 77 76 78 75 73 73 72 71 70 69 69 71 70 71 68 71 71 75 71 72 71 70 68 67
65 72 74 76 80 79 78 84 81 82 80 87 89 90 89 87 82 84 83 84 84 84 83 82 81 78 77 79 76 73 73 72 71 71 69 69 70 69 68 67 67 66 67 66 65 66 68 66 69
68 72 76 79 80 80 82 80 80 81 88 90 91 91 84 84 83 83 85 84 84 81 82 81 77 79 79 78 77 74 74 73 73 72 72 72 70 69 68 68 66 65 66 66 65 66 68 65 67
72 73 75 77 77 79 78 79 81 83 88 87 88 85 84 84 84 82 81 82 80 80 82 82 77 78 80 79 77 76 76 75 74 74 73 73 72 69 68 67 67 66 67 66 66 66 65 65 65
71 66 71 74 77 75 80 73 76 84 85 84 84 86 87 84 85 83 82 80 80 81 83 80 77 73 77 79 74 77 77 76 76 75 74 74 71 69 68 67 66 66 66 66 65 65 65 64 65
64 65 57 69 74 77 76 64 76 82 81 79 84 86 84 82 82 85 83 79 80 79 80 78 81 74 73 75 72 74 75 72 73 71 72 73 70 70 68 66 66 66 65 64 63 63 62 62 62
59 52 56 62 74 74 72 66 77 82 81 80 82 84 84 84 81 80 82 83 82 80 78 77 73 72 71 71 71 72 72 71 70 70 68 71 70 71 68 66 66 66 64 64 63 62 62 61 61
50 53 58 58 68 71 69 68 76 80 80 79 81 82 82 83 79 82 81 82 80 77 75 75 72 71 71 71 71 70 70 70 70 70 66 69 70 71 68 66 65 65 63 62 62 62 61 61 60
61 59 58 63 70 68 67 68 73 77 74 75 74 74 75 75 80 80 81 79 74 74 74 73 70 70 73 73 70 67 66 68 71 69 71 70 70 70 68 68 65 64 63 62 62 61 60 59 60
58 55 55 64 70 68 67 66 73 76 76 78 79 78 74 73 77 80 77 76 73 71 70 70 69 70 69 71 68 69 68 69 69 69 70 70 71 69 67 65 64 62 62 62 62 62 58 58 59
56 54 56 56 64 68 65 60 65 72 75 78 76 75 75 75 74 77 79 70 69 69 68 69 69 69 69 70 69 68 67 66 66 65 66 68 70 69 67 66 63 63 63 60 60 60 59 57 58
51 62 62 61 57 50 62 48 61 68 70 74 78 73 75 75 75 75 75 68 68 68 69 69 69 69 70 70 68 66 64 63 65 66 66 67 70 71 67 66 64 63 62 61 61 62 60 59 58
55 65 62 61 56 54 57 48 59 64 63 66 69 75 73 73 75 75 74 71 69 69 67 67 68 68 69 68 68 66 65 65 66 65 65 65 65 67 68 66 64 63 62 62 62 61 60 59 58
65 61 59 58 53 44 54 53 55 60 65 66 72 73 75 75 75 72 72 71 69 69 68 68 66 67 68 68 67 67 65 64 64 62 62 62 63 63 66 67 64 63 62 62 61 61 61 61 60
58 51 39 38 39 40 57 52 58 62 68 71 72 73 74 74 70 70 69 69 68 67 67 66 66 65 67 67 67 67 65 65 64 63 62 62 62 62 63 64 63 62 63 63 63 62 62 61 61
51 50 42 31 36 43 57 48 53 69 75 76 79 75 71 69 70 70 69 69 68 68 68 67 66 65 66 67 66 66 66 64 64 64 63 62 62 62 64 63 63 64 65 64 63 62 61 62 61
51 46 56 47 50 43 50 56 66 71 72 73 73 72 68 69 70 69 69 69 69 68 67 66 66 65 66 66 66 65 66 65 65 65 64 63 63 64 64 64 64 64 65 64 63 61 62 62 61
53 58 43 48 35 34 47 51 53 64 68 72 69 66 68 69 70 69 69 69 70 69 67 66 66 66 66 66 66 68 66 66 65 64 64 64 64 64 64 64 65 65 65 65 64 62 62 61 61
48 49 50 47 48 40 38 47 65 66 71 68 67 70 69 69 69 70 70 71 70 69 69 66 66 66 66 67 66 66 66 66 65 64 64 64 64 64 65 66 65 65 65 65 63 61 63 63 62
53 48 52 42 41 50 46 49 69 72 68 69 71 71 71 72 71 71 71 71 70 69 67 66 66 66 67 67 66 66 68 65 64 64 64 64 68 65 66 66 67 66 64 63 63 63 63 62 62

GFSSGP_sfc_temp_036.txt.gz
Temp
72 74 73 73 60 56 53 62 73 74 76 80 84 82 78 78 75 65 78 82 78 76 75 77 78 78 78 78 78 77 77 77 77 77 77 77 77 77 77 77 77 77 77 77 77 77 77 77 77
75 79 73 67 56 49 52 67 72 75 79 84 85 84 80 76 83 80 79 81 79 75 74 75 78 78 78 78 77 77 77 77 77 77 77 77 77 77 77 77 77 77 77 77 77 77 78 77 77
77 81 66 61 55 52 55 71 73 78 83 83 83 88 83 79 84 83 82 80 76 74 74 74 78 78 78 78 77 77 77 77 77 77 77 77 77 77 77 77 77 77 77 78 78 78 78 78 78
75 71 67 57 56 62 67 74 77 79 82 84 84 82 84 86 86 88 83 80 76 74 75 76 77 78 78 78 77 77 77 77 77 77 77 77 77 77 76 76 77 77 77 78 78 78 78 78 78
71 66 56 54 59 67 74 79 78 77 76 81 83 79 80 86 88 84 81 81 76 74 75 76 77 77 78 78 77 77 77 76 77 77 77 77 77 76 76 76 76 77 77 77 77 77 76 76 76
64 62 50 52 61 70 74 80 78 80 80 80 80 82 79 85 85 84 83 80 80 76 75 75 77 77 77 77 77 77 76 76 76 77 77 77 76 76 76 76 77 77 77 77 77 77 76 76 75
60 54 50 56 62 67 74 81 78 80 80 82 85 77 80 84 87 86 84 82 80 79 76 75 76 76 78 77 77 76 76 76 76 76 76 76 76 76 76 76 76 76 76 76 76 76 76 75 75
65 59 51 55 60 63 76 80 81 82 83 89 90 75 72 82 87 85 85 82 79 78 78 75 75 75 75 75 77 76 76 76 76 76 76 76 76 76 76 75 75 76 76 76 76 76 75 75 74
73 52 50 56 62 67 76 73 84 89 85 85 87 85 87 87 86 82 79 78 75 79 76 75 74 75 75 74 76 76 77 76 76 76 76 74 71 71 72 74 75 76 76 76 76 75 75 75 74
63 56 57 66 70 68 74 75 79 80 80 82 85 86 89 91 86 82 80 80 78 79 76 74 74 74 74 76 74 73 73 73 73 72 71 71 68 67 72 73 75 76 76 76 75 75 75 74 67
63 60 67 70 72 75 74 75 80 78 74 79 79 83 87 86 82 82 83 82 82 81 79 76 74 73 73 75 73 73 72 71 71 70 69 69 69 68 69 66 69 70 74 71 73 71 69 67 65
61 69 70 71 75 75 72 78 75 77 78 83 84 85 86 85 83 82 80 81 80 82 78 77 76 74 72 74 73 72 71 71 70 70 69 68 67 66 65 66 66 66 67 66 65 64 65 65 66
63 66 70 72 73 73 76 73 74 76 82 86 85 85 82 81 80 80 80 81 82 80 79 77 76 74 73 73 73 71 71 71 71 69 68 69 67 66 66 67 65 65 64 64 63 63 64 64 67
63 65 67 71 71 73 72 73 76 78 84 84 85 81 83 81 81 80 78 77 78 80 79 73 75 76 75 74 73 72 71 71 71 70 69 69 69 68 67 65 64 63 64 64 67 67 63 64 65
65 58 65 67 68 69 74 68 70 80 83 81 82 82 81 79 80 79 82 77 78 79 78 73 73 75 74 75 74 73 72 72 71 70 70 70 70 69 68 66 64 64 63 64 65 64 62 62 63
57 56 52 64 68 70 70 59 73 80 78 75 77 82 84 84 82 83 79 76 76 74 76 76 78 72 73 74 73 74 73 72 72 71 70 71 71 70 66 65 64 64 63 63 62 62 61 61 61
51 48 51 57 68 68 67 62 72 76 77 73 74 78 80 83 79 76 80 79 76 74 76 74 73 70 71 69 71 73 71 72 68 69 69 70 70 69 66 64 64 64 63 62 62 61 61 60 59
45 48 53 53 63 67 64 64 71 75 76 75 77 79 80 81 80 80 80 78 76 73 73 71 71 68 67 69 67 67 67 66 68 68 67 69 69 69 65 65 64 64 62 61 61 60 60 60 59
54 52 52 57 64 63 62 63 67 71 71 69 73 75 77 78 81 83 81 75 74 71 71 69 68 67 69 70 67 66 65 65 65 65 69 68 67 67 65 64 63 63 62 61 61 60 60 60 59
52 49 49 55 62 61 60 61 67 71 72 73 74 75 72 70 73 74 74 71 71 71 69 67 67 68 68 68 66 66 66 65 66 67 68 69 68 67 66 64 63 63 61 61 60 60 58 58 58
51 48 50 50 58 62 58 55 59 67 69 71 71 72 72 71 74 72 74 70 67 68 67 67 67 67 67 67 68 65 66 65 64 63 63 65 68 67 66 64 63 62 61 60 59 59 58 56 56
45 57 56 54 51 44 58 43 55 64 66 70 71 69 69 74 70 72 71 65 66 65 66 66 67 67 68 67 67 68 63 62 62 63 63 64 67 66 66 64 63 62 61 60 59 60 58 57 56
50 59 55 55 50 46 51 42 54 59 60 65 69 69 75 77 73 69 71 68 64 65 65 66 66 66 66 67 68 65 62 62 62 62 62 63 64 65 66 64 63 61 60 60 60 60 59 58 57
59 54 53 53 45 38 48 45 50 55 60 62 66 68 71 72 70 66 65 66 64 65 66 66 65 64 66 66 65 64 64 61 60 61 61 61 61 62 64 64 62 61 60 60 60 60 59 58 58
50 40 32 30 32 36 51 46 52 56 61 65 67 70 72 71 65 62 63 64 64 64 65 65 65 63 64 64 64 64 62 62 61 60 60 60 60 61 62 62 61 60 61 61 61 60 60 59 59
44 42 33 27 28 37 51 42 50 64 71 73 74 70 71 69 63 62 64 64 64 64 64 64 64 62 64 64 63 63 63 62 61 61 60 61 61 61 62 62 61 62 62 62 61 60 60 60 59
44 40 47 38 44 36 43 52 61 67 69 71 70 67 64 60 61 62 63 63 64 64 63 64 64 62 64 63 63 63 62 62 61 62 62 61 61 62 62 62 62 62 63 62 61 60 60 60 59
48 51 37 35 29 30 39 43 47 57 62 63 64 63 60 60 62 62 63 64 64 64 64 63 63 63 63 63 63 63 63 63 62 62 62 62 61 62 62 62 62 62 63 63 61 61 62 60 59
42 40 42 40 38 35 31 41 55 60 61 63 66 62 62 62 63 63 64 65 65 65 65 62 63 63 62 63 63 62 62 63 62 62 62 62 62 62 62 63 63 63 63 62 61 60 61 60 60
49 43 41 33 35 39 42 44 64 62 67 67 65 64 64 65 64 64 65 65 64 65 64 63 62 63 64 64 64 63 62 62 62 62 62 62 62 62 63 64 64 64 63 61 62 61 63 62 61

GFSSGP_sfc_temp_042.txt.gz
Temp
71 71 69 69 57 53 47 56 62 65 66 73 77 74 74 72 72 64 74 76 74 73 75 77 78 78 78 78 78 77 77 77 77 78 78 77 77 78 78 77 77 78 78 78 78 77 77 77 77
71 72 69 63 51 46 51 61 63 68 73 78 75 74 74 73 79 78 76 75 75 73 74 75 78 78 78 78 78 77 77 77 77 77 77 77 77 77 77 77 77 78 78 78 78 77 77 77 77
74 75 64 57 50 48 52 64 69 73 78 77 74 78 77 76 79 78 76 74 73 72 74 74 78 78 78 78 77 77 77 77 77 77 78 78 77 77 77 77 77 78 78 78 78 77 77 77 77
72 68 63 53 51 57 60 63 67 71 77 78 78 74 78 82 81 81 76 75 73 72 74 76 78 78 78 78 77 77 77 77 77 78 78 78 77 77 76 77 77 77 78 78 78 77 77 77 77
67 62 54 50 54 61 64 68 68 70 72 76 78 73 73 81 81 77 76 76 74 71 72 74 77 77 78 78 77 77 77 77 77 77 77 77 77 76 76 77 77 77 77 77 77 77 77 76 76
59 58 48 50 57 65 66 69 68 70 73 75 75 74 74 81 80 77 76 74 74 72 71 72 77 77 77 77 77 77 76 76 76 77 77 77 76 76 76 76 77 77 77 77 77 77 76 76 75
57 52 48 52 56 60 66 69 68 70 71 74 77 72 75 78 78 76 75 73 73 73 71 71 75 76 78 77 77 76 76 76 76 76 76 76 76 76 76 76 76 76 76 76 76 76 76 75 75
61 58 51 55 56 59 69 69 70 72 74 82 82 71 70 78 78 75 74 72 71 71 71 69 70 74 74 74 77 76 76 76 76 76 76 76 76 76 76 75 75 76 76 76 76 76 76 75 74
63 48 45 53 58 63 68 64 74 78 75 77 79 77 82 80 77 74 71 71 70 72 69 69 69 71 72 72 74 76 77 76 76 76 76 74 72 72 74 74 75 76 76 76 76 76 75 75 74
58 48 52 63 67 64 68 65 69 71 70 71 76 81 83 83 78 75 73 74 70 71 70 71 71 71 71 74 70 73 72 73 73 73 72 72 69 69 71 73 75 76 76 76 76 75 75 75 71
58 55 63 65 69 70 70 68 70 68 65 71 70 74 78 78 76 75 74 75 77 80 75 72 71 70 70 72 70 71 71 71 70 70 69 70 69 69 71 68 71 70 74 71 73 73 72 70 69
53 62 66 67 70 68 67 71 68 69 70 76 77 78 75 76 75 76 74 75 74 75 76 74 73 71 69 72 71 72 71 70 70 70 68 68 68 66 67 67 67 67 68 69 69 69 69 69 68
58 58 63 68 69 69 70 67 66 68 74 78 79 78 75 75 74 74 75 75 75 74 75 73 72 72 71 69 71 70 70 71 70 69 68 69 68 66 65 66 66 66 66 67 67 67 67 67 67
59 61 62 63 65 66 65 65 65 68 74 74 76 76 75 74 75 74 73 74 72 73 73 75 71 72 72 69 70 70 71 70 68 68 68 69 68 65 65 65 65 64 65 66 67 67 66 66 66
56 53 56 58 59 60 68 62 63 72 74 72 74 76 78 75 75 74 76 73 72 72 72 70 71 70 70 70 71 71 70 70 69 69 68 68 67 65 65 64 64 63 65 66 65 65 65 64 65
52 50 48 60 59 62 65 55 68 73 72 71 74 75 75 76 73 73 73 72 71 70 71 71 72 68 69 70 71 71 70 69 69 68 67 68 67 66 65 64 63 65 64 64 64 64 64 64 63
45 46 45 52 61 61 62 57 65 70 70 67 68 68 69 71 70 70 72 72 71 70 69 70 65 67 68 69 69 68 67 67 67 67 67 67 67 67 65 64 64 64 63 63 63 63 64 63 62
40 41 46 46 56 60 56 58 64 68 69 68 68 70 70 70 71 73 72 73 72 70 67 66 65 65 65 65 64 64 65 65 66 66 66 67 67 67 65 65 65 64 63 62 62 63 62 63 62
47 44 43 49 56 55 55 56 60 62 63 64 66 69 70 72 76 72 73 71 69 67 65 65 64 61 64 64 63 63 64 65 65 66 67 67 67 67 66 65 65 64 63 63 63 62 62 61 62
45 41 41 48 54 52 50 50 55 58 59 61 65 66 67 67 65 69 70 69 67 66 67 64 62 61 64 64 62 63 63 63 64 65 67 68 68 67 67 66 64 64 62 62 62 62 61 60 61
43 42 42 43 50 54 50 48 53 59 59 64 65 66 66 67 66 69 70 67 67 64 65 64 62 63 63 63 63 61 62 62 62 63 64 66 67 68 68 65 64 63 63 62 62 62 61 58 59
38 49 48 47 42 36 48 36 49 55 57 60 61 63 66 62 65 68 68 66 66 68 64 63 63 63 64 64 63 64 62 62 61 62 63 65 67 67 65 64 64 63 62 61 61 61 61 59 57
43 51 48 46 41 38 41 35 47 51 52 56 62 65 68 63 66 64 65 68 70 65 62 63 63 64 64 64 65 64 61 61 61 62 62 63 64 65 65 65 65 64 62 62 61 60 59 59 58
51 45 43 42 37 29 39 39 42 47 53 57 60 61 64 66 64 64 64 64 63 61 61 63 63 62 63 64 64 64 62 61 62 60 61 61 61 62 64 64 64 63 62 61 61 61 60 59 60
44 34 25 24 24 28 43 38 45 49 54 56 56 59 60 61 61 61 62 62 60 60 62 63 63 61 63 63 63 63 62 63 62 61 60 60 60 61 62 63 62 62 62 62 61 61 60 60 59
38 36 28 24 24 28 43 35 44 55 62 62 61 60 60 59 60 60 61 59 59 61 62 63 62 61 62 63 62 62 62 63 61 61 61 61 61 62 62 63 63 63 63 62 61 61 61 61 60
39 33 42 33 33 29 34 43 51 58 60 61 57 60 58 59 60 59 58 58 62 61 61 62 61 61 62 61 61 61 61 61 61 61 61 61 61 62 62 62 62 62 63 62 62 61 61 61 61
43 46 33 29 26 25 31 35 40 49 51 56 57 56 58 59 58 56 60 61 61 61 61 61 62 61 61 61 62 62 61 62 61 61 61 61 61 63 62 62 62 62 63 63 62 61 62 62 60
41 35 36 35 31 27 27 33 46 49 52 50 53 56 58 60 57 59 61 61 61 61 61 61 61 61 61 62 62 62 61 62 61 61 61 61 61 61 62 62 63 63 63 63 62 62 62 62 60
42 37 36 31 30 34 30 32 52 52 52 53 56 59 60 55 55 61 61 61 60 60 61 61 62 62 62 62 62 61 61 61 60 61 61 61 62 62 63 64 64 64 64 63 62 62 63 61 61

GFSSGP_sfc_temp_045.txt.gz
Temp
77 79 82 81 72 70 65 69 75 75 78 85 86 83 84 86 81 77 88 88 86 86 85 83 79 79 79 79 78 78 78 77 78 78 78 78 78 78 78 78 78 78 78 78 78 78 78 77 77
80 79 82 76 66 62 68 73 72 79 84 87 87 84 83 83 91 92 92 86 88 86 84 85 78 79 79 78 78 77 77 77 78 78 78 78 77 78 78 78 78 79 79 78 78 78 77 77 77
80 81 78 72 65 63 68 73 79 80 85 84 84 87 84 86 92 93 91 86 86 85 86 84 78 78 78 78 78 77 77 77 77 78 78 78 77 77 77 77 78 78 79 79 78 78 77 77 77
81 80 77 65 63 68 72 76 77 78 84 85 86 83 86 92 92 96 89 88 86 87 87 83 78 78 78 78 78 77 77 77 77 78 78 77 77 77 77 77 77 78 78 78 78 77 77 77 77
81 76 67 62 65 70 74 77 78 77 80 84 86 84 85 92 92 90 88 88 89 87 87 86 78 78 78 78 78 77 77 77 77 77 78 77 77 77 77 77 77 78 78 78 78 77 77 77 76
71 71 61 61 65 71 77 80 79 81 83 84 84 83 86 91 91 89 90 88 90 85 83 85 79 77 77 78 78 77 77 77 77 77 77 77 77 77 77 77 77 77 77 77 77 77 77 76 75
70 64 60 62 63 69 75 83 80 82 83 83 87 81 88 92 92 88 88 87 85 85 83 83 84 81 77 77 77 77 76 76 77 77 77 77 77 76 76 76 77 77 77 77 77 77 76 76 75
74 70 65 65 64 67 77 80 83 83 83 90 90 82 84 90 89 89 89 88 86 85 85 82 82 85 83 82 77 77 76 76 76 76 76 76 76 76 76 75 76 77 77 77 77 76 76 75 75
73 65 62 65 64 70 76 76 83 86 83 86 89 88 89 85 87 88 86 87 86 84 83 83 84 83 83 84 82 77 77 77 76 77 76 76 81 81 80 78 77 76 76 76 76 76 75 75 75
69 63 65 71 74 71 77 77 79 79 79 81 84 88 90 91 89 87 86 88 86 87 86 84 81 82 82 83 81 81 82 82 82 81 81 81 81 81 81 80 76 76 76 76 76 76 76 76 83
69 63 70 72 75 75 75 78 81 77 76 82 82 84 88 88 89 88 91 91 92 92 90 86 79 79 81 82 82 82 83 82 81 80 80 80 81 80 80 81 81 80 77 82 80 81 82 82 82
64 70 71 73 74 73 72 78 76 77 78 85 84 84 84 85 87 88 90 93 93 92 89 88 82 78 78 83 81 81 83 82 81 81 78 79 79 77 79 80 81 79 81 79 79 81 80 80 79
64 69 71 74 73 72 73 72 74 76 81 84 84 83 83 84 85 87 88 90 90 87 89 88 84 79 78 76 81 80 80 82 82 81 79 79 79 77 78 78 80 80 78 77 79 79 77 78 79
70 69 70 72 70 71 69 72 75 76 81 80 81 82 84 84 85 87 86 85 86 87 86 87 84 82 80 77 77 78 79 81 81 81 80 77 79 77 77 77 77 76 75 77 78 76 77 75 77
67 62 67 67 69 68 70 65 69 76 78 76 78 80 83 84 86 85 88 85 86 87 85 85 84 83 79 79 79 79 81 80 81 80 78 76 77 75 75 77 76 77 76 75 74 75 76 76 74
61 61 56 67 66 69 68 59 74 81 78 77 79 81 82 84 85 87 87 84 84 83 83 84 86 84 80 79 80 80 81 80 80 80 79 76 75 75 74 76 76 75 76 74 75 77 77 73 73
58 52 55 60 69 67 65 62 73 79 78 77 78 79 80 82 83 81 83 83 82 82 82 82 82 81 80 79 80 79 78 78 80 79 78 75 75 75 75 76 73 73 74 74 74 75 75 71 71
50 51 56 57 65 65 63 63 71 75 74 75 77 78 79 79 80 82 83 83 82 81 80 77 79 77 77 79 77 79 79 79 79 78 77 75 75 75 75 75 72 72 70 73 70 73 74 75 74
55 54 53 59 65 63 61 63 68 72 72 73 74 75 76 77 82 83 82 82 81 79 77 77 78 77 76 77 76 76 75 76 76 77 76 75 76 75 73 76 72 72 70 69 72 74 72 71 66
52 50 50 56 61 59 61 60 65 66 68 71 72 73 75 76 78 79 79 80 80 80 78 79 78 76 75 77 76 78 77 73 72 77 76 76 75 73 74 74 68 67 73 73 72 71 70 70 68
51 49 50 50 56 60 57 54 59 66 69 71 73 74 74 74 75 77 78 80 81 79 79 79 78 76 74 75 75 74 74 73 72 74 74 72 75 74 75 70 69 73 75 74 72 72 70 65 63
45 55 54 52 50 46 58 44 58 64 65 67 69 72 73 74 76 76 78 79 79 81 82 79 77 75 74 74 75 73 77 75 77 75 77 75 75 75 72 70 75 74 76 74 72 68 67 65 65
48 56 53 52 50 49 51 46 54 64 61 65 69 71 73 75 77 77 78 80 81 82 80 78 75 74 74 74 76 76 76 77 76 76 73 74 74 74 73 75 74 74 74 71 72 68 64 66 70
58 53 53 52 49 39 47 47 51 58 62 66 70 72 73 75 76 77 78 79 78 81 78 75 74 73 73 74 74 75 73 73 74 74 74 74 75 74 75 75 74 74 72 72 72 71 69 67 70
53 47 38 35 36 36 51 46 52 61 64 66 68 70 74 75 76 77 77 78 78 77 75 74 74 72 73 74 74 75 74 74 73 74 75 73 73 74 73 74 73 74 72 72 71 70 69 69 69
49 48 41 31 34 40 49 42 52 64 68 69 69 71 73 75 76 75 76 76 77 77 72 74 74 73 74 74 74 74 74 77 77 75 77 76 76 75 73 74 73 73 72 72 71 72 71 70 69
48 42 53 43 44 42 46 51 59 64 65 69 71 71 70 71 72 74 74 74 74 72 68 73 74 73 74 74 74 74 74 74 74 73 74 75 74 74 73 73 72 72 72 71 71 71 69 70 68
52 56 41 44 33 33 43 45 51 57 61 63 64 66 68 71 74 72 72 68 68 69 72 74 74 74 74 74 75 74 74 74 73 73 72 73 73 74 72 72 72 72 72 72 71 71 71 70 70
48 46 47 48 46 39 39 47 59 60 59 59 63 67 69 70 72 69 68 65 68 72 74 73 73 73 73 74 74 73 74 74 73 73 73 73 72 73 72 72 72 72 72 72 70 70 71 70 65
48 45 46 41 39 44 43 45 62 61 62 61 63 67 70 70 72 66 64 64 68 71 73 73 73 74 75 75 74 74 74 74 72 72 72 73 72 73 73 73 73 73 73 72 71 71 72 69 62

GFSSGP_sfc_temp_048.txt.gz
Temp
81 91 95 91 79 80 77 80 89 84 85 92 93 91 90 96 90 86 98 101 105 100 95 86 79 79 79 79 79 78 78 78 78 78 78 78 78 78 78 78 78 79 79 79 79 79 79 78 78
93 89 91 90 75 73 78 87 82 89 91 94 94 93 90 88 102 100 99 97 102 99 93 91 79 79 79 79 78 78 78 78 78 78 78 78 78 78 78 78 78 79 79 79 79 79 78 78 78
91 92 86 82 78 74 79 86 88 90 92 92 90 95 93 91 98 100 100 99 102 97 96 92 79 79 79 79 78 78 77 77 78 78 78 78 78 78 77 78 78 79 79 79 79 78 78 78 78
89 89 88 75 75 82 85 86 89 87 92 93 93 87 95 99 97 105 103 102 102 101 99 88 78 78 79 79 78 78 78 77 78 78 78 78 78 77 77 77 78 79 79 79 79 78 78 78 77
90 87 76 73 76 84 88 90 90 87 89 90 92 88 90 97 102 105 103 103 103 103 101 95 78 78 79 79 78 78 78 77 78 78 78 78 77 77 77 77 78 79 79 79 78 78 77 77 77
78 82 71 70 76 84 89 91 90 89 92 93 90 90 93 101 101 103 105 103 106 102 99 98 80 78 78 78 78 78 77 77 77 77 78 77 77 77 77 77 77 78 78 78 78 78 77 77 76
78 75 70 72 75 79 85 93 88 89 91 92 96 89 95 98 101 102 104 103 102 101 98 97 91 83 78 78 77 77 77 77 77 77 77 77 77 77 77 77 77 77 77 77 78 77 77 77 76
82 80 73 74 70 72 84 87 91 91 90 97 97 89 90 98 100 102 105 104 102 101 101 96 93 93 88 87 78 77 77 77 77 77 77 77 77 77 76 76 76 77 77 77 77 77 77 76 76
84 72 70 74 74 76 84 85 94 96 91 93 96 95 94 95 100 103 103 104 104 103 100 98 97 95 93 93 89 78 77 77 77 77 77 77 85 84 84 80 78 77 77 77 77 77 76 76 76
77 71 73 81 82 77 82 86 89 86 88 90 91 95 97 98 99 100 100 101 101 102 100 99 94 94 94 95 91 86 88 87 85 86 84 84 86 87 87 84 77 76 77 76 76 76 76 77 88
77 69 80 81 83 82 79 84 91 86 84 91 90 94 94 95 96 97 100 102 103 104 104 100 92 90 91 93 93 91 90 89 88 85 85 85 87 87 87 88 85 83 78 85 82 78 83 85 88
72 78 77 80 83 78 77 82 84 88 88 95 93 93 93 93 95 97 98 101 102 101 101 100 97 88 87 92 91 92 92 92 90 89 85 85 86 86 85 87 88 84 87 84 86 86 83 85 86
73 76 79 81 81 80 79 77 81 86 91 94 95 92 91 92 93 96 97 98 99 98 100 100 98 90 85 84 93 92 91 93 92 90 87 86 87 85 86 86 88 88 89 88 87 85 85 84 84
78 77 78 80 79 80 75 76 79 84 90 89 89 90 92 92 93 94 93 94 96 97 98 100 97 93 89 86 86 89 88 92 91 91 90 84 86 85 86 84 86 88 89 90 86 86 85 84 85
75 69 74 77 78 77 79 72 74 84 88 87 87 89 91 92 95 94 95 93 95 97 97 95 95 94 89 88 88 88 91 91 91 91 88 86 83 84 83 85 85 87 87 85 85 84 83 84 83
66 69 62 74 77 77 74 64 79 87 86 83 85 88 89 92 94 96 96 95 94 94 93 95 98 98 93 89 90 91 92 91 90 91 89 84 82 82 81 84 84 86 85 85 84 83 82 83 80
64 58 63 68 78 75 68 66 77 84 84 84 85 87 89 91 93 93 93 93 93 92 91 93 94 94 91 89 89 89 88 88 90 90 89 85 82 82 82 83 85 83 84 84 83 81 81 82 77
57 60 63 64 74 75 70 68 76 82 81 83 84 86 87 89 90 92 92 92 91 91 90 89 90 88 86 87 87 90 90 89 89 89 88 85 83 82 81 84 83 81 81 82 82 79 83 79 76
62 61 62 67 73 71 70 69 73 78 80 81 82 83 84 86 90 91 91 91 90 89 87 88 87 85 85 88 88 88 87 87 88 88 85 83 83 82 79 84 77 79 80 79 79 79 76 75 79
60 56 57 64 68 69 68 67 73 77 78 81 81 82 83 85 87 88 88 88 88 87 87 86 87 86 84 87 86 90 89 90 88 87 83 83 83 80 77 81 80 79 81 78 77 77 79 79 75
55 54 55 57 64 67 65 62 67 76 78 79 80 81 82 82 82 84 86 86 88 87 88 87 86 85 84 84 86 84 86 83 82 83 83 81 80 76 78 81 81 78 81 80 77 77 77 72 74
50 60 59 57 57 51 65 50 64 70 72 75 78 80 81 82 84 86 86 86 87 88 91 90 87 84 85 83 84 81 84 82 85 85 84 76 78 78 81 80 79 78 83 80 79 79 75 74 70
54 61 59 58 55 55 57 54 61 69 67 72 77 79 81 84 84 85 87 88 90 90 90 90 86 85 85 82 83 82 84 87 86 86 77 79 77 79 81 79 80 80 82 80 79 75 74 75 74
61 57 57 57 55 46 54 55 57 64 68 73 78 81 82 84 85 86 87 88 88 90 90 88 85 84 83 81 81 81 82 83 84 82 81 81 78 79 80 82 81 81 81 79 76 74 72 73 77
57 50 41 40 41 42 57 53 57 68 71 75 75 77 81 83 85 85 86 88 88 88 87 86 84 82 81 81 81 82 81 81 80 80 83 81 81 81 78 80 79 81 79 77 76 74 76 74 75
51 50 41 35 40 45 56 48 58 71 75 77 79 78 80 81 83 84 86 86 87 88 87 86 84 82 82 82 82 82 81 85 84 84 84 84 84 83 79 80 80 80 78 78 77 78 78 76 75
48 46 56 46 49 49 55 58 65 71 70 73 76 76 76 78 80 82 84 85 85 86 85 84 84 82 82 82 81 81 83 83 83 81 81 83 82 82 80 80 78 78 78 78 77 79 75 75 74
53 57 44 47 34 38 51 53 55 64 66 72 71 72 75 78 80 81 81 80 81 82 82 84 84 82 82 82 82 82 81 82 81 80 81 80 80 81 79 79 77 77 78 78 76 77 76 73 74
50 50 46 48 47 42 45 53 68 66 69 68 69 72 75 77 80 80 77 73 78 82 84 82 82 82 81 82 82 81 81 81 81 80 80 79 79 79 79 79 78 78 77 77 75 76 76 74 72
51 45 49 41 40 46 48 52 69 69 69 70 70 73 75 78 81 81 70 69 79 82 83 82 81 82 82 82 81 80 81 81 79 79 79 79 79 80 79 79 79 79 79 77 76 76 76 75 72

GFSSGP_sfc_temp_051.txt.gz
Temp
82 94 100 96 80 83 79 85 96 92 92 98 98 96 94 98 93 85 107 111 111 106 92 87 79 79 79 79 79 79 78 78 78 79 79 78 78 79 79 78 79 79 80 80 79 79 79 79 79
94 97 95 90 77 75 81 91 89 93 98 100 98 97 94 92 104 99 102 105 108 104 90 91 79 79 79 79 79 78 78 78 78 78 78 78 78 78 78 78 79 79 79 79 79 79 79 79 79
89 97 87 83 79 75 82 93 94 97 98 96 95 100 97 95 103 105 108 106 106 101 95 92 79 79 79 79 78 78 78 78 78 78 78 78 78 78 78 78 79 79 80 79 79 79 79 78 78
93 92 89 76 76 85 88 94 96 96 96 99 99 91 100 104 103 107 104 105 105 105 102 87 79 78 79 79 78 78 78 78 78 78 78 78 78 78 78 78 78 79 80 80 79 79 78 78 78
90 88 77 76 78 86 94 97 96 92 95 96 98 92 95 103 106 108 101 105 106 107 105 92 78 78 79 79 78 78 78 78 78 78 78 78 78 78 77 78 78 79 79 79 79 78 78 78 78
82 84 69 71 76 86 93 97 96 93 96 97 96 95 97 108 104 107 108 107 110 107 103 94 80 78 78 79 78 78 77 77 78 78 78 78 78 77 77 77 78 78 79 79 79 78 78 77 77
79 80 73 74 75 82 90 98 93 93 94 95 101 92 100 104 108 108 109 110 109 106 104 96 88 83 78 78 78 77 77 77 77 77 77 77 77 77 77 77 77 78 78 78 78 78 77 77 77
85 81 75 78 76 77 88 91 95 94 93 104 103 92 94 104 107 109 111 110 109 108 107 102 92 90 87 86 78 77 77 77 77 77 77 77 77 77 77 76 76 77 78 78 78 78 77 77 76
89 74 72 76 78 81 90 88 95 99 94 96 99 99 99 103 106 106 107 108 108 108 107 105 101 95 92 92 87 78 78 77 77 78 77 77 84 83 83 80 79 77 77 77 77 77 77 76 76
79 74 75 83 86 85 88 89 92 93 92 92 96 99 101 103 103 103 103 103 105 106 107 106 102 99 96 97 93 85 86 85 84 84 84 82 85 86 87 84 78 77 77 77 76 76 76 77 84
80 74 82 85 88 89 84 87 93 90 88 93 93 96 100 99 102 103 105 105 106 108 108 106 98 97 97 98 97 94 90 89 88 85 85 84 86 87 89 88 85 82 78 83 80 81 81 84 84
75 81 82 81 86 88 83 85 85 89 92 99 101 100 100 97 98 101 103 106 106 107 106 106 102 93 93 97 97 97 95 94 92 90 85 84 85 85 87 88 88 83 86 82 85 85 84 83 85
78 80 83 86 85 85 85 82 83 86 94 99 100 99 97 97 97 100 102 103 104 103 105 105 103 94 90 88 95 95 94 96 95 93 89 88 87 85 87 88 89 89 87 87 86 87 86 85 86
81 82 82 84 85 86 82 80 80 85 92 94 96 96 97 97 98 99 99 98 99 100 101 103 101 96 90 87 87 92 93 96 96 95 94 85 87 86 88 87 87 89 90 90 89 87 86 85 87
78 73 78 81 83 82 85 76 75 85 88 89 92 94 95 96 99 98 99 97 98 98 99 99 98 98 91 89 89 89 94 95 94 96 91 90 85 85 85 88 86 88 88 88 88 88 86 86 86
70 72 65 76 80 82 79 68 80 87 84 85 88 91 93 95 97 99 99 98 98 98 96 98 100 100 92 91 93 93 95 94 95 94 95 90 87 85 85 86 87 88 87 88 87 86 85 84 84
66 59 65 70 81 79 76 71 81 87 85 84 87 89 91 93 95 96 99 99 99 97 94 94 95 96 96 94 94 91 90 93 95 95 94 91 88 86 84 86 87 85 87 87 86 84 83 82 82
60 63 66 65 76 79 75 74 80 84 82 83 85 89 91 92 94 97 97 95 95 93 93 92 92 91 92 92 90 92 94 94 94 94 93 90 87 86 83 85 85 85 85 85 85 81 83 82 83
65 63 62 70 78 75 73 75 78 82 82 80 84 87 88 90 95 97 98 97 96 94 91 89 88 87 90 91 90 92 92 92 93 92 91 89 87 85 82 85 84 83 83 82 82 81 78 81 80
61 59 60 67 73 72 72 71 78 82 82 83 83 84 87 89 92 94 94 94 92 91 90 88 87 87 89 90 87 92 94 95 94 92 89 87 85 84 82 82 83 79 82 80 80 78 79 79 77
59 57 57 58 66 70 68 64 68 78 83 84 85 86 87 88 89 90 91 91 92 90 89 88 87 87 88 87 90 89 89 90 91 90 87 85 85 81 79 81 82 80 83 81 79 78 77 73 79
53 64 62 59 57 51 67 52 65 71 75 79 82 85 86 86 86 87 88 89 89 91 92 91 89 87 88 87 85 84 86 86 88 88 87 85 83 81 79 78 81 81 84 81 79 80 79 78 75
57 64 61 60 57 56 58 56 63 72 70 75 79 83 85 86 87 87 89 90 93 94 93 91 89 88 86 85 84 87 84 89 89 89 81 78 76 79 78 79 82 80 83 82 81 80 78 79 74
64 59 59 59 56 45 55 55 58 65 71 76 81 83 85 88 88 89 91 92 92 94 94 92 88 86 86 86 83 84 84 86 87 85 80 75 75 76 77 81 81 81 83 81 81 79 77 75 75
58 52 41 39 41 42 57 54 59 70 75 77 78 83 87 88 88 88 89 91 91 91 91 91 88 85 86 86 84 84 85 86 84 81 83 78 75 76 78 81 80 82 82 81 79 76 75 75 76
52 48 43 31 36 45 57 46 59 73 79 80 81 82 84 85 87 87 88 90 92 92 91 90 89 85 86 85 83 84 85 87 87 84 86 85 80 82 80 81 82 82 82 80 78 76 76 76 76
51 48 58 47 48 40 45 55 66 73 74 77 78 81 81 82 83 85 88 88 89 90 90 89 88 87 85 85 84 84 84 85 85 85 84 87 85 83 81 82 81 82 80 78 76 78 77 76 74
53 58 41 47 32 31 45 48 56 64 68 74 76 77 78 80 83 86 85 85 87 89 90 89 89 87 86 85 85 85 85 86 84 83 84 84 84 83 82 82 80 79 78 78 77 79 78 73 76
48 49 46 48 45 35 33 45 63 69 70 72 76 77 77 79 83 86 82 81 82 87 89 87 87 86 85 85 85 84 85 83 83 83 83 82 81 82 82 82 78 78 79 79 77 78 78 73 73
56 54 51 39 41 48 46 45 63 60 75 76 75 76 78 79 82 86 80 77 84 87 88 86 86 86 86 86 85 83 83 83 81 81 82 82 81 83 83 83 81 82 81 79 77 76 77 76 73

GFSSGP_sfc_temp_054.txt.gz
Temp
80 89 94 92 75 76 72 78 90 90 93 100 102 96 94 97 86 78 100 104 97 89 83 82 79 80 79 79 79 78 78 78 78 79 79 78 78 78 78 78 78 79 80 80 79 79 79 79 79
90 93 93 85 71 67 73 87 87 93 98 100 99 96 94 91 98 98 100 102 96 89 83 82 79 79 79 79 78 78 78 78 78 78 78 78 78 78 78 78 78 79 80 80 80 79 79 79 79
84 94 83 78 72 67 74 89 92 97 100 97 94 100 97 94 99 100 102 101 93 88 85 82 79 79 79 79 78 78 78 77 78 78 78 78 78 78 78 78 78 79 80 80 79 79 79 79 78
89 89 85 72 70 79 81 88 95 96 99 98 98 92 101 103 103 103 104 103 95 92 89 81 78 78 78 79 78 78 78 78 78 78 78 78 78 77 77 78 78 79 80 79 79 79 78 78 78
89 85 72 71 74 81 88 93 96 94 96 95 97 92 94 103 105 103 102 102 98 95 93 82 78 78 78 79 78 78 78 77 78 78 78 78 78 77 77 77 78 78 79 79 79 78 78 78 78
77 81 67 67 73 82 88 94 95 94 96 96 95 94 96 105 103 102 103 101 103 98 91 84 79 78 78 78 78 77 77 77 77 78 78 78 77 77 77 77 78 78 78 79 79 78 77 77 77
75 72 66 69 72 77 83 93 89 92 93 93 100 91 98 101 105 103 103 104 104 100 90 83 81 79 78 78 77 77 77 77 77 77 77 77 77 77 77 77 77 77 78 78 78 78 77 77 77
80 76 70 73 72 75 87 90 93 90 90 101 102 90 90 100 106 104 106 106 105 102 92 86 82 82 80 80 78 77 77 77 76 76 76 76 76 76 76 76 76 77 77 77 77 77 77 76 76
84 68 67 71 73 77 88 86 93 97 92 95 98 98 98 103 104 104 103 105 104 102 96 92 88 84 82 83 80 77 78 77 76 77 76 75 76 76 78 77 78 77 77 77 77 77 76 76 76
75 68 68 80 82 81 87 88 90 90 90 91 94 99 100 100 98 98 98 99 99 99 100 97 90 85 85 90 82 78 80 78 77 78 76 76 76 76 79 79 77 77 76 76 76 76 76 76 76
74 67 76 79 84 86 85 86 91 87 84 91 91 96 99 99 96 95 99 101 101 102 102 99 89 85 87 89 86 81 81 80 78 77 76 76 78 78 79 79 78 75 76 76 76 75 75 76 76
70 76 77 80 83 82 81 87 86 87 87 94 97 99 99 97 98 99 100 101 103 102 99 95 92 87 86 91 89 83 84 82 80 79 77 76 76 76 76 79 78 74 77 74 75 75 75 75 77
72 76 79 82 83 83 84 81 82 85 91 94 96 97 97 96 96 98 101 97 94 92 94 95 90 86 85 85 86 86 84 85 83 81 79 79 78 76 78 78 80 77 78 76 75 76 76 76 77
77 77 79 81 81 83 80 81 82 85 90 90 91 93 94 94 94 95 95 94 96 96 96 98 90 85 86 83 82 83 83 84 84 84 83 79 78 77 78 77 78 78 79 79 77 76 77 77 78
75 69 74 77 79 79 82 75 77 86 87 86 87 90 93 95 96 94 94 91 94 94 96 92 94 87 84 83 83 81 82 85 84 84 83 80 79 77 78 79 78 78 78 78 77 77 77 76 77
67 69 62 74 76 79 78 66 79 85 84 83 85 88 90 92 96 96 96 93 92 92 90 91 96 91 83 82 82 83 82 81 82 84 84 83 80 80 78 79 78 79 77 78 77 76 76 75 74
64 56 60 66 78 77 75 69 80 85 83 81 83 85 87 89 91 92 95 95 91 89 88 89 91 91 85 83 84 84 83 83 83 83 83 84 82 81 80 80 79 78 78 76 76 75 75 73 73
57 60 63 62 71 74 72 72 79 83 83 82 83 85 86 87 89 92 92 93 92 90 87 86 86 87 87 85 83 82 81 82 83 83 84 84 83 81 78 79 78 78 77 76 76 74 75 74 73
63 61 60 65 72 69 69 72 76 81 82 81 83 83 84 85 91 93 92 92 87 85 81 81 81 81 81 80 80 79 79 80 83 84 85 84 82 82 78 78 78 78 76 75 76 75 73 72 73
62 58 56 62 68 66 65 66 73 79 81 82 82 81 82 84 88 90 91 89 85 82 81 81 80 80 80 80 78 80 81 84 85 84 83 83 82 80 79 77 77 76 76 75 75 73 71 71 72
60 56 56 56 63 65 62 59 65 75 79 83 83 85 84 83 83 86 89 87 87 83 80 80 80 79 79 80 80 78 80 80 82 82 81 81 82 80 78 77 77 76 76 75 74 72 71 69 70
53 63 62 59 55 48 62 47 60 68 72 76 78 81 84 84 85 86 86 86 85 87 87 83 80 79 80 80 80 77 78 77 79 81 81 80 81 80 79 77 76 75 76 74 74 74 72 70 67
57 64 60 58 54 53 54 50 56 65 65 72 76 79 83 85 86 86 88 85 84 86 85 82 80 79 80 79 79 78 78 80 82 81 79 78 78 78 78 77 76 75 76 75 74 73 72 70 69
63 58 58 57 54 42 50 50 52 59 64 71 78 81 83 85 87 88 88 87 86 88 87 84 80 78 79 80 78 77 77 77 79 79 78 76 75 75 76 77 74 76 76 75 74 74 72 70 69
58 47 33 35 39 39 53 50 54 63 69 72 75 80 83 85 86 86 87 87 85 85 85 84 81 78 79 78 79 77 77 77 79 76 77 74 73 73 73 74 74 76 75 75 74 72 72 71 69
49 51 40 28 31 41 53 43 49 65 72 74 78 81 82 83 87 87 87 86 88 86 84 84 81 78 80 78 79 79 79 81 81 79 77 74 73 73 74 74 76 76 77 75 73 71 71 70 70
53 47 56 42 45 39 44 53 59 65 67 72 75 78 80 81 84 85 85 85 85 85 85 82 80 79 79 79 80 78 79 80 80 79 76 76 76 76 75 76 76 76 76 74 73 70 70 70 70
54 58 43 44 31 29 42 46 48 57 61 69 71 74 78 81 82 83 84 85 86 86 85 84 82 81 82 82 81 81 80 82 81 79 77 76 77 77 76 76 76 75 74 74 72 70 71 70 69
50 50 51 49 37 29 34 44 60 55 58 55 70 76 78 78 81 83 85 84 85 84 85 83 83 83 81 81 81 80 80 81 80 79 78 77 77 76 77 77 75 75 74 73 70 71 71 70 69
53 52 46 31 36 44 43 42 58 58 58 55 60 73 78 78 80 82 83 80 79 80 84 83 83 83 83 82 81 80 76 76 78 77 77 77 77 78 78 76 75 76 74 72 72 72 71 70 68

GFSSGP_sfc_temp_057.txt.gz
Temp
71 78 77 75 59 57 52 62 75 76 78 84 87 84 80 82 81 68 89 88 84 78 78 79 79 80 80 79 78 78 78 78 78 78 78 78 78 78 78 78 78 79 79 80 79 79 79 79 79
75 82 76 69 54 46 53 71 71 79 85 86 89 87 85 79 89 88 83 85 83 79 77 78 79 79 79 79 78 77 78 78 78 78 78 78 78 78 78 78 78 79 80 79 79 79 79 79 78
77 81 65 60 53 53 55 70 75 83 89 87 84 91 86 83 91 89 88 85 82 78 78 78 79 79 79 79 78 77 77 77 78 78 78 78 78 77 77 78 78 79 80 80 79 79 79 78 78
78 72 68 56 54 63 68 74 79 83 87 89 89 84 90 93 92 91 88 86 82 78 79 79 78 78 78 79 78 77 77 77 78 78 78 78 78 77 77 77 78 79 79 79 79 79 78 78 78
76 70 55 51 57 68 77 81 82 81 83 85 88 83 83 90 94 90 87 87 82 79 78 77 78 78 78 79 78 78 77 77 77 78 78 78 77 77 77 77 78 78 79 79 79 78 78 77 77
67 67 50 49 60 71 78 82 79 79 82 89 85 85 84 92 94 92 90 87 85 82 76 77 78 78 78 78 78 78 77 77 77 77 77 77 77 77 77 77 77 78 78 78 79 78 77 77 76
66 61 55 57 61 67 75 81 77 77 78 84 89 82 83 89 94 93 91 89 86 83 77 76 75 77 78 78 77 77 77 77 77 77 77 77 77 77 77 77 77 77 77 78 78 77 77 76 76
69 65 60 63 62 65 78 80 78 77 81 91 94 81 79 88 94 93 93 90 86 81 78 74 74 75 74 75 77 77 77 77 76 76 76 76 76 76 76 75 76 77 77 77 77 77 76 76 75
75 57 55 61 64 69 78 77 86 90 84 87 89 88 90 94 95 91 88 86 84 81 77 76 74 73 72 73 76 76 77 77 76 76 76 75 71 71 73 75 75 77 77 77 77 76 76 76 75
64 56 59 69 72 71 78 78 81 82 80 81 85 89 94 93 87 90 89 86 86 80 79 78 77 75 73 80 73 71 73 72 72 72 71 70 68 68 74 74 76 76 76 76 76 76 76 76 70
66 58 67 71 75 77 76 77 83 78 75 79 80 85 89 91 90 87 88 86 89 85 85 82 78 77 77 80 73 72 72 71 71 71 69 69 71 70 73 71 73 71 75 72 74 73 73 71 69
60 69 70 71 75 75 72 78 77 79 78 85 86 86 86 87 85 87 84 85 88 89 87 83 81 78 79 81 76 74 74 73 72 72 70 70 70 69 71 71 71 69 71 69 67 69 69 69 71
63 67 72 75 75 75 77 74 75 77 84 88 89 87 83 86 85 86 84 85 84 84 85 80 80 80 81 79 78 76 75 75 74 73 73 73 71 71 72 70 70 70 71 69 69 68 70 70 71
65 67 69 72 72 75 73 74 77 79 84 85 86 82 82 83 85 82 80 78 82 84 84 80 74 80 81 82 80 78 78 78 76 76 75 74 74 73 72 73 71 69 72 72 71 71 70 71 71
65 59 65 68 69 68 73 68 71 80 82 82 84 85 85 82 84 85 86 80 84 82 81 82 78 80 79 81 76 75 77 77 78 78 77 75 74 73 73 72 74 70 72 72 72 71 70 69 73
56 56 49 60 68 71 67 57 72 78 79 79 81 84 85 83 81 83 85 81 79 82 81 78 86 80 81 78 79 77 74 74 75 75 77 76 75 74 72 74 71 75 70 73 71 71 71 70 71
50 43 48 56 67 67 65 60 71 77 77 76 79 81 83 84 82 79 82 82 82 80 78 77 82 82 78 74 74 73 73 74 78 75 75 77 76 75 75 73 73 71 74 70 69 68 70 69 67
45 47 53 53 60 62 60 62 70 74 76 76 77 79 80 81 83 84 80 82 80 80 77 78 78 77 77 76 74 73 73 74 74 78 77 75 76 76 74 75 70 71 70 69 68 68 68 67 67
57 53 51 57 63 58 56 58 63 69 70 72 76 77 78 79 85 86 86 80 79 75 76 76 76 74 76 72 72 70 72 72 73 73 76 76 75 76 76 71 72 70 69 69 69 68 67 66 67
55 51 50 56 62 59 56 55 62 65 66 69 71 75 77 75 76 80 80 81 77 75 75 73 76 75 74 72 71 72 71 72 76 74 75 75 75 74 75 72 70 69 69 68 69 68 65 65 65
53 50 50 51 57 59 55 51 56 64 67 70 72 74 75 78 77 78 81 77 77 76 72 73 74 75 74 73 70 69 69 69 70 71 72 73 75 74 74 72 70 69 69 68 68 67 66 63 63
46 56 56 54 49 40 52 38 50 57 60 65 68 71 69 70 75 79 80 76 73 74 74 74 74 73 73 72 69 70 74 70 68 71 71 71 74 74 72 72 70 70 70 68 68 70 66 65 62
49 57 53 52 46 44 46 40 47 54 55 60 64 69 72 71 71 76 77 75 76 77 74 73 73 72 72 74 74 72 67 69 70 69 71 70 71 72 73 71 70 70 71 68 68 67 66 65 64
58 50 48 46 40 33 43 42 43 49 55 60 65 69 72 75 72 73 80 75 73 73 74 73 72 74 74 73 72 71 69 69 69 69 69 68 69 69 71 71 69 71 71 69 68 68 67 65 64
47 38 24 25 26 28 46 42 44 55 60 62 62 66 71 73 75 77 74 72 71 73 73 71 70 69 72 72 73 73 70 69 69 69 69 68 67 68 69 71 69 71 70 69 69 67 66 65 64
45 38 28 22 26 31 45 36 44 56 61 64 65 66 69 72 77 73 76 76 78 76 72 73 71 69 70 73 73 71 72 70 70 71 71 69 69 68 69 71 71 71 71 69 69 66 65 65 64
45 36 44 35 39 31 37 44 53 58 57 56 55 55 58 66 74 74 69 70 71 71 72 71 71 69 70 72 71 72 71 70 71 70 71 70 68 70 69 72 70 70 69 68 67 65 65 64 64
46 49 33 33 26 23 35 38 39 45 46 49 49 51 54 55 71 71 71 71 71 71 72 72 71 69 69 71 72 71 71 71 73 72 70 69 69 71 69 71 69 69 68 67 66 64 65 64 63
39 40 36 39 32 25 24 31 46 44 46 46 48 54 53 54 69 70 69 69 71 72 71 71 69 69 68 69 70 70 71 72 75 71 71 71 71 69 70 70 69 69 67 66 65 64 65 64 63
48 40 38 29 28 33 31 30 48 46 50 49 48 53 54 55 56 66 67 69 69 69 70 70 70 71 72 73 72 71 71 71 71 70 71 72 71 71 70 71 70 69 68 66 65 65 66 64 62

GFSSGP_sfc_temp_060.txt.gz
Temp
69 74 73 71 58 52 47 56 65 69 71 75 82 81 79 80 76 68 81 86 81 77 77 78 79 80 79 79 78 78 78 78 78 78 78 78 78 78 78 78 78 79 79 79 79 79 79 79 78
72 79 72 64 52 44 49 60 65 69 76 83 86 82 77 76 83 78 81 82 82 77 76 77 79 79 79 78 78 78 78 78 78 78 78 78 78 78 78 78 78 79 79 79 79 79 79 78 78
76 78 63 57 49 46 50 62 66 74 80 81 79 86 82 80 84 84 81 82 80 76 76 76 79 79 79 78 78 78 78 78 78 78 78 78 78 77 77 78 78 79 80 80 79 79 78 78 78
76 69 64 53 51 58 61 68 72 75 80 82 84 79 84 88 88 85 82 82 79 76 77 78 78 79 78 78 78 78 78 78 78 78 78 78 78 77 77 77 78 79 80 79 79 79 78 78 77
74 64 53 49 54 62 70 72 72 72 76 79 84 79 79 87 87 83 81 83 79 76 77 77 78 79 79 78 78 77 77 77 78 78 78 77 77 77 77 77 78 78 79 79 79 78 77 77 77
65 64 51 46 56 67 70 73 71 73 76 79 81 81 79 85 83 83 83 82 81 77 76 76 78 78 78 78 78 77 77 77 77 77 77 77 77 77 77 77 77 78 78 78 78 78 77 76 76
62 56 52 55 58 62 69 74 73 73 73 78 82 79 77 81 85 85 85 83 80 78 75 75 76 77 78 78 77 77 76 76 77 76 76 76 76 76 76 76 77 77 77 77 78 77 76 76 76
66 57 52 55 59 60 71 75 74 74 78 86 92 77 73 81 87 84 82 80 78 75 75 73 73 74 74 75 77 77 77 76 76 76 76 76 76 76 76 75 76 77 77 77 77 77 76 76 75
70 50 50 56 61 65 73 70 79 83 78 80 85 85 88 89 86 83 79 75 75 75 72 71 71 71 72 73 76 76 77 77 76 76 76 74 71 72 73 74 75 76 76 76 76 76 76 75 75
60 49 54 65 69 67 72 73 75 76 76 77 80 86 88 88 85 83 79 77 75 76 73 73 72 71 70 77 73 71 73 73 72 71 71 69 68 68 72 73 76 76 76 76 76 76 76 76 69
60 56 63 67 70 72 71 72 77 73 70 76 75 81 86 86 81 80 81 81 80 80 76 74 74 71 72 75 71 70 70 69 69 69 69 68 68 68 70 67 71 69 74 71 73 72 71 69 68
56 64 66 67 71 70 69 74 72 74 74 81 83 83 81 80 76 81 82 84 84 81 80 76 76 74 74 75 71 70 70 69 69 69 68 67 66 66 65 66 66 66 68 67 66 67 68 68 68
57 62 66 69 70 70 72 70 72 73 80 84 85 84 79 78 78 77 78 79 80 79 79 77 75 74 75 74 73 70 71 71 71 69 69 69 67 66 67 66 66 68 65 67 65 66 67 67 68
58 60 62 65 66 68 68 70 72 75 81 81 83 82 81 80 80 77 77 74 75 78 78 76 74 76 76 76 74 75 73 71 69 70 70 70 70 69 68 68 67 67 68 68 68 67 67 67 68
61 53 59 62 63 63 69 64 66 75 78 78 80 82 83 81 82 79 77 77 77 77 77 76 77 78 77 78 76 76 75 74 72 72 71 71 71 70 69 68 68 68 68 68 68 65 65 65 67
54 49 42 57 63 65 64 55 69 74 73 73 76 80 82 80 80 80 79 77 73 76 79 76 83 76 78 78 75 76 75 74 74 74 72 72 71 71 69 69 69 69 68 68 68 67 64 65 65
44 40 46 52 62 62 60 56 65 70 71 72 74 75 79 81 78 77 79 76 80 77 80 80 79 78 76 75 75 74 72 72 73 73 73 73 72 72 71 70 69 68 68 68 68 67 66 63 63
41 42 46 48 57 57 55 55 61 65 65 64 67 71 75 79 81 79 79 79 76 77 76 83 84 83 82 81 79 72 71 71 70 74 73 73 72 72 71 71 69 70 69 67 66 65 65 64 66
50 48 46 52 59 55 53 54 59 62 62 62 64 66 69 72 78 81 78 79 76 73 77 73 73 78 77 71 70 71 76 73 72 72 74 73 73 73 71 71 69 71 70 69 68 65 64 63 64
51 45 45 51 57 55 52 53 60 62 60 61 63 65 65 69 73 79 80 77 74 73 74 73 75 77 77 80 79 74 78 71 75 75 73 73 73 72 72 71 70 70 68 66 66 66 63 63 63
47 44 45 45 52 53 50 48 52 59 60 63 64 64 64 65 68 72 77 78 76 72 70 75 77 77 78 78 75 68 67 66 67 68 68 69 72 73 72 71 72 70 70 67 65 65 65 62 62
41 52 51 48 43 34 49 34 47 53 54 58 61 60 61 65 68 70 73 74 72 74 74 75 77 76 77 76 76 73 70 67 67 68 69 70 71 71 72 71 70 68 67 66 66 66 64 63 62
46 52 47 47 42 36 42 34 43 51 51 55 60 63 65 68 68 69 72 75 75 74 69 71 72 72 73 72 73 74 66 67 65 66 69 68 68 71 71 71 69 68 67 67 67 65 64 66 64
53 46 44 41 36 27 38 37 41 45 50 55 60 63 65 63 67 69 71 72 71 71 70 71 69 69 69 69 69 70 68 67 64 65 65 66 67 68 70 70 69 69 67 67 68 66 65 64 63
45 35 23 23 24 26 41 37 41 50 55 57 54 53 55 57 57 59 63 73 75 69 68 70 72 72 72 72 71 69 70 69 67 66 66 66 66 66 67 68 68 68 68 68 67 66 66 64 63
40 37 25 23 23 29 42 31 40 52 56 53 54 54 56 56 57 58 59 65 72 73 74 71 69 72 71 71 70 70 71 71 69 67 68 70 70 69 69 69 69 69 69 67 67 67 65 64 63
40 33 40 30 34 27 34 41 48 51 50 52 52 54 53 55 56 57 59 66 72 76 70 70 70 72 70 71 71 66 68 69 67 68 69 68 68 69 69 69 68 68 68 68 66 66 64 63 62
43 46 30 28 22 21 30 35 36 42 44 48 49 48 51 56 56 58 58 62 68 68 71 67 68 69 69 68 69 71 69 70 69 68 68 68 68 70 68 67 67 67 69 67 65 64 64 63 62
37 35 34 32 29 20 25 29 42 42 44 44 47 50 50 52 55 58 57 63 67 66 66 67 67 67 66 66 65 66 66 68 69 69 68 68 68 68 68 68 68 69 68 66 64 63 63 63 61
45 38 35 25 25 31 31 30 51 46 46 47 48 50 50 52 55 57 58 62 63 67 66 66 66 65 65 67 68 68 68 69 69 68 68 68 67 68 69 69 70 70 69 65 63 63 64 63 61

GFSSGP_sfc_temp_063.txt.gz
Temp
68 71 71 70 57 50 44 53 58 63 68 71 76 73 74 76 75 67 76 81 77 78 76 78 79 79 79 79 78 78 78 78 78 78 78 78 78 78 78 78 78 79 79 79 79 79 79 79 79
70 75 70 62 50 43 47 56 57 64 71 75 76 78 76 74 80 76 76 78 79 78 76 76 79 79 79 78 78 78 78 78 78 77 78 78 78 78 78 78 78 79 79 79 79 79 79 79 78
74 74 62 55 46 47 50 58 59 70 74 74 73 81 79 78 80 79 81 79 79 76 76 76 78 78 79 78 78 78 78 78 78 78 78 78 77 77 77 78 78 79 80 79 79 79 79 78 78
74 69 62 51 51 57 59 63 66 70 75 75 76 75 83 85 80 82 81 80 78 76 76 78 78 78 78 78 78 78 78 78 78 78 78 78 77 77 77 77 78 79 79 79 79 78 78 78 77
71 64 50 46 55 60 66 69 67 68 69 74 75 75 77 83 81 80 79 80 78 75 76 77 78 78 78 79 78 78 78 77 78 78 78 78 77 77 77 77 78 78 79 79 79 78 77 77 77
62 60 47 46 59 64 67 71 67 68 71 75 75 77 76 80 78 80 81 80 79 75 75 76 78 78 78 78 78 77 77 77 77 77 77 77 77 77 77 77 77 78 78 78 78 78 77 76 76
58 56 51 52 57 61 67 71 69 68 69 72 78 74 78 78 80 80 78 77 77 76 75 75 76 77 78 78 77 77 77 77 77 77 76 76 76 76 76 76 77 77 77 77 77 77 76 76 76
65 57 49 56 59 58 69 69 70 68 71 80 81 72 73 76 80 78 74 71 71 71 74 72 73 74 73 74 77 77 76 76 76 76 76 76 76 76 76 75 76 77 77 76 76 76 76 75 75
68 50 50 54 60 62 71 64 74 77 73 75 77 78 82 81 80 77 73 69 68 71 68 70 71 71 70 71 75 76 77 77 76 76 76 74 72 72 73 74 75 76 76 76 76 76 76 75 75
59 48 54 63 67 65 69 67 71 72 72 73 76 81 85 82 79 76 72 71 69 71 68 68 70 70 69 75 71 71 72 73 72 72 72 70 68 68 71 73 76 76 76 76 76 76 76 75 68
58 53 62 64 67 68 68 69 74 70 67 69 72 77 82 79 80 79 75 74 75 75 75 71 70 70 69 72 69 70 68 68 68 68 68 67 68 67 69 67 69 68 74 69 72 70 69 68 67
54 61 63 64 68 67 65 71 69 71 71 78 77 78 79 81 78 78 82 79 79 78 76 74 74 71 69 72 71 70 70 67 67 67 67 67 66 65 65 66 65 66 65 65 66 66 67 67 67
52 58 63 65 65 65 67 67 68 70 76 79 80 79 76 76 77 78 77 78 79 77 76 74 75 72 73 72 72 68 69 69 68 67 67 67 66 65 64 65 64 64 64 64 64 64 65 66 67
54 56 59 62 62 64 64 66 68 72 77 77 78 76 77 75 76 75 74 74 75 78 77 74 73 74 74 73 72 70 70 69 67 69 68 67 67 64 64 63 64 63 64 64 65 64 64 65 65
55 50 55 60 62 62 67 59 62 72 75 74 75 77 76 76 76 75 78 76 75 74 80 75 73 72 71 72 70 69 71 71 70 70 68 68 66 64 64 63 63 65 65 64 64 63 63 63 65
48 48 42 53 60 63 62 53 64 68 68 67 71 74 76 75 77 76 76 76 74 72 73 77 80 75 73 74 74 73 75 72 73 71 69 69 68 67 65 65 64 64 64 66 65 63 61 62 62
42 38 41 51 59 58 57 50 62 66 66 65 65 67 71 72 72 73 75 77 76 75 73 72 74 75 74 76 76 77 75 74 73 72 71 70 69 69 67 67 66 65 65 65 65 63 64 61 61
38 39 43 44 54 56 53 52 58 63 63 63 63 65 67 69 72 74 75 74 75 74 75 72 73 75 76 77 77 75 72 73 70 72 72 71 71 70 68 68 66 66 65 64 63 63 63 62 63
46 43 42 48 55 49 50 52 56 60 59 59 61 62 63 66 71 73 74 74 72 73 70 72 71 72 74 76 75 74 74 74 72 73 73 72 71 70 68 69 66 66 66 66 65 63 62 61 62
47 42 40 47 53 50 48 50 56 56 58 59 59 60 62 63 66 71 73 73 71 69 72 74 74 77 73 76 78 75 78 78 78 74 70 71 71 70 69 68 67 67 67 64 65 64 61 62 65
43 41 41 42 48 49 46 45 49 55 56 60 61 61 61 61 63 67 70 69 68 69 67 72 74 76 74 76 69 66 67 67 67 68 68 69 70 71 71 69 68 67 69 66 65 65 64 63 64
40 48 47 45 40 32 46 32 44 48 51 54 58 58 59 60 63 63 66 68 67 69 71 69 75 75 76 77 76 72 78 76 71 70 69 70 69 70 70 69 69 68 68 65 67 66 65 65 63
44 50 45 44 38 34 37 31 43 51 49 51 55 57 57 57 57 58 62 65 67 71 71 69 68 70 75 75 78 76 68 73 67 67 67 66 66 68 70 69 69 68 68 67 66 64 63 65 64
51 44 41 37 33 24 35 35 37 40 44 48 54 56 55 56 57 58 60 62 62 65 66 67 65 69 69 70 73 74 76 71 66 65 65 64 65 67 69 69 68 68 67 67 66 65 64 63 63
43 32 22 22 23 25 37 33 38 47 52 51 50 52 54 54 54 55 56 58 60 62 64 64 65 68 69 69 71 71 72 72 70 69 66 64 64 65 67 67 67 68 67 67 66 66 65 65 63
38 35 24 20 22 27 39 28 35 49 52 52 53 53 54 54 54 54 56 56 58 61 64 67 66 66 69 70 71 72 73 74 72 66 64 65 66 66 67 67 68 68 68 67 66 66 65 65 63
37 32 38 28 30 23 29 37 45 51 50 51 50 52 51 52 54 55 57 57 56 59 62 65 67 67 68 71 73 72 70 67 66 63 66 65 66 67 68 68 68 67 67 66 65 64 65 64 62
41 44 28 26 21 20 28 31 34 43 48 48 48 49 50 51 52 54 56 58 59 60 63 64 68 69 69 70 71 68 66 66 64 64 66 66 66 68 67 67 67 66 67 67 66 65 64 63 61
35 32 32 31 25 18 19 27 41 43 46 44 47 50 48 49 50 53 55 57 57 61 63 60 62 67 67 64 62 63 63 63 65 66 67 67 67 67 68 68 67 67 66 66 66 64 63 62 61
41 36 34 24 23 28 29 30 49 46 46 46 47 50 49 49 52 53 54 57 57 58 58 63 63 61 63 66 66 64 63 65 66 66 66 67 67 68 68 68 67 67 68 66 65 65 64 62 60

GFSSGP_sfc_temp_066.txt.gz
Temp
71 70 69 68 56 49 42 51 55 62 64 68 71 69 70 73 71 64 74 79 77 76 76 78 79 79 79 79 79 78 78 78 78 78 78 78 78 78 78 78 78 79 80 80 79 79 79 79 79
72 75 69 60 49 42 45 52 55 61 68 72 71 70 68 70 82 74 73 77 78 77 76 77 78 79 79 79 78 78 78 78 78 78 78 78 78 78 78 78 78 79 80 80 79 79 79 79 79
74 75 65 55 45 46 49 55 60 64 70 68 69 76 74 75 78 77 78 77 79 76 76 76 78 79 79 79 78 78 78 78 78 78 78 78 78 77 77 78 78 79 80 80 79 79 79 78 78
71 68 63 51 49 55 59 58 62 66 70 71 71 70 78 82 80 79 78 78 78 76 76 77 78 78 78 79 78 78 78 78 78 78 78 78 78 77 77 77 78 79 80 80 79 78 78 78 77
70 62 50 49 53 59 64 65 65 63 66 70 71 70 71 79 78 77 76 79 78 75 75 77 78 78 78 79 78 78 78 77 77 78 78 78 77 77 77 77 78 79 79 79 79 78 77 77 77
62 59 47 46 59 63 65 68 64 63 67 70 70 70 72 77 77 76 77 75 77 75 74 75 78 78 78 78 78 78 77 77 77 77 78 77 77 77 77 77 77 78 78 79 78 77 77 76 76
60 54 48 51 57 60 66 69 65 63 65 69 73 68 73 79 76 76 74 73 73 74 73 73 75 77 78 78 77 77 77 77 77 77 77 77 77 76 76 77 77 77 77 77 77 77 76 75 75
63 58 50 53 59 58 68 69 69 65 68 77 78 68 68 73 76 74 71 68 68 69 71 70 71 74 74 75 77 77 77 77 77 76 76 76 76 76 76 75 76 77 77 77 77 76 76 75 75
66 52 47 57 58 61 68 64 70 76 72 71 74 74 77 78 77 73 71 70 68 71 68 68 69 69 70 72 75 77 77 77 77 76 76 75 74 74 75 75 75 77 77 76 76 76 75 75 75
58 49 51 61 65 64 68 65 69 70 70 69 71 77 80 78 74 72 70 72 70 70 67 68 68 69 69 74 71 72 73 74 76 75 73 73 71 70 72 74 76 76 76 76 76 76 75 76 71
52 51 59 63 66 67 65 66 71 67 66 68 68 72 76 77 73 73 74 72 72 70 70 69 68 68 70 72 68 69 70 69 69 70 70 69 68 69 71 69 71 70 75 71 74 73 72 71 70
47 57 62 64 68 64 64 68 67 68 69 75 73 74 73 74 75 73 74 77 75 74 74 73 72 70 70 72 69 70 71 69 68 68 68 67 66 66 66 67 67 67 68 68 68 69 69 69 69
47 53 60 62 64 64 66 65 66 67 73 76 75 75 73 73 73 74 72 75 81 79 75 75 73 69 69 69 71 70 70 70 71 68 68 67 66 65 65 66 66 66 66 66 66 67 68 68 69
51 52 56 60 62 63 63 65 66 70 74 74 75 72 72 72 73 71 72 69 74 79 80 75 72 71 69 71 71 71 72 70 69 68 68 68 68 65 65 64 65 65 66 66 66 66 66 67 68
52 47 52 56 60 60 64 58 60 69 71 70 71 71 71 71 72 71 72 71 71 74 76 74 75 74 70 69 69 68 70 68 68 69 68 68 67 66 65 65 64 66 66 66 66 66 66 66 67
44 43 38 50 56 61 60 51 61 65 66 66 67 67 69 69 71 71 71 70 70 70 69 74 78 75 70 71 69 71 68 67 69 67 67 69 68 67 65 65 65 66 65 66 66 65 64 65 65
41 35 38 46 54 56 54 50 60 64 64 63 65 65 66 67 69 68 70 71 71 70 69 71 73 73 71 70 71 71 71 71 72 70 69 69 69 68 66 66 66 65 65 65 66 65 66 64 64
35 36 40 41 50 50 48 49 56 61 61 61 63 64 65 66 67 69 70 70 70 69 68 67 70 73 72 73 71 70 70 70 72 72 72 71 70 69 67 67 66 66 65 64 65 65 65 64 65
43 41 40 45 50 47 46 48 52 57 58 58 60 61 62 64 68 70 70 69 68 67 67 67 67 68 69 71 70 70 70 71 71 73 73 71 71 70 68 68 67 66 66 66 65 65 64 63 64
44 40 39 45 51 48 46 47 53 54 56 58 59 59 60 62 66 68 68 67 65 64 64 65 66 67 68 71 74 73 75 75 76 76 74 73 73 71 69 68 68 67 66 65 65 65 63 64 65
41 39 39 40 45 46 43 41 46 50 54 57 58 59 60 60 61 63 65 64 64 63 63 64 66 66 66 70 68 67 68 67 68 69 71 71 72 71 70 69 68 67 68 66 66 66 65 64 64
37 46 45 43 38 30 43 28 40 46 48 51 55 55 55 57 59 59 61 61 62 62 64 63 63 64 68 68 69 68 75 73 73 77 74 70 71 71 70 69 69 68 68 67 66 67 67 66 63
42 47 42 42 36 30 35 28 34 44 43 46 52 54 55 55 55 57 60 60 62 63 61 60 61 62 66 67 71 73 73 77 73 67 69 69 69 69 71 70 69 68 68 68 67 66 66 68 66
48 42 39 34 30 23 32 31 29 37 43 46 51 54 55 55 56 56 58 59 60 61 61 59 58 60 63 65 68 71 73 74 68 66 68 67 66 67 69 69 69 68 68 68 68 67 67 66 66
41 31 21 21 22 23 34 32 36 45 49 50 50 52 53 53 52 54 55 57 58 60 61 61 60 59 62 64 67 70 72 72 70 70 71 65 65 66 67 68 67 68 68 68 68 67 67 66 66
35 33 23 19 20 23 36 27 33 46 50 51 52 51 52 51 51 51 54 55 57 59 59 59 59 59 62 62 66 68 71 74 74 71 68 68 68 67 68 68 68 69 69 69 69 68 67 66 66
35 30 35 27 27 21 27 34 43 49 48 49 50 51 50 50 50 52 54 55 56 57 58 59 59 59 60 64 66 67 69 69 69 66 67 66 66 67 68 68 68 69 69 69 67 67 66 66 66
40 42 27 24 20 19 25 28 32 42 44 47 47 48 50 49 50 52 54 55 57 58 58 60 60 61 62 63 67 68 69 70 70 64 64 66 66 68 68 68 68 69 69 68 67 66 67 66 64
34 30 31 29 25 19 18 26 39 41 43 43 45 50 49 47 49 50 54 57 58 58 57 60 60 61 60 63 66 67 65 64 64 65 65 66 67 68 68 68 68 69 68 67 67 67 65 66 63
39 34 32 21 21 23 23 30 48 46 44 45 46 48 50 48 48 50 53 56 57 56 57 59 60 62 62 62 64 64 63 64 64 65 66 67 67 68 68 69 69 68 68 67 67 66 66 65 64

GFSSGP_sfc_temp_069.txt.gz
Temp
79 81 82 84 73 71 65 68 71 73 76 83 85 82 82 86 82 80 87 88 91 88 86 83 79 80 80 80 79 79 78 78 79 79 79 79 79 79 79 78 79 79 80 80 80 80 80 80 79
81 81 80 78 69 62 67 68 70 76 81 83 83 82 80 80 90 96 89 88 89 87 85 85 79 79 79 79 79 79 78 78 78 78 78 78 78 78 78 78 79 80 80 80 80 80 80 79 79
80 81 77 73 67 62 66 70 74 77 81 79 81 85 84 83 90 94 89 88 89 87 87 85 79 79 79 79 79 78 78 78 78 79 78 78 78 78 78 78 79 80 80 80 80 79 79 79 79
81 80 75 67 64 63 67 73 76 76 83 82 82 79 88 88 88 90 89 88 88 89 88 82 79 79 79 79 79 78 78 78 78 79 78 78 78 78 77 78 78 79 80 80 80 79 79 79 78
80 75 66 62 64 65 70 76 79 77 79 81 82 79 81 90 89 87 87 89 88 89 89 85 79 79 79 79 79 78 78 78 78 78 78 78 78 77 77 78 78 79 80 80 79 79 78 78 77
74 73 61 59 64 68 72 79 77 77 80 81 81 79 82 91 86 85 87 88 91 87 86 86 79 79 79 79 79 78 78 78 78 78 78 78 77 77 77 77 78 79 79 79 79 78 77 77 76
70 67 63 62 63 65 71 78 76 77 78 79 84 77 84 88 84 84 85 87 88 87 85 85 85 82 78 78 78 78 77 77 77 77 77 77 77 77 77 77 78 78 78 78 78 77 77 76 76
73 70 63 64 61 63 74 75 78 77 76 84 86 76 78 86 83 83 84 84 87 86 88 86 85 87 85 85 78 77 77 77 77 77 77 77 77 77 77 76 77 78 77 77 77 77 76 76 75
74 64 60 63 63 67 73 71 77 82 78 80 83 83 86 90 85 84 83 84 84 85 85 87 87 86 86 87 84 78 78 78 77 78 77 77 84 83 82 79 78 77 77 77 77 76 76 75 75
69 63 64 69 70 69 72 72 74 74 76 77 80 85 88 90 87 85 84 84 82 84 83 84 84 83 84 85 84 84 84 84 84 84 83 83 84 83 84 81 76 77 77 77 76 76 76 77 85
67 62 67 69 72 74 73 71 75 72 70 77 75 80 85 87 87 83 86 87 86 84 84 81 79 80 82 84 84 84 84 84 83 82 81 82 82 82 83 83 82 82 79 83 81 81 83 83 84
61 65 68 71 73 70 69 71 69 72 74 79 80 82 83 84 85 85 85 87 86 83 83 83 80 78 79 82 82 84 84 82 82 82 80 80 80 80 81 82 83 81 83 82 81 83 82 81 81
62 64 67 70 70 69 69 67 69 70 76 79 82 82 82 82 84 86 83 84 85 84 82 81 82 78 78 77 81 81 80 81 83 82 81 82 82 79 80 80 82 82 83 82 81 81 80 80 80
63 63 66 68 70 69 66 68 70 73 76 76 78 79 80 79 81 83 83 82 78 82 84 85 80 79 79 77 78 78 79 81 80 82 79 78 80 79 80 79 80 81 82 83 81 80 80 80 80
62 58 64 65 68 67 71 62 65 70 73 73 76 78 79 79 82 81 80 80 80 78 79 83 80 79 76 75 77 77 77 79 79 80 78 78 77 77 76 79 79 80 80 79 79 78 78 79 79
58 57 54 62 64 66 67 57 65 69 69 70 71 74 76 78 79 81 81 80 79 79 74 80 84 82 79 76 76 78 80 78 79 78 78 77 76 77 75 76 75 80 79 79 79 79 78 79 79
55 51 51 55 63 62 62 57 64 68 67 66 68 71 74 76 78 79 81 81 80 79 76 74 77 80 79 76 77 77 77 79 81 80 79 78 77 77 73 71 71 76 78 76 78 79 77 77 78
48 49 51 52 59 61 59 58 63 65 64 64 66 68 70 73 76 79 80 80 79 78 78 76 75 75 79 80 77 77 79 78 79 79 78 77 79 76 74 74 74 71 73 74 75 76 77 78 78
53 51 50 55 59 57 57 57 61 64 65 63 65 65 67 69 75 77 78 78 77 77 74 75 75 77 78 78 78 78 77 78 79 81 79 78 77 75 74 70 69 72 71 73 76 76 74 74 76
52 50 51 55 57 56 56 55 60 64 64 65 65 64 66 67 69 71 75 75 74 73 73 73 74 75 77 80 79 81 80 82 81 82 80 77 77 76 75 71 72 71 74 75 75 73 75 74 75
52 50 49 49 53 57 53 54 55 61 64 65 66 66 66 66 67 67 70 70 71 71 70 71 71 72 74 77 80 79 81 80 80 81 79 78 78 77 80 73 74 75 77 79 75 74 73 73 73
48 54 52 49 48 43 53 41 53 57 58 61 64 66 66 66 67 66 66 67 69 70 71 71 70 70 73 75 76 76 79 79 83 82 82 81 80 81 80 77 76 75 78 77 76 76 74 74 74
50 54 51 50 48 45 48 42 50 53 55 59 63 64 67 67 66 65 66 66 68 69 70 70 69 68 70 70 72 77 76 81 83 84 81 79 79 80 81 79 77 76 78 77 75 73 71 75 78
55 52 51 46 46 38 44 43 47 52 55 58 63 65 67 66 67 67 68 67 66 67 67 67 67 66 68 69 71 71 73 76 80 79 79 79 78 79 79 80 78 77 77 76 75 74 73 74 77
52 47 38 37 37 38 44 42 47 55 59 60 61 64 66 67 67 66 65 66 67 66 67 66 67 66 67 67 68 71 72 73 75 77 78 76 76 78 77 78 77 77 76 75 75 74 75 74 76
48 46 39 28 33 39 45 39 49 57 61 62 62 63 64 66 67 65 66 65 66 67 67 67 67 66 68 67 66 68 70 75 76 77 79 79 78 79 80 77 77 77 76 76 75 76 77 76 73
46 42 48 40 41 35 42 47 53 59 58 59 60 61 62 63 63 64 65 66 66 66 66 66 65 66 68 68 68 68 70 72 73 75 75 77 76 82 78 77 77 77 77 76 76 78 76 76 73
50 52 38 40 28 28 39 40 44 51 55 56 58 59 61 63 63 64 65 64 66 68 67 66 66 67 68 69 69 71 71 73 75 76 74 74 75 79 77 77 77 77 77 77 76 77 77 75 75
45 44 43 42 39 32 31 40 53 53 56 54 57 59 60 61 62 63 64 66 67 68 68 66 66 66 67 69 71 71 70 74 76 76 76 76 77 77 78 79 78 77 77 77 76 77 77 74 69
50 46 45 34 32 36 36 38 58 57 58 57 58 60 61 61 62 64 64 65 65 66 67 67 66 65 67 68 69 70 70 73 75 75 76 77 77 79 80 80 79 79 78 77 77 76 77 73 67

GFSSGP_sfc_temp_072.txt.gz
Temp
87 94 97 94 81 82 78 79 85 83 84 91 93 90 91 95 90 87 99 102 103 100 94 88 80 80 80 80 80 79 79 79 79 80 79 79 79 79 79 79 79 80 80 80 80 80 80 80 80
93 93 94 90 76 73 77 83 81 86 88 92 93 93 90 88 98 100 105 100 103 99 93 92 80 80 80 79 79 79 79 79 79 79 79 79 79 79 79 79 79 80 80 80 80 80 80 80 80
89 92 86 83 72 71 76 81 85 87 90 89 89 93 90 88 95 97 102 99 101 98 96 92 79 79 80 80 79 79 79 79 79 79 79 79 79 78 78 78 79 80 81 81 80 80 80 80 79
91 91 88 73 72 75 75 84 85 85 90 91 90 86 94 96 94 97 101 100 101 100 98 86 79 79 79 80 79 79 79 78 79 79 79 79 79 78 78 78 79 80 80 81 80 80 79 79 79
93 88 74 70 73 77 77 84 87 85 88 89 89 85 88 97 99 97 97 99 100 101 100 91 79 79 79 80 79 79 79 78 78 79 79 79 78 78 78 78 79 79 80 80 80 79 79 78 78
82 84 70 68 71 75 78 82 87 86 88 89 88 87 89 100 96 94 97 98 102 100 98 92 80 79 79 79 79 78 78 78 78 78 78 78 78 78 78 78 78 79 79 79 79 79 78 77 77
78 77 70 73 71 71 75 84 83 86 86 87 90 84 90 95 97 95 94 97 101 101 98 93 89 84 79 78 78 78 78 77 78 78 77 78 78 77 78 78 78 78 79 79 78 78 77 77 77
84 80 71 74 71 72 78 80 85 86 84 91 91 84 85 93 98 98 96 96 99 100 99 95 91 92 89 88 78 78 78 77 77 77 77 77 77 77 77 76 77 78 78 78 78 77 77 77 76
86 73 69 72 73 76 82 76 83 89 85 89 89 89 92 97 100 100 95 93 97 97 97 98 97 94 93 94 88 79 78 78 77 79 77 77 89 87 86 82 79 78 78 78 77 77 77 76 76
77 72 72 81 82 80 83 80 80 78 80 84 88 91 95 96 97 95 95 95 93 94 97 98 96 94 94 97 93 88 89 89 88 89 88 88 90 91 91 86 78 77 77 77 77 77 77 77 91
77 71 80 81 83 83 81 82 85 75 73 80 82 86 91 92 93 94 93 95 97 97 96 96 92 92 94 96 95 93 93 92 91 89 89 88 91 91 90 92 88 86 80 88 84 84 86 88 91
70 77 78 81 82 80 78 82 80 79 77 82 84 87 89 90 91 93 92 89 94 95 95 92 91 88 88 95 94 94 94 94 93 92 88 88 89 88 89 92 92 88 91 88 89 91 88 88 88
70 74 77 79 80 80 81 78 77 79 82 82 84 86 87 89 90 93 93 90 87 91 93 93 90 86 85 85 91 91 92 93 93 92 88 89 90 88 90 90 91 92 92 91 89 89 89 88 87
74 74 75 77 77 78 75 77 79 80 82 78 81 82 86 87 88 89 91 89 84 86 91 92 90 87 86 85 84 88 89 93 91 92 91 87 90 88 90 88 88 90 91 92 91 89 88 88 87
72 66 71 73 75 74 78 71 72 81 80 79 80 81 84 86 88 86 87 86 85 82 78 86 89 88 85 85 86 85 89 87 90 91 89 87 85 86 85 88 88 90 89 87 87 86 86 85 86
66 68 62 74 73 75 73 64 74 76 77 76 75 79 81 84 86 86 86 85 85 84 79 79 87 89 84 85 84 88 88 87 88 86 85 82 84 84 82 87 87 90 87 88 87 88 87 85 86
65 59 61 65 71 70 69 66 77 75 74 71 71 76 80 81 84 85 86 85 84 84 81 81 77 84 86 83 85 85 86 88 89 88 80 81 84 83 85 88 87 82 86 86 85 86 85 83 85
59 58 60 60 68 68 67 67 73 75 74 72 72 72 75 79 81 83 84 85 83 79 77 81 82 79 80 85 84 83 85 88 89 91 90 86 85 84 83 86 83 79 80 79 81 79 82 86 86
61 59 58 63 68 64 64 66 70 74 74 73 72 71 72 75 81 81 83 84 83 81 79 75 79 77 76 80 82 81 88 86 86 90 88 86 85 84 81 87 82 81 80 75 76 78 78 84 84
61 58 59 63 66 63 63 63 69 72 73 75 75 73 73 74 75 77 78 80 79 78 79 77 78 77 79 80 79 79 83 88 88 89 85 85 84 84 84 84 84 82 82 79 80 79 84 84 84
60 57 58 57 62 64 62 59 65 70 73 74 75 75 73 71 71 72 74 76 78 77 77 77 77 77 78 78 79 77 79 80 85 84 87 86 85 84 84 84 85 82 79 86 80 82 79 84 83
55 64 60 57 55 51 63 48 61 67 68 69 72 73 74 73 72 72 72 73 75 77 77 77 77 76 79 79 79 78 82 80 84 89 91 89 84 84 86 86 82 81 84 84 85 84 82 80 82
58 62 59 58 55 55 56 52 60 63 61 65 69 71 73 75 73 71 71 72 74 75 76 76 75 75 75 76 76 78 78 85 88 89 87 85 85 83 86 86 85 84 85 85 85 82 80 84 82
63 59 59 59 56 46 55 55 58 62 62 67 69 71 72 74 74 75 74 74 75 76 77 75 74 74 76 76 76 74 74 77 82 85 87 89 88 86 84 88 85 84 85 85 84 82 80 79 79
60 55 46 44 46 44 54 50 56 62 65 66 67 69 70 72 74 74 75 75 74 73 73 74 74 73 74 75 76 75 74 74 75 79 85 85 89 89 86 84 84 85 83 84 84 81 80 79 79
58 55 46 36 42 48 53 46 57 66 68 67 69 69 71 72 73 73 74 75 75 75 74 73 72 72 74 74 75 76 75 78 80 82 84 86 88 89 86 84 84 83 85 84 83 83 81 80 79
56 49 58 47 50 45 51 57 61 64 64 66 66 67 69 70 71 73 75 75 74 74 74 74 72 72 73 74 75 75 76 75 74 76 79 84 83 88 85 85 84 85 84 82 80 81 80 80 80
57 61 46 48 35 36 48 51 54 57 61 64 64 66 68 70 72 73 74 74 74 75 75 75 75 74 74 73 74 76 77 77 77 75 73 77 80 81 83 83 83 82 81 80 79 81 81 80 81
53 51 52 52 49 38 39 49 61 60 62 61 64 67 68 69 71 72 74 75 75 76 76 74 74 75 75 75 75 74 74 76 78 78 79 81 81 81 82 82 82 82 82 82 80 83 83 80 80
58 53 51 39 38 45 43 46 65 63 65 64 65 68 69 69 70 72 73 74 74 74 73 73 72 73 75 76 74 73 74 73 73 77 78 81 82 83 84 85 84 85 85 83 82 83 85 81 79

GFSSGP_sfc_temp_075.txt.gz
Temp
85 101 103 97 83 85 80 86 94 88 89 97 99 95 95 99 93 86 108 109 109 104 94 88 80 80 80 80 80 80 79 79 79 80 79 79 79 79 79 79 79 80 81 81 81 81 81 81 81
95 99 98 91 77 75 81 92 85 92 95 96 97 97 95 93 102 101 105 105 108 102 94 92 80 80 80 79 79 79 79 79 79 79 79 79 79 79 79 79 79 80 81 81 81 81 81 80 80
93 98 87 83 78 73 79 89 89 94 94 95 93 98 95 92 99 99 106 104 106 102 97 93 80 79 79 79 79 79 79 79 79 79 79 79 79 79 79 79 79 80 81 81 81 81 80 80 79
95 94 90 75 72 81 81 87 89 91 93 96 95 90 98 101 98 101 104 105 105 105 100 86 79 79 79 79 79 79 79 79 79 79 79 79 79 78 78 79 79 80 81 81 81 80 80 79 79
95 90 77 75 75 82 86 87 90 88 92 93 95 90 92 100 103 102 102 104 104 106 103 91 79 79 79 79 79 79 79 79 79 79 79 79 79 78 78 78 79 80 80 81 80 79 79 79 79
84 87 72 71 77 83 86 87 88 88 92 94 91 92 94 103 101 101 102 103 107 105 102 94 81 79 79 79 79 78 78 78 78 79 78 78 78 78 78 78 79 79 80 80 80 79 78 78 78
81 79 73 75 77 81 83 87 83 86 90 91 97 86 96 99 102 103 101 102 105 106 102 94 90 84 79 79 78 78 78 78 78 78 78 78 78 78 78 78 78 79 79 79 79 78 78 77 77
87 82 74 77 75 77 88 84 85 83 84 98 95 86 89 95 102 106 104 102 104 106 104 97 92 92 89 88 78 78 78 78 77 78 77 77 77 77 77 77 77 78 78 78 78 78 77 77 77
92 75 70 74 77 80 90 85 88 89 84 90 95 93 96 100 103 104 103 99 102 104 103 101 97 94 93 93 87 79 78 78 78 79 78 77 88 86 85 83 79 78 78 78 78 77 77 77 77
82 74 74 83 85 84 88 88 86 82 82 81 85 96 98 99 99 98 99 99 97 100 102 102 98 95 95 98 92 88 89 88 87 88 86 86 90 92 92 87 79 78 78 78 77 77 77 77 88
82 74 82 84 87 89 87 88 90 84 77 82 79 87 93 94 94 96 99 98 98 99 101 102 97 96 96 98 97 92 93 91 90 88 88 88 92 93 93 92 87 85 79 86 82 83 84 87 89
77 82 83 85 87 87 84 88 84 86 85 88 86 89 91 91 92 94 96 97 97 98 98 100 98 95 94 99 99 97 95 94 93 91 89 89 89 91 91 92 93 88 90 87 89 91 89 89 88
78 80 83 85 85 84 86 83 83 84 90 91 88 85 88 90 90 93 95 97 95 94 97 99 97 92 91 90 97 97 95 96 95 94 91 91 91 89 92 91 94 94 94 93 91 91 90 90 89
81 80 80 83 84 83 80 81 83 84 90 89 87 85 86 89 90 90 90 93 92 91 92 95 95 91 89 86 87 91 93 95 96 96 94 90 91 89 92 90 91 92 94 95 94 92 90 89 89
79 72 76 78 80 79 82 74 76 85 88 86 85 86 86 88 89 88 89 88 89 90 86 87 92 90 86 87 87 88 92 93 95 95 93 91 88 89 88 90 90 91 92 91 90 90 89 87 88
71 72 66 77 79 80 78 66 80 87 85 84 84 85 86 86 86 87 90 87 86 86 84 81 90 91 87 84 84 86 90 90 92 93 93 90 88 88 87 90 89 92 90 91 90 89 88 87 87
71 63 67 71 79 76 75 69 79 86 82 79 81 83 83 86 86 86 88 87 84 83 83 82 79 83 85 85 87 87 86 88 92 92 92 87 88 87 86 88 90 88 91 89 90 88 85 84 80
65 66 68 66 74 73 70 71 78 83 80 78 79 80 80 83 86 86 87 86 85 83 81 80 80 75 80 84 83 86 86 88 90 90 89 88 86 84 81 88 88 88 88 88 89 82 86 86 84
68 64 63 69 75 70 68 69 74 79 80 78 79 79 79 80 85 87 86 85 81 82 81 79 79 76 76 78 82 81 81 86 85 90 89 90 87 85 83 86 87 86 85 81 84 84 81 84 85
65 63 63 69 73 70 67 66 73 76 77 79 79 79 80 80 81 83 83 82 82 79 79 78 78 77 76 77 77 80 82 86 86 85 86 89 89 88 86 81 86 84 86 81 83 80 83 85 88
64 62 62 62 68 70 65 62 67 75 78 79 81 81 83 81 80 80 80 79 81 80 78 78 77 78 77 77 77 77 78 80 83 84 85 86 86 86 83 81 80 85 85 88 81 81 79 87 87
59 69 66 63 60 54 68 52 65 71 72 75 77 78 80 78 78 79 78 76 78 78 81 79 77 76 76 78 76 76 77 77 80 82 81 84 86 85 85 84 81 83 88 84 83 84 84 82 85
62 69 64 63 59 58 59 56 62 70 68 71 74 77 78 79 79 77 77 75 77 77 78 79 78 77 77 75 74 76 78 83 83 83 78 80 86 83 83 85 82 83 83 80 84 85 79 87 84
69 65 63 63 59 49 57 57 59 65 67 70 73 75 77 78 79 79 78 78 78 79 78 77 75 77 77 77 77 75 74 76 77 79 79 83 83 81 79 83 83 83 80 81 86 85 79 81 84
65 58 47 47 48 47 63 57 61 68 70 72 72 75 76 77 79 79 79 79 79 77 78 78 76 74 76 76 77 77 76 75 74 76 80 81 84 89 82 79 82 86 81 83 86 82 82 81 82
61 58 48 37 40 47 58 50 61 72 75 74 74 75 75 76 79 77 78 78 78 79 77 78 76 75 77 77 77 77 77 80 80 79 81 84 87 89 88 84 84 85 86 84 84 86 84 83 81
60 54 61 50 52 46 53 60 68 70 70 70 71 72 73 75 76 76 78 79 78 78 77 77 75 76 77 77 76 76 77 77 78 78 78 81 81 86 84 89 86 84 85 86 84 85 83 81 80
62 66 48 45 36 37 49 51 54 61 64 68 68 70 72 73 75 77 79 79 79 79 78 78 78 76 76 77 77 78 77 78 78 79 78 78 79 80 83 85 85 83 84 85 84 84 83 79 80
57 53 55 55 50 37 39 48 61 58 61 66 69 71 72 74 75 76 78 79 80 81 80 79 78 77 76 76 76 77 77 77 77 77 78 79 80 80 80 83 85 83 84 85 82 82 81 79 80
61 56 54 40 40 47 46 48 65 65 65 69 70 71 74 76 76 77 77 78 78 78 79 78 77 76 77 77 77 76 76 76 75 75 75 77 78 81 82 81 81 83 84 83 81 81 84 82 81

GFSSGP_sfc_temp_078.txt.gz
Temp
82 97 100 94 78 79 74 80 92 90 90 98 98 95 94 95 90 78 101 105 99 91 86 83 80 80 80 80 80 79 79 79 79 79 79 79 79 79 79 79 79 80 80 80 80 80 81 81 81
87 92 94 86 72 68 74 87 87 92 94 96 96 96 93 90 97 99 98 103 99 92 86 86 79 79 80 80 79 79 79 79 79 79 79 79 79 79 79 79 79 80 80 80 81 81 81 80 80
86 94 83 77 73 68 73 86 87 94 95 94 93 99 95 90 96 97 101 104 97 93 89 86 79 79 79 79 79 79 79 79 79 79 79 79 79 79 78 79 79 80 81 81 81 80 80 80 79
92 91 86 72 68 77 80 85 90 90 93 96 95 89 98 100 96 100 102 104 104 97 93 81 79 79 79 79 79 79 79 79 79 79 79 79 79 78 78 79 79 80 81 81 80 80 79 79 79
92 85 72 70 72 79 84 88 89 86 90 92 94 89 92 98 102 102 101 103 103 100 95 84 79 79 79 79 79 79 79 79 79 79 79 79 78 78 78 78 79 80 80 80 80 79 79 79 78
79 83 68 65 72 81 85 88 87 87 88 90 92 91 93 101 99 102 102 102 105 101 93 86 80 79 78 79 78 78 78 78 78 79 79 78 78 78 78 78 79 79 79 80 79 79 78 78 77
76 73 68 71 72 77 84 89 84 84 85 86 93 86 93 96 100 103 103 101 103 103 92 86 83 81 79 78 78 78 78 78 78 78 77 78 78 78 78 78 78 79 79 79 79 78 77 77 77
82 77 69 72 72 74 86 87 88 85 83 94 96 84 86 94 100 103 105 102 102 104 94 88 84 85 82 81 78 78 78 78 77 77 77 77 77 77 77 77 77 78 78 78 78 78 77 77 76
88 71 66 70 73 77 87 85 89 90 85 88 91 90 93 99 100 99 100 101 101 102 95 92 89 86 85 85 81 78 78 78 78 78 77 76 80 79 79 79 79 78 78 78 77 77 77 76 76
78 71 71 79 81 80 85 86 88 83 82 83 86 92 95 98 95 93 95 96 96 99 99 93 90 87 87 92 82 81 82 81 80 81 78 79 80 80 84 82 79 78 78 77 77 77 77 77 77
79 71 79 82 85 86 84 85 90 86 79 83 81 85 91 93 89 89 91 94 95 97 99 95 87 86 88 90 85 83 84 83 81 81 80 79 82 81 83 80 79 76 77 78 77 76 76 77 78
74 80 81 83 85 85 82 87 84 86 86 89 89 89 88 89 88 88 88 90 95 95 94 94 91 86 85 90 88 85 85 84 83 82 81 79 79 80 81 81 80 77 79 76 77 78 78 77 79
76 79 82 85 85 84 85 82 82 84 90 93 91 88 86 86 88 88 89 88 89 90 90 94 89 86 85 86 88 86 85 86 85 83 83 82 82 79 82 82 82 81 81 79 79 79 79 79 80
81 81 81 83 82 83 79 80 81 84 90 89 89 85 86 85 84 86 87 85 84 85 85 83 88 83 86 85 85 85 84 86 86 85 84 83 82 80 82 81 81 81 82 82 81 79 79 79 79
79 72 76 78 79 77 81 74 75 84 87 85 86 87 86 86 88 85 86 81 83 81 81 81 82 83 81 81 83 83 83 88 86 86 84 83 83 82 81 81 79 80 79 81 80 80 79 78 78
71 71 63 75 78 79 77 65 78 85 83 82 84 86 87 86 87 88 85 79 79 82 81 81 85 82 81 81 81 82 83 83 83 83 85 83 82 82 81 80 79 80 79 78 78 78 77 76 76
68 60 64 69 80 78 76 68 78 84 82 81 83 84 86 85 86 84 85 80 77 78 79 80 81 80 81 79 81 80 81 80 81 82 82 84 83 82 80 80 79 79 78 77 78 77 77 75 76
61 64 67 67 75 76 72 70 76 80 80 79 81 81 81 82 83 85 84 82 77 77 77 78 76 76 77 77 78 79 80 80 81 80 80 82 81 82 79 79 78 78 77 76 77 76 77 77 76
69 65 63 68 75 71 70 70 73 77 78 79 79 78 79 80 84 86 84 81 79 76 75 76 75 74 75 76 75 76 78 77 79 80 80 80 79 81 78 79 77 77 77 76 76 76 76 74 76
67 62 61 68 73 70 68 67 73 75 75 77 79 79 78 80 81 83 81 81 76 76 77 75 75 74 73 75 74 74 76 79 80 80 79 80 80 79 78 77 77 76 78 75 75 74 75 75 76
64 61 61 61 68 70 67 63 66 73 75 77 79 81 81 80 79 79 80 77 80 76 73 75 75 74 74 74 73 72 72 74 75 75 78 79 80 80 78 77 77 77 77 78 75 75 74 72 76
58 69 67 64 60 52 67 50 62 69 71 75 78 78 79 80 82 79 78 76 77 79 80 75 74 73 74 74 74 72 70 68 74 76 72 77 80 80 80 78 78 76 78 76 76 77 74 72 67
63 70 65 63 59 57 58 52 59 68 66 71 75 77 79 80 79 78 79 78 78 78 77 76 76 73 72 71 71 71 71 70 71 73 74 75 77 78 80 78 77 76 76 75 76 75 72 72 69
72 65 63 62 58 47 54 54 56 62 67 71 76 77 78 79 79 78 79 78 76 77 76 76 75 73 75 72 72 70 70 70 70 70 70 72 74 78 77 79 77 76 76 76 75 73 74 74 75
67 58 45 44 45 44 59 55 52 64 71 72 72 74 76 78 78 77 76 76 75 75 76 75 73 71 72 73 72 71 69 70 70 70 70 70 72 74 75 76 73 76 76 76 73 72 73 78 76
61 57 45 33 38 43 55 46 55 69 73 76 76 75 76 76 77 77 78 77 78 78 76 76 74 73 72 73 73 73 72 70 70 70 71 72 73 74 75 76 76 76 76 74 75 74 73 75 78
59 53 61 47 47 39 48 55 66 70 69 72 72 73 73 74 75 77 78 77 77 76 76 75 73 72 74 73 73 72 71 71 72 71 71 72 72 76 76 76 74 76 77 77 77 77 77 76 76
60 65 47 49 32 31 43 45 49 58 61 67 69 70 71 74 75 76 76 76 77 78 76 75 75 73 73 74 74 73 72 73 72 72 71 72 72 74 74 74 74 76 78 78 78 76 78 77 78
56 49 46 48 49 37 35 43 59 58 59 63 68 71 72 73 74 76 77 78 79 79 79 75 74 75 74 74 73 72 72 73 72 71 72 72 72 73 75 75 75 75 77 78 77 76 77 77 77
61 52 47 36 34 39 39 40 62 60 61 55 57 68 73 75 75 77 77 77 77 77 77 76 75 76 75 73 72 72 72 72 70 70 71 72 71 73 74 75 76 76 77 78 78 78 79 78 75

GFSSGP_sfc_temp_081.txt.gz
Temp
77 83 83 79 63 60 56 65 79 78 76 79 85 85 80 82 78 66 85 87 84 79 78 80 80 80 80 80 79 79 78 79 79 79 79 79 79 79 79 79 79 79 80 80 80 80 80 80 80
76 83 81 73 57 50 57 74 71 77 80 84 87 86 82 78 89 87 85 86 84 80 77 77 79 80 80 79 79 78 78 78 79 79 79 79 78 78 78 78 79 80 80 80 80 80 80 80 80
81 83 69 64 56 53 61 72 77 82 85 85 83 89 85 80 88 87 89 87 84 80 79 78 79 79 80 79 79 78 78 78 79 79 79 79 78 78 78 78 79 80 81 81 81 80 79 79 79
81 76 71 57 56 66 70 73 79 82 83 88 86 82 87 90 88 91 94 88 84 81 81 79 78 79 79 79 79 79 78 78 79 79 79 78 78 78 78 78 79 79 80 81 80 79 79 79 78
77 70 57 53 59 70 78 79 79 77 79 81 83 81 80 88 92 91 93 93 85 83 81 78 78 79 79 79 79 79 78 78 78 79 78 78 78 77 77 78 78 79 80 80 79 79 78 78 77
67 68 54 50 60 71 78 81 82 81 79 81 81 82 79 87 90 88 92 88 90 85 79 78 78 78 79 79 79 78 78 78 78 78 78 78 77 77 77 78 78 79 79 79 79 78 77 77 77
64 59 54 58 62 68 75 81 81 82 81 81 82 77 78 85 88 89 88 89 88 86 80 77 77 78 78 78 78 78 77 77 77 77 77 77 77 77 77 77 78 78 78 78 78 77 77 77 76
69 63 57 62 61 63 76 75 77 76 82 92 90 77 72 80 89 90 87 86 84 83 80 77 75 75 75 76 78 77 77 77 77 77 77 77 77 77 77 76 77 78 77 77 77 77 77 76 76
72 59 56 59 63 67 77 73 79 84 78 82 88 87 88 90 88 86 87 88 83 83 79 78 76 75 74 74 77 77 78 77 77 77 77 75 72 73 75 75 77 77 77 77 77 77 76 76 76
65 56 59 68 71 70 75 76 76 76 76 75 80 87 91 88 84 81 82 82 86 81 80 80 79 76 76 82 74 73 76 75 74 74 74 72 71 71 76 76 78 77 77 77 77 76 76 76 70
66 60 67 71 75 77 75 76 81 75 68 75 76 81 87 86 82 80 82 81 81 85 84 82 80 79 79 81 74 74 72 71 71 73 72 71 73 72 74 71 73 70 76 73 74 73 72 71 70
60 70 72 74 77 76 74 77 76 76 74 81 82 84 83 81 79 79 80 81 81 81 83 83 82 81 83 78 76 76 75 74 72 72 72 71 69 71 72 71 71 70 70 70 69 69 70 71 73
63 67 74 76 74 72 76 74 73 75 81 81 84 83 82 79 79 80 83 81 81 79 78 79 81 82 83 78 78 77 77 77 75 75 74 73 70 70 72 72 72 72 72 70 69 70 72 73 74
67 68 68 70 69 70 70 70 72 77 79 80 80 79 78 79 79 77 78 79 79 79 78 79 79 82 83 80 79 78 77 75 77 77 77 74 74 73 73 73 74 74 73 74 73 73 73 74 74
68 60 65 67 68 66 71 65 68 76 79 76 78 77 77 78 80 77 77 76 77 77 77 74 76 78 81 80 78 79 78 77 79 78 78 78 76 75 74 74 74 73 74 73 73 73 72 71 72
59 57 49 62 69 71 66 57 70 74 74 73 76 77 77 75 77 77 77 73 73 74 75 75 82 76 77 78 76 78 79 77 78 77 79 79 78 76 75 74 75 74 74 74 72 72 71 69 70
53 46 51 59 70 69 66 61 71 75 74 70 71 74 78 75 73 73 73 72 71 72 74 74 74 74 76 76 74 75 77 77 78 77 76 79 79 77 76 75 73 74 74 72 71 71 70 70 69
48 50 56 56 64 67 62 63 68 71 70 68 69 70 72 74 73 73 70 72 70 70 70 71 70 70 72 74 75 73 74 75 76 77 75 76 79 80 76 74 74 73 72 72 70 72 70 71 70
60 58 55 60 67 62 60 59 64 68 66 65 65 67 68 71 74 73 72 70 68 67 68 68 70 68 69 71 71 74 73 73 73 75 76 76 76 77 77 74 72 72 71 71 71 71 70 69 71
60 55 52 59 65 63 58 57 63 65 65 65 66 66 66 66 70 73 68 68 67 66 66 67 68 69 68 68 71 73 77 75 75 75 75 76 75 75 75 74 73 73 72 71 70 70 67 68 72
57 54 53 54 61 62 57 54 57 65 66 69 70 72 69 66 66 67 69 66 66 66 66 66 66 67 69 69 67 65 69 71 72 70 74 75 76 75 75 74 75 74 72 72 71 71 71 67 68
50 62 62 59 51 40 56 40 53 58 62 66 69 71 72 67 68 68 70 66 66 65 66 66 66 66 68 69 66 67 67 68 72 72 71 74 75 75 75 75 75 75 75 75 73 72 71 68 66
56 64 59 57 48 45 48 40 51 56 56 62 67 69 71 72 66 68 63 66 66 66 65 65 65 65 65 66 66 63 62 66 67 69 71 72 73 74 75 75 75 75 76 76 71 69 69 70 66
67 59 56 50 45 38 47 45 47 52 56 59 64 70 70 66 66 66 66 66 66 67 67 65 64 64 64 64 65 63 63 65 66 66 67 67 70 72 73 76 75 76 75 74 73 71 71 72 74
61 51 37 32 32 35 50 47 49 54 62 65 63 65 65 66 65 66 64 63 63 64 65 63 64 63 63 64 64 64 63 66 66 65 65 67 66 68 70 72 73 75 76 75 72 71 72 73 73
53 47 37 29 26 35 47 37 45 59 65 66 71 66 69 65 62 64 65 65 63 64 64 64 64 62 63 63 64 64 66 64 64 67 67 67 65 67 70 71 73 73 74 74 73 73 73 69 67
51 46 48 39 40 30 36 45 55 58 59 60 65 67 61 62 62 64 63 64 64 65 66 64 63 63 64 65 64 64 65 64 64 67 67 66 68 71 71 71 70 71 72 71 72 74 73 70 70
54 55 39 36 28 25 33 40 41 49 53 56 57 60 63 62 61 63 64 64 65 65 64 65 65 65 65 65 64 64 63 65 65 66 65 67 67 68 69 70 69 68 69 72 70 71 71 70 71
48 39 40 37 32 28 26 32 52 48 51 51 53 55 57 58 62 63 64 65 65 65 64 64 63 63 63 64 64 63 64 65 64 64 64 65 65 67 67 68 68 69 69 68 71 71 72 71 71
51 42 37 31 29 34 31 31 55 51 52 53 53 56 58 59 59 58 60 68 66 64 65 64 63 65 65 64 64 63 62 62 63 62 63 64 65 66 67 68 69 70 71 69 68 72 75 72 72

GFSSGP_sfc_temp_084.txt.gz
Temp
72 78 76 75 62 58 55 61 69 72 74 78 80 77 74 78 75 65 79 84 80 77 78 79 80 80 79 79 79 78 78 78 78 78 78 78 78 78 78 78 78 79 80 80 80 80 80 80 80
74 80 76 67 56 50 57 67 68 70 77 77 77 78 78 74 83 78 78 82 81 77 77 78 79 79 79 79 78 78 78 78 78 78 78 78 78 78 78 78 79 80 80 80 80 80 80 80 80
81 79 66 59 51 51 57 66 68 76 79 79 77 82 79 77 84 83 82 82 79 76 77 78 79 79 79 79 78 78 78 78 78 78 78 78 78 78 78 78 79 80 80 80 80 80 79 79 79
76 73 66 55 52 61 64 69 73 76 79 80 80 76 83 86 84 85 84 83 79 76 77 78 79 79 79 79 78 78 78 78 78 78 78 78 78 77 77 78 78 79 80 80 80 79 78 78 78
72 63 55 50 54 63 72 76 73 75 73 76 80 75 76 86 88 85 83 84 79 77 77 78 78 79 79 79 79 78 78 78 78 78 78 78 78 77 77 78 78 79 79 80 79 78 78 77 77
64 60 49 46 55 65 71 76 75 76 77 75 76 77 76 82 84 83 84 82 82 78 76 77 78 79 79 79 78 78 78 78 78 78 78 77 77 77 77 77 78 78 78 79 78 78 77 76 76
61 53 48 50 55 61 70 75 76 79 79 80 81 73 77 82 81 84 86 83 82 80 76 76 76 78 80 78 78 77 77 77 77 77 77 77 77 77 77 77 77 78 78 78 77 77 76 76 76
64 57 52 55 56 57 72 73 74 75 79 92 88 72 70 77 83 84 82 81 80 78 77 74 75 76 78 79 78 77 77 77 77 77 76 76 76 76 77 76 77 77 77 77 77 77 76 76 76
68 50 46 51 58 62 72 66 74 80 78 81 89 83 84 84 84 83 78 77 76 78 74 73 74 74 75 79 78 77 78 77 77 77 76 75 72 73 74 75 76 77 77 77 77 76 76 76 76
60 49 53 63 64 63 70 71 72 74 74 74 77 84 86 83 80 79 76 75 75 74 74 74 73 73 74 78 77 77 78 77 75 75 74 72 70 69 74 74 77 77 77 77 76 76 76 76 69
58 53 60 65 68 70 70 70 75 73 68 73 75 80 81 79 78 78 79 77 77 78 78 75 74 73 75 76 74 74 75 74 73 73 72 70 70 70 70 68 71 69 75 71 74 72 71 69 68
54 64 65 68 71 70 69 74 72 72 73 79 79 80 79 77 77 79 78 78 77 78 79 78 77 72 74 74 73 73 72 71 71 72 71 69 66 66 67 67 68 68 68 69 69 67 67 68 69
53 61 66 69 69 69 73 71 71 72 76 79 80 80 78 76 76 77 80 78 75 77 77 78 77 77 73 73 73 73 73 73 72 70 71 70 67 66 67 68 68 68 67 69 68 66 67 67 69
60 61 63 65 64 63 65 67 66 73 74 75 76 76 76 76 75 75 75 75 75 74 75 76 78 76 74 75 75 74 75 74 73 73 73 72 71 69 69 68 69 68 69 71 70 67 67 67 69
62 56 59 60 62 61 64 62 64 71 73 72 73 73 75 75 75 75 77 75 74 73 74 73 75 79 75 78 77 76 76 76 75 75 74 73 72 71 69 70 70 73 70 70 69 69 68 68 69
54 50 45 57 63 66 63 55 66 71 69 69 72 71 74 73 75 74 74 72 71 72 71 73 81 79 78 76 77 79 78 76 77 77 75 75 74 74 72 73 71 72 70 70 70 69 67 67 68
46 41 47 54 63 63 61 58 67 70 69 68 68 69 70 70 71 72 74 72 70 70 70 70 72 74 78 76 76 75 72 72 77 78 76 76 76 75 74 74 75 72 71 71 71 68 69 67 68
44 44 50 50 58 59 55 56 62 66 66 67 65 66 67 67 69 71 70 69 67 67 67 68 68 69 70 72 72 73 73 71 70 71 76 77 77 77 76 76 73 72 71 71 69 69 69 68 69
54 51 49 54 62 56 54 55 58 63 62 62 62 63 64 65 68 69 68 67 66 65 64 64 66 65 67 70 69 68 69 73 70 69 72 72 74 76 76 77 71 71 71 70 70 69 69 67 68
55 51 49 55 61 57 55 54 58 61 62 63 63 63 63 63 66 68 64 64 66 65 64 63 64 65 65 66 67 68 68 69 76 74 72 71 72 74 76 76 73 71 71 70 69 68 67 67 67
54 50 49 51 56 55 52 48 53 59 61 64 64 64 65 63 65 65 64 63 62 62 62 63 63 63 63 65 65 64 64 67 68 68 74 73 72 74 73 74 75 73 73 73 69 69 69 67 67
47 58 58 55 48 40 51 38 47 54 56 60 63 62 62 64 65 63 65 62 63 64 62 62 62 63 65 64 63 62 61 61 63 65 73 77 74 73 73 73 74 71 71 73 69 71 72 67 65
54 61 56 54 46 41 44 39 42 51 53 58 62 65 66 65 68 63 65 67 61 62 62 62 62 62 62 62 62 61 60 61 62 63 64 68 72 74 73 71 71 70 69 69 71 69 68 69 67
63 55 51 47 41 35 41 41 45 47 52 54 59 62 65 63 68 64 63 64 62 62 62 60 60 60 62 62 61 60 59 60 60 61 64 65 67 70 75 76 72 71 70 70 69 69 69 71 72
53 43 32 33 31 34 45 40 46 52 57 59 58 60 60 59 58 61 62 63 64 62 59 60 61 61 61 60 60 60 60 60 60 60 61 63 64 64 65 69 70 71 73 72 71 69 70 71 72
49 46 37 28 25 33 43 33 42 55 58 60 60 61 63 61 59 63 65 67 65 62 60 61 60 60 60 61 62 61 61 59 60 61 61 60 62 63 66 67 69 70 71 71 71 69 68 69 70
49 44 53 41 42 31 33 39 50 56 58 58 55 56 56 60 64 63 64 62 62 62 60 62 60 60 60 61 60 60 61 60 60 61 61 62 63 67 68 69 66 69 69 69 69 68 69 69 69
53 52 39 36 27 26 32 34 36 46 49 54 55 52 52 53 55 57 59 61 62 61 61 60 62 64 63 61 60 61 61 62 61 60 61 62 63 65 66 68 67 67 67 69 68 68 69 69 68
45 41 36 34 30 27 23 29 45 47 50 50 53 55 50 53 55 54 59 59 61 60 58 60 62 63 61 61 61 60 60 61 61 60 60 61 62 64 65 66 67 67 67 67 65 66 68 69 69
48 40 37 28 29 31 30 30 52 54 52 52 55 56 54 54 57 57 58 56 57 59 58 59 62 63 64 65 62 60 59 59 58 59 60 60 60 62 63 65 65 66 66 66 66 66 69 69 69

GFSSGP_sfc_temp_087.txt.gz
Temp
71 76 74 73 62 57 52 58 65 67 70 76 76 74 73 73 71 64 77 81 79 76 77 78 79 79 79 79 78 78 78 78 78 79 79 78 78 78 78 78 78 79 79 79 80 80 80 80 80
73 78 74 64 54 50 55 62 64 66 72 76 79 77 75 72 80 77 75 79 80 77 76 77 79 79 79 78 78 78 78 78 78 78 78 78 78 78 78 78 79 79 80 80 80 80 80 80 80
78 76 65 57 49 52 57 64 65 71 74 75 71 79 77 75 80 80 79 80 78 76 76 77 79 78 79 78 78 78 78 78 78 78 78 78 78 78 78 78 78 79 80 80 80 80 79 79 79
74 69 63 53 51 59 64 68 68 72 74 78 74 74 79 82 81 82 80 80 77 75 76 78 78 78 78 78 78 78 78 78 78 78 78 78 78 77 77 78 78 79 80 80 80 79 79 78 78
69 62 52 47 52 61 69 73 71 70 68 74 76 72 73 83 83 80 79 80 75 74 75 78 78 78 78 79 78 78 78 78 78 78 78 78 77 77 77 78 78 79 79 79 79 78 78 77 77
63 58 47 45 54 63 67 72 74 71 72 73 74 74 74 81 79 79 80 78 77 75 75 78 78 78 78 78 78 77 77 77 77 77 78 77 77 77 77 77 78 78 79 79 79 78 77 76 76
57 53 47 47 54 59 66 72 71 73 75 74 78 71 73 76 79 80 80 79 78 76 76 78 77 78 78 78 77 77 77 77 77 77 77 77 77 77 77 77 77 78 78 78 77 77 76 76 76
62 57 48 53 54 56 67 69 69 70 75 85 83 70 69 75 78 77 79 77 76 74 75 77 77 76 75 76 78 77 77 77 77 77 76 76 76 76 76 76 76 77 77 77 77 77 76 76 76
62 49 45 51 56 61 65 64 69 75 72 78 82 78 80 81 78 76 74 73 72 74 72 75 76 74 75 76 77 77 78 77 77 77 76 75 72 72 74 74 76 77 77 77 77 76 76 76 76
56 46 50 58 62 60 65 63 70 69 71 70 76 81 81 79 75 73 71 71 71 73 72 72 76 76 74 78 76 75 78 77 75 75 74 73 71 70 73 73 76 77 77 77 76 76 76 75 68
52 50 56 62 65 65 64 65 69 69 67 70 72 75 77 75 74 73 71 72 73 74 75 72 73 76 75 76 76 78 78 77 76 75 74 71 71 70 70 67 70 68 74 69 72 71 70 69 67
51 60 60 63 67 64 64 70 68 67 70 75 78 76 77 75 72 72 73 73 72 74 76 73 71 72 72 74 76 77 77 76 75 74 72 70 69 67 67 66 65 66 66 67 66 66 67 68 68
52 57 62 65 63 62 66 65 67 69 73 76 76 77 74 76 75 74 73 73 72 73 76 75 73 71 70 72 74 75 75 74 73 72 71 69 67 67 66 66 65 65 65 65 65 65 66 66 67
57 57 58 60 62 59 61 64 62 67 72 72 73 74 75 71 75 74 72 70 71 73 75 76 75 73 71 73 72 72 73 72 72 72 72 70 69 66 64 65 67 65 65 66 66 66 65 65 67
57 52 56 57 59 59 61 58 60 67 68 69 70 71 72 74 72 74 74 71 73 72 74 72 73 75 73 74 74 70 73 72 72 72 72 72 70 67 67 66 65 69 66 67 67 66 66 65 67
51 47 42 54 58 63 61 51 63 68 65 65 68 68 70 70 73 72 74 71 70 69 70 73 78 75 74 75 75 75 70 73 72 73 73 72 72 71 68 69 70 69 67 67 67 67 67 66 66
44 38 43 51 58 59 58 52 62 65 63 63 64 66 67 68 69 68 71 71 69 70 69 69 71 74 75 76 76 76 72 71 73 72 71 73 74 73 72 72 72 69 68 67 68 67 68 67 66
40 41 46 46 55 55 54 52 58 63 61 61 61 62 62 64 67 70 68 70 68 66 66 66 66 68 71 71 70 70 69 69 69 70 70 73 73 74 72 73 71 72 68 67 67 67 67 68 67
50 47 46 52 59 53 52 52 55 59 58 59 60 59 60 61 66 67 66 65 64 63 63 65 65 65 67 68 68 67 70 68 68 70 72 73 72 73 70 73 71 70 71 71 69 67 68 67 67
49 46 46 52 57 52 52 51 55 57 58 59 60 60 60 60 63 66 65 62 62 63 62 61 63 62 63 66 66 67 67 68 68 69 69 71 71 72 72 70 70 70 69 69 68 67 66 67 66
49 45 46 48 54 53 50 46 51 56 57 61 61 62 61 61 61 62 65 62 61 61 61 62 61 62 62 64 63 62 63 64 65 66 67 68 70 70 70 70 69 69 69 67 66 67 67 66 66
44 54 55 52 46 40 50 40 45 51 53 56 59 59 60 61 62 61 62 61 60 62 59 60 61 61 62 62 62 62 61 61 63 63 65 69 69 69 71 72 70 70 70 68 67 68 68 66 64
50 57 52 51 44 38 41 36 41 49 50 55 57 59 59 60 60 61 61 65 65 62 62 61 59 59 59 59 60 59 58 59 60 60 61 64 67 70 72 72 71 70 69 68 67 66 66 66 66
59 51 47 42 38 31 41 40 40 44 51 52 56 59 61 60 61 60 64 66 62 58 58 57 58 58 59 60 59 59 59 58 57 58 60 62 63 66 68 70 69 71 70 68 67 67 66 66 67
50 40 29 28 29 31 42 37 40 49 56 56 55 58 60 59 57 57 56 57 57 60 58 58 58 57 59 60 59 59 59 58 58 58 57 58 59 61 63 66 69 69 70 73 76 72 71 67 66
45 43 34 25 25 34 41 32 41 52 56 57 55 53 54 55 54 56 56 57 57 56 56 58 57 57 57 58 59 59 59 58 58 58 58 58 58 59 61 63 64 68 69 68 69 69 68 66 68
46 41 45 36 33 24 32 38 47 51 52 53 54 55 52 52 53 55 56 58 61 60 58 59 58 60 59 59 58 57 58 58 58 59 59 59 59 62 63 64 64 65 65 67 67 67 67 67 67
52 52 37 34 26 25 29 31 35 43 46 51 52 51 53 54 54 53 56 57 58 58 59 56 58 60 60 59 58 60 58 59 59 58 59 59 60 61 62 63 64 65 65 65 66 64 66 66 67
45 40 38 37 34 27 26 28 41 43 47 47 48 51 53 53 53 53 53 55 57 58 60 62 59 57 58 58 58 58 58 59 59 58 59 60 60 61 62 63 63 63 64 64 64 63 64 66 66
47 42 37 26 26 33 28 30 49 49 48 47 47 53 59 60 57 55 58 57 59 57 58 58 58 60 60 62 58 60 58 58 57 58 58 58 59 60 61 62 63 63 64 63 63 63 64 65 64

GFSSGP_sfc_temp_090.txt.gz
Temp
72 75 73 73 62 57 49 55 62 65 67 69 72 71 70 72 71 63 74 79 77 76 77 78 79 79 79 79 78 78 78 78 79 79 79 79 78 78 78 78 78 79 80 80 80 80 80 80 80
74 77 72 64 55 51 53 59 60 64 70 72 72 71 72 70 77 75 74 78 78 76 76 76 79 79 79 78 78 78 78 78 78 78 78 78 78 78 78 78 79 80 80 80 80 80 80 80 80
76 75 65 56 49 52 57 62 60 69 73 71 70 75 73 73 80 78 77 78 76 75 75 76 78 78 78 78 78 78 78 78 78 78 78 78 78 78 78 78 78 80 80 80 80 80 80 79 79
72 69 62 52 50 59 61 67 66 68 74 74 72 71 76 80 78 77 78 78 76 75 75 78 78 78 78 78 78 78 78 78 78 78 78 78 78 77 77 78 78 79 80 80 80 79 79 78 78
68 61 51 45 52 61 65 67 71 69 68 72 73 69 72 79 78 77 76 78 74 75 74 77 78 78 78 78 78 78 78 77 78 78 78 78 77 77 77 78 78 79 79 80 79 78 78 77 77
62 58 46 45 54 62 66 68 69 72 71 73 74 71 72 77 76 75 77 75 75 74 75 78 78 78 78 78 78 77 77 77 77 77 78 77 77 77 77 77 78 78 78 79 79 78 77 76 76
57 52 48 45 52 58 65 69 64 67 71 69 74 68 72 77 78 76 75 74 74 74 75 78 78 77 78 77 77 77 77 77 77 77 77 77 77 76 77 77 77 77 78 78 77 77 76 76 76
57 53 48 51 53 55 64 66 65 65 70 82 79 68 67 76 75 76 74 72 71 73 76 77 78 75 74 75 77 77 77 77 76 76 76 76 76 76 76 76 76 77 77 77 77 76 76 76 76
59 46 43 46 52 57 63 60 65 70 69 72 77 76 79 76 74 72 70 69 70 72 75 78 78 76 74 74 76 77 78 77 77 77 76 75 74 74 75 75 76 77 77 77 76 76 76 76 76
55 44 48 55 56 58 59 60 64 64 67 67 72 79 78 77 72 72 70 69 69 70 73 76 78 77 73 76 74 74 75 75 74 74 74 72 71 71 73 74 76 77 77 77 76 76 76 76 72
52 49 54 59 61 62 60 62 65 62 63 67 68 70 75 73 71 69 70 71 72 73 73 75 76 76 74 75 75 75 74 76 76 75 75 71 71 71 72 70 71 71 75 72 74 74 73 72 71
50 58 59 59 63 60 60 64 62 63 66 72 74 74 74 73 71 69 69 70 71 72 73 73 74 74 75 74 76 76 74 76 76 76 75 72 69 68 68 68 68 68 68 69 69 70 70 71 71
50 54 59 62 60 60 63 61 61 61 69 72 73 71 73 72 71 71 71 70 69 71 73 72 73 73 73 73 76 76 75 76 77 76 75 72 69 68 68 67 67 67 67 67 67 68 69 69 70
54 54 57 59 59 58 58 61 60 64 68 70 69 69 69 71 72 69 70 71 68 71 72 73 72 72 72 73 74 74 75 77 76 76 74 72 71 69 67 67 67 67 67 67 68 68 68 68 69
53 49 54 56 59 58 58 57 57 65 67 66 67 69 69 69 70 70 72 71 72 71 73 72 72 73 72 73 73 72 74 76 74 74 72 72 71 70 69 69 68 69 68 68 68 68 68 68 69
47 45 39 52 55 60 59 49 62 63 60 61 63 65 67 69 70 69 70 69 69 68 69 72 76 73 72 73 73 72 71 73 73 72 72 72 71 71 69 69 70 71 68 68 68 68 68 68 68
42 37 39 49 55 55 54 48 60 62 62 60 60 61 62 63 66 67 68 67 68 68 68 67 71 71 72 72 74 72 70 71 72 72 72 72 72 72 69 69 69 69 69 68 69 69 69 68 67
38 39 43 44 53 51 49 49 56 60 57 59 58 59 59 60 63 66 66 65 66 67 66 66 69 71 71 72 69 69 68 68 68 69 70 72 72 73 71 70 69 70 70 69 68 69 68 69 69
46 44 43 48 56 49 49 49 53 57 56 57 58 58 59 59 62 64 65 63 62 62 63 64 65 66 69 68 69 68 69 68 68 69 71 72 71 72 70 72 71 70 70 69 69 70 69 69 70
47 43 42 48 53 49 48 47 52 54 56 58 59 59 59 60 61 64 63 63 61 60 60 61 63 64 69 70 70 68 69 68 70 69 70 71 72 71 71 70 70 70 69 69 69 69 68 68 69
46 42 43 45 51 49 47 44 49 55 54 58 58 59 58 59 60 61 62 63 61 60 59 60 61 62 64 66 64 62 64 66 66 67 68 70 71 72 72 71 69 69 69 68 68 66 67 65 67
42 51 52 49 43 36 46 37 44 50 53 55 58 56 57 59 59 58 60 59 61 63 59 60 60 62 64 64 65 64 64 63 64 65 67 68 70 70 70 70 70 68 67 66 66 68 67 65 66
48 54 50 48 41 36 40 32 40 45 47 52 56 57 57 58 58 59 60 60 61 62 60 59 59 59 60 63 65 64 62 61 61 62 64 65 67 69 70 68 69 69 67 65 65 65 66 67 66
56 48 44 38 36 29 39 36 37 42 48 52 57 57 57 57 58 60 62 60 60 59 60 58 58 58 58 59 59 60 60 59 58 59 61 61 63 66 68 70 69 67 67 66 65 65 67 66 66
47 39 29 28 28 32 39 35 38 47 54 52 52 54 55 55 52 55 57 59 61 55 57 59 60 59 57 58 58 58 58 58 58 58 58 59 61 62 64 68 67 68 68 68 68 68 66 65 65
45 42 32 25 26 34 39 31 38 49 53 53 53 53 54 54 56 55 55 54 55 55 55 58 59 56 57 58 59 59 59 59 59 59 58 59 59 61 63 64 65 68 69 70 69 68 67 67 66
44 38 44 35 32 22 32 38 45 49 50 51 52 52 51 51 53 54 55 55 54 54 54 55 57 58 58 60 60 59 60 58 58 59 59 60 60 62 62 64 64 66 67 68 68 67 67 66 66
49 51 37 34 26 24 28 31 35 43 45 48 49 49 50 52 55 54 54 54 57 56 55 56 56 57 58 58 59 60 59 59 60 59 60 60 61 62 64 64 65 65 66 67 67 66 67 67 66
43 38 38 37 34 25 22 28 41 43 44 44 45 47 47 50 53 55 54 53 53 55 56 58 57 57 57 57 58 57 58 59 60 60 60 60 61 62 63 64 64 65 65 65 65 65 66 66 66
45 41 38 30 27 29 28 29 49 46 45 44 45 47 49 50 51 51 55 54 54 55 56 56 58 60 62 62 60 59 60 59 58 59 59 60 61 62 63 63 64 65 65 65 64 65 66 65 65

GFSSGP_sfc_temp_093.txt.gz
Temp
82 88 88 89 77 76 70 71 76 77 78 84 83 82 81 82 80 78 86 90 88 86 86 84 79 80 80 79 79 79 79 79 79 79 79 79 79 79 79 79 79 79 80 80 80 81 81 80 80
84 87 88 82 72 66 69 73 73 77 81 84 83 83 82 79 86 85 85 88 89 86 85 86 79 79 79 79 79 78 79 79 79 79 79 79 79 79 79 79 79 80 80 80 81 81 81 80 80
85 83 81 74 68 66 68 73 75 80 84 83 83 86 84 83 88 89 88 87 88 85 86 85 79 79 79 79 78 78 78 79 79 79 79 79 78 78 78 78 79 80 81 81 81 80 80 80 80
83 84 77 68 64 67 71 75 78 80 85 87 84 81 88 90 88 88 88 87 87 87 87 82 79 78 79 79 78 78 78 78 79 79 79 78 78 78 78 78 79 80 80 81 80 79 79 79 79
81 78 69 63 63 66 73 76 79 78 81 83 86 81 84 90 86 86 86 87 86 86 88 85 78 78 79 79 78 78 78 78 78 78 78 78 78 77 77 78 78 79 80 80 80 79 78 78 78
75 75 63 60 63 67 73 78 78 78 80 82 82 82 85 91 87 85 88 86 89 85 86 85 79 78 78 78 78 77 77 77 78 78 78 78 77 77 77 78 78 79 79 79 79 78 77 77 77
71 68 62 61 62 65 70 78 76 75 78 79 85 78 87 92 90 86 86 86 87 86 86 85 85 82 78 78 77 77 77 77 77 77 77 77 77 77 77 77 78 78 78 78 78 77 77 77 77
69 70 60 62 61 63 72 75 77 77 76 86 86 78 79 90 86 86 86 86 86 86 88 86 85 87 85 84 77 77 77 77 77 77 77 77 77 77 77 76 77 78 77 77 77 77 77 76 76
71 64 57 60 61 66 71 71 78 80 78 80 84 83 88 88 86 85 82 83 85 85 86 87 86 84 86 86 83 78 78 77 77 78 77 77 85 84 83 80 77 77 77 77 77 77 76 76 76
69 61 61 67 70 69 72 71 73 73 75 76 79 86 89 86 83 84 82 82 82 83 84 86 85 82 84 86 84 84 84 84 84 84 83 84 84 84 84 82 77 77 77 77 77 77 77 77 87
65 63 65 67 71 73 71 71 75 72 70 75 75 81 87 88 85 83 85 86 85 85 84 84 82 81 81 84 84 84 85 84 83 82 81 82 83 83 83 84 84 83 79 85 82 83 85 85 85
63 67 68 70 72 71 69 74 72 73 76 82 83 83 83 84 86 88 85 86 83 83 82 82 81 79 78 84 83 84 84 84 83 82 80 79 80 80 81 83 83 81 83 83 82 85 83 82 82
63 66 68 71 70 70 70 70 71 72 79 82 82 80 81 83 86 86 85 85 85 82 82 82 81 79 79 79 83 83 82 82 83 82 81 80 79 78 80 81 82 82 83 82 82 82 82 82 82
67 66 68 70 70 69 68 71 70 74 78 79 79 81 81 81 84 84 82 82 81 82 82 83 80 80 80 79 81 81 82 84 83 83 82 79 78 78 80 79 80 81 82 82 82 82 81 82 82
66 63 66 69 71 69 69 66 66 76 74 75 76 77 79 80 83 84 87 83 82 82 81 78 78 79 78 78 80 81 82 83 83 82 78 78 75 78 78 79 79 79 80 79 79 79 79 80 81
62 61 58 66 66 69 69 61 71 74 72 73 73 75 75 77 79 81 82 82 83 82 81 80 81 78 77 77 78 81 82 83 83 82 78 75 78 78 76 77 77 79 77 80 80 80 80 80 81
57 55 54 60 67 66 65 61 71 76 72 71 73 74 75 76 78 78 79 80 80 80 80 81 80 80 79 78 80 79 78 79 81 80 77 79 78 76 78 79 77 75 76 77 80 79 78 80 81
52 53 55 55 64 65 63 63 68 72 72 71 72 74 75 75 78 78 78 78 78 77 78 79 80 79 78 79 78 79 77 78 79 79 80 79 80 78 76 77 78 76 75 75 77 76 79 79 79
57 54 53 59 64 59 62 61 65 70 69 72 74 75 74 75 80 79 79 78 76 75 75 76 77 77 78 78 77 77 76 77 77 79 77 78 78 78 76 76 74 74 73 74 74 76 76 77 78
56 54 54 59 63 60 62 60 66 68 69 72 73 74 75 76 78 78 79 78 77 75 74 74 74 76 77 79 79 81 80 81 80 80 77 78 78 77 77 72 75 73 72 73 74 74 74 77 75
56 54 55 55 61 62 58 58 61 68 67 71 72 73 73 73 74 74 74 75 75 75 75 74 74 75 76 78 79 77 77 76 75 77 78 79 79 78 75 74 71 72 73 72 73 72 71 69 72
52 62 59 56 54 50 58 46 59 63 65 67 71 73 73 72 72 72 73 73 74 75 77 74 73 73 75 77 77 75 77 76 79 81 81 80 79 80 80 77 77 75 75 71 68 69 69 68 66
57 61 59 58 55 51 54 48 56 60 60 65 70 70 69 70 69 70 71 72 73 73 74 75 73 72 73 74 76 77 76 80 80 78 77 77 78 79 80 79 78 77 77 74 71 69 68 64 63
64 60 57 52 52 43 52 51 54 58 61 63 67 67 66 68 69 70 71 73 73 75 74 72 71 71 72 72 74 75 76 75 73 73 75 78 78 78 77 78 78 77 77 75 74 72 72 67 67
60 53 45 43 43 42 52 47 53 61 65 66 63 64 66 68 69 69 70 71 70 72 72 71 71 69 71 71 72 73 74 72 73 73 74 75 76 76 75 76 75 77 76 77 76 72 71 69 69
56 55 47 36 39 44 53 44 53 63 64 63 64 64 66 67 68 68 69 69 70 70 70 70 69 68 71 70 71 72 70 69 73 73 76 77 77 77 75 75 76 77 77 77 76 75 73 71 70
54 50 57 47 48 39 46 52 57 61 61 61 63 64 64 64 64 66 68 69 69 69 68 68 67 68 69 69 70 70 71 71 73 72 72 75 74 76 75 75 75 75 76 76 75 77 75 74 72
56 60 47 49 33 32 44 45 46 54 55 59 60 61 62 63 64 65 66 67 68 69 68 69 68 67 70 71 72 73 72 72 72 71 70 72 72 73 74 74 74 75 75 76 75 75 75 74 75
53 50 48 47 43 33 33 43 54 54 57 55 59 60 61 61 63 63 65 66 68 68 70 68 68 69 70 71 71 70 71 71 71 70 71 72 72 72 74 74 74 74 74 74 73 73 74 74 73
52 51 50 40 36 38 36 38 60 59 58 57 58 59 60 61 62 64 64 64 66 66 66 68 67 64 66 68 68 69 65 68 69 70 72 73 73 74 75 74 74 75 75 73 73 73 75 74 73

GFSSGP_sfc_temp_096.txt.gz
Temp
92 102 103 98 84 85 80 80 87 85 86 92 92 91 89 91 88 83 96 99 100 98 94 88 80 80 80 80 80 80 79 79 80 80 80 79 79 79 79 79 79 80 80 81 81 81 81 81 80
98 99 100 94 79 75 79 84 82 85 90 92 92 92 90 87 95 93 95 97 99 97 93 93 79 80 80 80 79 79 79 79 79 79 79 79 79 79 79 79 80 80 81 81 81 81 81 80 80
96 97 90 85 80 75 77 83 84 88 92 92 90 94 91 88 95 97 99 98 99 96 95 92 79 79 79 79 79 79 79 79 79 79 79 79 79 79 79 79 79 80 81 81 81 81 80 80 80
96 95 91 77 75 80 81 84 85 87 91 94 92 87 95 98 96 98 99 99 98 98 97 83 79 79 79 79 79 79 79 79 79 79 79 79 79 78 78 79 79 80 81 81 81 80 80 80 80
96 91 78 74 76 77 83 85 86 85 87 89 92 85 90 97 97 98 98 99 98 99 98 90 78 79 79 79 79 78 79 78 79 79 79 79 78 78 78 78 79 80 80 81 80 79 79 79 79
85 87 73 71 73 76 83 87 87 86 87 88 88 87 91 100 98 97 99 98 101 98 96 92 80 78 78 79 78 78 78 78 78 78 78 78 78 78 78 78 79 79 80 80 80 79 78 78 78
80 79 74 76 75 76 80 87 85 85 86 87 91 84 92 97 98 97 97 98 100 98 96 92 90 84 78 78 78 78 77 78 78 78 78 78 78 78 78 78 78 79 79 79 79 78 78 78 78
83 80 74 74 72 72 84 84 87 85 83 91 92 85 87 95 98 99 98 98 99 99 99 94 91 92 90 89 78 77 77 77 77 77 77 77 77 77 77 77 77 78 78 78 78 78 78 77 77
85 72 71 72 73 77 82 81 86 88 84 88 90 90 94 97 96 97 96 96 98 98 98 97 96 94 93 93 87 78 78 78 77 79 77 77 89 88 87 83 78 78 78 78 78 78 77 77 77
78 72 74 78 79 78 81 80 82 81 82 84 86 92 96 96 95 94 95 95 94 95 97 98 95 93 93 95 91 88 89 89 88 89 87 88 90 92 91 87 78 78 78 78 78 78 77 78 93
77 72 80 77 79 80 77 80 83 79 78 84 84 88 92 94 94 93 96 98 96 96 97 97 92 91 92 95 94 91 93 92 90 89 88 88 91 91 90 92 89 87 80 90 85 86 88 92 94
71 78 79 79 80 79 77 81 79 79 82 88 89 91 91 91 93 95 96 96 97 97 95 94 92 88 87 93 92 92 93 92 91 90 87 87 87 87 89 92 93 89 92 90 90 93 91 90 89
73 76 78 80 79 80 80 78 79 80 85 90 89 89 90 91 92 95 96 96 96 93 95 93 92 87 86 85 91 90 90 91 91 90 87 88 89 86 87 89 92 92 93 92 91 90 90 89 89
77 77 77 78 79 80 75 78 79 81 86 85 87 87 90 91 92 93 94 93 93 93 92 93 91 87 87 85 87 88 89 91 91 91 89 85 85 85 86 85 88 90 92 92 91 90 89 89 90
76 70 76 77 79 77 79 72 74 82 85 83 85 86 87 89 92 92 94 93 94 96 94 91 90 89 84 83 86 88 91 91 91 90 85 86 84 84 83 87 85 89 90 88 87 87 87 87 89
70 71 67 77 75 77 74 68 79 81 80 80 82 84 84 87 89 91 92 91 92 93 93 92 94 91 86 85 87 88 90 90 92 92 89 84 82 84 83 87 85 86 85 88 89 89 89 89 89
69 64 65 69 76 75 73 70 77 82 81 78 81 83 85 86 88 89 91 91 90 88 87 89 91 90 88 85 87 87 87 89 90 90 90 84 77 80 81 86 89 84 83 85 88 88 87 87 87
64 63 65 65 72 72 71 71 77 81 80 79 81 83 84 85 87 89 88 89 89 88 86 84 86 88 86 87 84 87 88 88 89 90 89 85 83 82 82 82 83 80 82 84 83 83 85 86 87
66 63 62 68 73 68 69 70 73 78 79 79 81 82 83 84 89 90 89 88 87 86 85 83 83 83 86 86 85 85 85 86 87 89 87 86 85 85 83 84 81 79 78 82 78 82 81 85 85
65 62 63 68 71 68 68 68 74 77 78 79 80 81 82 84 87 87 87 86 85 84 83 83 83 82 84 87 85 88 88 89 88 89 87 85 85 85 85 82 83 79 80 76 76 77 80 80 83
64 62 63 63 69 70 67 65 69 76 78 79 81 83 83 83 83 82 83 83 84 83 83 83 82 82 82 84 87 86 87 87 89 88 87 85 84 84 83 83 83 82 77 76 77 77 77 74 77
60 70 67 64 62 57 68 53 65 72 73 75 78 80 82 81 79 80 80 81 81 83 84 83 82 80 82 81 83 83 85 84 88 88 90 88 85 85 85 83 83 79 81 75 77 80 79 76 72
63 70 66 65 62 61 62 58 65 71 67 72 76 79 77 77 77 77 79 80 83 83 84 83 80 80 80 80 79 84 82 87 89 90 87 85 86 84 86 84 82 80 79 77 80 80 76 78 72
71 66 66 66 62 51 60 59 61 67 69 71 75 76 73 74 76 78 80 80 81 83 83 82 79 78 79 79 79 78 79 82 85 87 87 88 88 85 84 86 84 83 79 79 81 74 76 77 82
68 61 51 50 52 50 64 57 61 69 71 73 73 73 73 75 77 76 77 79 78 80 80 80 80 77 78 78 78 78 78 79 81 83 85 84 87 79 80 83 81 82 81 82 76 77 79 79 79
65 63 53 42 47 52 62 52 62 69 73 73 72 71 73 74 76 76 77 77 78 78 78 78 78 76 78 78 77 77 77 82 83 83 84 86 88 86 83 82 83 82 83 82 82 83 82 81 80
62 56 65 55 57 49 55 60 68 71 69 69 70 70 71 72 73 75 76 76 76 76 76 76 76 76 76 76 76 75 76 76 79 80 80 84 84 87 83 82 81 82 82 82 81 82 81 80 79
62 66 52 55 38 37 51 52 55 60 64 67 67 68 70 72 73 74 75 74 74 76 76 77 76 76 77 76 77 77 76 76 76 77 76 80 81 82 81 80 80 80 81 82 80 82 81 78 80
58 56 58 57 52 39 37 47 62 61 65 64 66 68 70 71 71 72 73 74 74 75 76 74 75 76 75 75 77 76 78 78 78 78 78 79 79 79 80 81 81 81 80 80 79 79 81 78 76
60 56 57 45 42 46 42 45 66 66 68 66 67 69 70 70 70 72 73 73 73 72 73 73 72 73 74 74 74 74 75 76 75 76 78 79 78 80 81 81 81 81 81 80 79 79 81 78 76

GFSSGP_sfc_temp_099.txt.gz
Temp
89 107 107 102 85 87 82 88 94 90 91 97 98 97 95 98 91 81 103 105 106 100 94 88 80 80 80 80 80 80 79 79 79 79 79 79 79 80 80 79 80 80 81 81 81 81 81 81 81
100 103 103 95 80 77 83 91 87 91 95 98 97 98 96 91 100 98 100 103 105 99 94 93 79 80 80 80 80 79 79 79 79 79 79 79 79 79 80 79 80 80 81 81 81 81 81 81 81
96 103 92 87 82 78 79 88 91 93 96 96 94 99 96 93 98 102 103 103 104 100 97 91 80 80 80 80 80 79 79 79 79 80 80 79 79 79 79 79 80 81 81 81 81 81 81 80 80
98 98 94 80 79 87 87 90 93 92 95 97 96 92 99 101 100 103 104 105 103 103 100 82 79 79 79 80 79 79 79 79 80 80 79 79 79 79 78 79 80 81 81 81 81 80 80 80 80
98 93 82 79 81 89 91 93 92 91 92 94 96 90 93 100 103 105 103 104 103 104 102 91 79 79 79 80 79 79 79 79 79 79 79 79 79 78 78 79 80 80 81 81 80 80 80 80 80
88 91 77 75 81 89 89 94 92 92 93 93 93 91 95 104 103 103 105 103 106 103 101 93 80 79 79 79 79 79 79 79 79 79 79 79 78 78 78 79 79 80 80 80 80 79 79 79 79
81 83 76 80 82 85 87 95 90 91 93 91 96 89 97 100 102 103 104 104 105 103 101 94 89 84 78 78 78 78 78 78 78 78 78 78 78 78 78 78 79 79 79 79 79 79 79 78 78
86 82 76 80 79 82 91 92 93 92 89 98 95 87 89 97 101 104 105 105 106 104 103 96 92 93 89 88 78 78 78 78 78 78 78 78 78 78 78 77 78 79 79 79 79 78 78 78 78
90 77 73 75 80 82 93 88 93 95 89 92 95 94 98 100 103 103 103 103 104 103 102 100 97 95 93 94 87 78 78 78 78 79 78 78 88 86 85 83 79 79 79 79 79 78 78 78 77
82 75 77 87 86 85 90 87 90 87 87 87 91 96 100 100 100 99 100 100 100 101 102 102 98 96 95 98 92 88 89 89 88 88 86 87 90 92 93 87 78 79 79 79 78 78 78 78 90
83 75 85 86 84 86 85 84 89 85 82 88 88 93 98 98 98 98 100 102 103 102 102 102 96 95 95 97 96 91 92 91 90 89 89 88 92 93 92 91 88 86 80 88 83 84 85 90 94
77 84 84 87 86 85 82 85 84 85 86 92 94 95 95 94 96 98 99 101 103 102 101 101 98 93 91 97 96 94 93 93 92 91 88 89 89 90 91 92 93 88 91 88 91 92 91 92 92
80 82 85 86 86 85 86 82 82 84 89 91 92 92 93 93 95 98 100 101 99 99 100 99 98 92 90 89 95 94 92 93 93 91 90 90 90 89 90 91 94 93 94 93 92 92 92 91 91
84 82 84 85 85 85 81 82 84 86 89 89 89 89 90 93 94 96 95 96 97 98 98 99 96 92 89 86 86 90 91 94 94 93 92 86 88 87 89 88 90 93 93 95 93 92 91 90 92
83 75 80 81 83 81 84 76 79 87 89 87 87 89 91 92 94 93 96 95 96 97 96 96 95 94 89 88 88 89 92 93 94 94 91 88 87 87 85 88 87 89 89 91 91 91 90 89 91
76 77 71 83 84 84 81 70 85 90 86 85 86 88 89 90 93 96 97 96 96 96 96 96 99 96 90 88 89 90 92 93 93 94 93 89 83 85 85 88 87 88 88 87 87 89 89 90 90
75 67 71 76 84 80 77 73 85 86 84 82 85 86 88 90 91 92 95 96 95 94 93 93 94 95 94 89 89 89 89 91 93 94 94 89 88 86 82 86 85 87 87 87 84 85 88 88 88
69 70 72 72 79 77 76 75 82 85 85 83 85 86 87 88 90 93 93 94 93 91 90 89 89 89 90 92 89 89 90 90 92 93 94 92 88 86 84 85 78 86 81 82 84 82 85 85 83
74 71 70 75 80 74 73 74 79 84 84 83 84 85 85 87 92 93 94 93 91 90 88 87 87 86 87 91 90 90 88 89 90 92 91 91 88 85 82 84 83 84 80 81 83 83 81 82 81
71 67 68 74 78 75 73 72 78 81 82 83 84 84 86 87 89 91 92 90 88 87 87 86 86 85 85 89 89 91 92 93 93 93 90 90 89 86 85 83 85 83 83 80 80 79 80 80 82
69 66 67 68 74 75 71 68 72 79 82 84 85 86 87 86 87 88 87 87 87 86 85 85 84 84 84 85 88 89 89 89 91 91 91 90 89 87 84 85 85 84 83 82 80 79 78 80 82
64 74 71 68 66 60 74 59 71 76 78 80 82 83 85 86 86 85 84 84 84 85 87 87 85 83 84 84 83 81 84 86 90 91 94 92 89 88 87 85 85 84 85 82 81 82 80 79 76
67 75 71 70 66 65 66 62 68 76 73 77 80 82 84 83 82 82 83 84 85 86 86 85 84 82 82 81 80 82 82 88 90 92 88 87 88 86 88 86 85 83 85 82 82 79 79 83 80
75 70 69 69 66 55 64 63 64 71 74 78 81 81 82 80 81 82 83 84 84 86 85 84 82 81 82 81 80 79 78 79 84 87 89 91 92 89 86 87 84 84 83 83 81 81 79 80 82
71 64 54 53 54 53 68 64 67 74 78 78 77 79 80 80 80 81 81 82 82 82 82 82 82 79 81 81 80 80 79 78 78 80 86 86 91 91 83 83 80 84 82 83 81 81 81 80 80
67 64 53 43 47 55 66 57 67 77 78 80 79 78 78 79 80 79 80 81 81 80 80 80 80 78 80 80 80 79 79 81 82 82 84 88 90 91 87 84 82 82 82 82 81 83 82 81 80
65 58 68 56 58 52 59 65 73 77 74 75 77 76 75 76 77 78 80 80 80 78 78 78 78 78 79 79 79 78 78 78 78 78 81 85 84 89 85 83 81 81 81 80 79 82 80 80 80
64 68 51 55 40 40 52 56 59 65 68 73 73 73 75 76 77 78 79 79 79 79 78 78 78 78 78 79 78 79 79 80 79 79 78 79 80 83 82 81 81 80 80 77 78 76 79 78 77
60 57 58 57 54 41 41 51 69 65 68 69 71 74 75 75 77 77 78 79 79 79 79 77 76 76 77 78 77 76 76 76 77 79 78 79 78 80 76 80 80 80 80 80 77 78 82 79 78
61 57 57 45 43 50 46 48 71 70 72 72 71 73 75 76 76 77 77 77 78 78 78 76 76 75 76 76 75 76 75 76 66 68 75 79 80 80 82 82 82 82 81 80 79 79 81 81 79

GFSSGP_sfc_temp_102.txt.gz
Temp
87 101 103 97 80 81 75 83 95 90 90 97 99 95 92 93 86 76 100 104 97 91 85 84 80 81 81 80 80 79 79 79 79 79 79 79 79 79 79 79 80 80 81 81 81 81 81 81 81
92 97 98 90 75 71 76 89 86 91 95 98 97 97 95 88 97 96 97 102 97 92 85 84 80 80 81 80 80 79 79 79 79 79 79 79 79 79 79 79 80 80 81 81 81 81 81 81 80
91 97 86 81 77 72 76 84 87 94 96 96 94 99 96 90 98 97 101 102 97 92 90 83 80 80 80 80 80 79 79 79 79 79 79 79 79 79 79 79 80 80 81 81 81 81 80 80 80
94 93 90 75 73 82 84 88 91 92 96 97 97 91 96 100 99 100 103 103 98 96 94 80 79 80 80 80 80 79 79 79 79 79 79 79 79 78 78 79 80 80 81 81 81 80 80 80 80
95 89 76 74 77 84 91 93 93 90 92 94 96 90 89 99 103 102 102 103 100 98 92 84 79 79 80 80 79 79 79 79 79 79 79 79 79 78 78 79 79 80 80 81 80 80 79 79 79
83 87 71 70 77 86 91 95 93 91 93 94 92 92 91 101 101 102 104 102 103 97 89 84 80 79 79 79 79 79 79 79 79 79 79 79 78 78 78 79 79 80 80 80 80 79 79 78 79
79 78 73 75 77 82 89 96 90 90 91 92 97 88 93 97 100 103 103 103 103 99 92 85 83 81 79 78 78 78 78 78 78 78 78 78 78 78 78 78 79 79 79 79 79 78 78 78 78
84 80 73 77 76 78 91 94 94 91 89 98 97 85 84 94 101 103 104 103 103 101 94 88 85 85 83 81 78 78 78 78 78 78 78 78 78 78 78 77 78 79 79 79 78 78 78 78 77
88 72 69 73 75 80 92 90 95 98 92 94 94 93 97 100 102 101 101 102 102 101 96 93 90 87 86 86 81 78 78 78 78 78 78 77 81 79 79 79 78 78 78 78 78 78 78 77 77
79 69 72 83 85 84 89 89 91 89 88 88 90 95 98 100 98 97 98 97 99 99 99 96 91 88 88 92 83 81 82 81 80 81 79 81 81 81 84 82 78 78 78 78 78 78 77 77 77
79 71 80 83 88 87 84 85 90 86 83 88 87 92 96 97 96 96 98 99 100 101 100 97 89 87 89 91 85 84 84 83 82 82 81 80 83 83 84 80 79 77 77 78 77 76 77 78 80
75 80 82 84 88 84 82 87 83 84 85 93 93 94 95 94 94 95 95 98 100 99 95 96 92 87 86 91 87 85 85 84 83 82 81 80 80 80 80 80 80 78 78 76 77 79 78 78 80
77 80 83 86 86 85 86 82 83 84 90 92 92 92 91 91 92 94 95 97 95 94 92 81 84 85 83 84 86 86 84 85 84 83 82 82 81 80 80 80 83 81 81 79 78 79 80 80 82
83 82 82 84 84 84 81 81 83 85 90 89 89 87 89 89 91 91 91 91 92 93 87 82 79 73 82 82 84 84 84 85 85 84 83 82 82 80 81 79 80 80 82 83 81 79 79 79 80
84 77 80 80 82 81 84 76 77 86 88 86 87 88 89 89 90 88 88 88 90 89 93 79 77 69 71 82 83 83 84 87 84 85 82 82 81 80 79 80 79 80 80 82 80 80 80 79 80
76 76 67 78 81 82 80 67 81 88 86 84 85 87 88 90 92 92 92 90 92 89 88 90 90 80 81 83 82 84 84 84 85 85 84 82 81 80 79 78 79 79 80 79 79 78 77 76 77
72 64 68 73 84 83 79 71 81 87 84 82 84 85 86 87 88 88 91 93 92 86 83 85 84 85 84 83 84 84 84 84 84 85 85 83 82 82 80 79 78 78 77 77 77 77 75 74 76
64 67 70 71 80 80 75 74 80 85 84 81 82 84 85 86 87 89 89 90 87 84 83 82 82 81 82 79 83 85 85 85 86 86 85 84 84 82 80 80 78 78 78 77 77 76 77 75 75
73 71 69 75 81 77 74 74 78 82 84 82 83 84 84 85 89 90 90 88 87 84 83 82 81 81 80 79 81 82 81 83 84 85 85 84 83 83 80 81 80 78 78 77 76 75 75 74 76
72 68 67 73 78 75 73 72 77 80 81 83 83 83 84 85 87 89 89 87 83 83 83 83 82 81 80 80 78 80 82 85 86 86 84 84 81 81 81 79 79 79 79 76 76 75 75 74 74
70 66 66 67 73 76 73 67 71 78 81 83 84 85 85 85 85 86 87 82 84 82 82 83 82 82 79 78 77 77 82 81 83 83 85 85 85 82 80 80 78 78 79 77 76 75 74 73 73
63 74 71 69 65 58 72 56 68 75 77 80 82 83 84 85 86 86 83 82 82 83 85 82 81 79 80 77 75 74 75 75 80 83 85 85 84 84 82 80 79 78 80 78 76 77 76 74 71
67 75 71 70 65 63 64 59 65 74 72 77 81 83 83 83 82 82 83 83 84 83 83 82 80 79 78 78 77 75 73 76 78 78 79 81 81 80 84 81 79 78 79 78 77 76 74 76 76
76 70 69 68 64 52 60 60 61 68 73 77 82 83 84 82 81 82 83 83 82 84 82 80 78 77 78 77 76 75 73 73 73 74 75 77 82 77 79 79 79 79 79 78 77 76 75 75 75
69 60 48 47 50 49 64 60 64 74 78 79 78 80 81 81 80 80 81 81 80 80 80 79 76 74 76 76 74 75 74 73 72 73 75 74 78 82 79 79 78 79 78 78 78 76 75 74 75
65 62 52 41 45 52 63 55 62 76 79 80 82 81 80 79 80 80 79 79 80 79 79 77 75 74 75 75 74 75 75 75 75 74 75 76 77 78 78 76 77 76 77 77 77 77 75 75 74
63 58 66 53 55 48 54 61 70 75 74 78 78 78 75 76 78 77 79 79 78 77 77 77 74 74 75 75 73 74 73 73 73 72 72 74 74 78 77 78 75 71 63 69 75 75 74 72 73
66 68 51 53 37 38 51 55 56 63 66 68 71 73 75 76 77 78 79 78 78 78 77 76 76 74 74 73 73 75 72 72 72 71 71 72 73 75 76 77 77 72 71 71 74 73 72 70 69
60 58 58 56 50 37 39 49 68 63 67 68 71 74 75 76 77 78 77 78 79 79 79 76 76 74 73 73 73 71 71 72 71 70 69 69 67 72 75 76 77 76 75 75 70 70 68 67 66
63 58 56 43 42 48 44 44 67 67 70 70 70 73 76 76 77 77 78 78 77 76 77 76 75 75 74 73 73 71 71 71 69 68 67 65 64 63 61 66 74 77 75 70 66 66 69 69 69

GFSSGP_sfc_temp_105.txt.gz
Temp
77 87 87 81 64 61 58 66 79 80 83 83 89 86 81 82 79 66 83 85 82 78 79 81 80 80 80 79 79 79 78 78 79 79 79 79 79 79 79 79 79 80 80 81 81 81 81 81 80
78 85 81 73 58 51 60 74 77 82 83 87 88 88 85 79 89 86 83 85 83 79 77 79 80 80 80 79 79 78 78 78 78 78 79 79 79 79 79 79 79 80 81 81 81 81 81 80 80
82 86 68 63 58 58 59 75 82 83 89 87 84 91 88 83 91 89 88 86 83 80 79 79 80 80 80 79 79 78 78 78 79 79 79 79 78 78 78 79 79 80 81 81 81 80 80 80 79
82 76 72 59 58 68 71 79 83 87 86 88 88 82 89 93 91 92 91 89 84 81 79 79 79 79 80 80 79 79 79 79 79 79 79 79 78 78 78 78 79 80 80 81 80 79 79 79 79
78 70 57 55 61 74 81 85 84 83 87 84 86 80 82 91 95 94 91 91 85 82 78 78 79 79 79 80 79 79 79 78 79 79 79 78 78 78 78 78 79 79 80 80 80 79 78 78 78
66 69 52 52 63 76 83 85 86 84 85 86 85 82 81 92 92 92 94 91 90 80 78 78 79 79 79 79 79 79 78 78 79 78 78 78 78 78 78 78 78 79 79 79 79 78 78 78 78
63 58 55 60 65 73 78 87 82 83 85 85 87 78 79 88 91 93 93 91 85 83 79 77 77 78 79 78 78 78 78 78 78 78 78 78 78 77 78 78 78 78 78 78 78 78 78 78 78
69 61 55 59 64 65 81 84 82 81 82 92 91 76 71 81 90 93 91 87 85 82 80 77 75 76 76 76 78 78 78 78 78 78 78 77 78 77 77 76 77 78 78 78 78 77 77 77 77
72 54 51 59 64 69 81 77 84 89 85 86 87 84 87 92 89 84 84 85 84 83 80 79 77 75 75 75 78 77 78 78 78 78 77 76 74 75 76 76 77 78 78 78 77 77 77 77 76
64 54 58 70 74 72 78 74 77 80 80 80 83 89 90 91 85 85 83 81 85 81 81 81 80 78 78 83 76 75 77 76 76 76 76 74 73 73 77 76 77 78 78 77 77 77 77 77 70
64 61 69 74 77 76 73 74 78 76 71 78 79 82 86 84 84 85 85 83 85 86 85 83 82 81 81 84 76 76 75 75 75 75 74 74 76 75 77 74 76 73 76 73 74 73 72 70 70
63 72 73 76 80 76 72 79 77 75 75 82 82 83 84 81 78 79 82 85 84 83 88 85 84 82 83 82 78 77 78 76 76 77 75 75 74 74 76 75 73 72 74 70 71 70 70 70 72
66 70 76 78 76 73 79 76 75 74 82 85 83 84 81 80 80 80 81 84 81 78 82 83 84 83 84 80 81 79 79 78 78 77 77 77 76 74 74 74 74 74 74 72 71 72 73 74 74
71 73 74 76 74 72 72 73 75 78 83 83 83 79 79 79 81 79 81 80 79 78 75 74 74 75 80 79 80 79 81 81 80 79 79 78 78 77 76 74 76 75 75 75 75 74 73 74 74
72 65 70 72 72 71 75 68 69 76 80 78 80 80 80 81 81 80 79 78 78 76 75 75 75 74 73 75 78 78 80 78 76 79 79 78 77 77 76 75 76 76 76 76 76 74 73 73 75
64 60 52 66 72 74 70 59 73 79 77 75 77 79 80 79 79 81 80 77 75 75 74 74 80 71 71 71 75 78 78 79 78 79 78 79 78 76 77 74 77 74 76 77 77 77 74 73 73
56 49 55 62 74 73 70 61 72 77 76 74 75 76 78 76 78 79 79 76 74 73 73 72 73 72 69 71 76 78 76 77 78 78 78 78 79 79 78 76 75 75 73 72 73 75 77 75 73
51 53 58 60 69 70 67 64 70 75 74 73 73 75 75 76 76 79 79 78 73 73 73 74 73 71 72 72 74 74 74 76 77 78 76 77 78 78 78 78 76 76 76 75 71 71 70 71 74
63 60 58 64 71 65 61 64 68 72 67 68 69 71 72 73 78 78 79 78 72 71 72 72 72 71 69 69 68 71 72 73 77 78 79 78 78 79 77 79 74 73 75 77 74 71 69 70 68
64 59 58 63 69 65 61 61 67 70 69 70 69 69 69 70 74 78 76 72 72 70 70 70 71 70 69 68 67 69 70 73 78 79 80 81 79 78 79 78 74 71 73 75 74 74 73 73 69
61 57 58 58 65 65 61 57 60 67 70 73 72 72 72 72 71 72 72 69 69 70 70 69 69 69 69 68 68 67 67 69 70 71 72 78 81 77 76 76 77 76 70 76 74 75 74 72 68
54 66 66 63 56 45 60 45 55 62 66 70 74 72 70 72 72 72 69 68 70 71 71 68 68 68 69 69 67 64 62 63 66 67 72 73 78 79 75 78 77 74 72 72 73 74 75 74 70
59 67 63 62 53 47 53 43 51 62 61 65 68 75 72 69 71 69 69 70 70 72 69 68 67 68 67 67 67 65 64 64 64 67 68 73 70 72 77 76 72 69 69 71 73 70 72 73 74
69 61 58 54 49 41 49 47 47 56 62 67 71 74 72 70 69 69 69 70 70 69 68 66 66 65 67 66 66 64 63 64 63 65 67 70 71 68 70 69 65 66 66 70 71 71 72 74 75
60 49 38 35 38 38 55 51 54 62 69 70 67 68 70 69 67 68 67 67 67 67 66 67 65 64 65 65 65 65 64 64 63 63 66 68 70 71 67 69 69 67 68 71 71 68 70 71 69
58 54 42 32 32 40 55 43 52 68 70 74 73 67 70 68 66 65 66 66 67 67 66 66 65 64 64 65 65 65 65 63 63 63 66 68 70 71 71 67 68 67 66 68 66 63 61 65 69
56 51 58 43 44 36 43 53 62 66 66 67 69 70 67 65 64 66 67 67 66 66 65 65 65 64 64 64 63 64 63 62 62 63 64 65 67 70 70 70 68 68 70 65 65 63 62 66 65
56 60 48 44 30 27 40 44 46 54 58 63 64 65 65 64 65 65 67 65 65 65 65 65 64 65 65 64 63 64 63 64 63 61 61 61 60 61 62 61 61 64 62 63 64 64 65 64 67
52 51 51 47 39 29 26 37 53 57 59 57 60 64 65 66 65 64 64 66 66 65 65 64 64 64 63 64 63 62 62 63 62 61 61 60 59 59 60 61 60 58 59 61 58 59 61 64 67
54 50 49 37 35 37 32 39 60 59 58 57 57 62 64 63 63 65 65 65 65 64 65 65 63 63 64 64 63 62 61 61 60 60 60 60 59 58 58 60 60 61 61 58 58 63 64 67 61

GFSSGP_sfc_temp_108.txt.gz
Temp
74 79 78 77 63 57 51 62 73 73 75 77 83 81 77 79 76 66 78 84 79 78 78 80 79 80 79 79 79 78 78 78 78 78 78 78 79 79 79 79 79 80 80 80 80 80 80 80 80
75 82 76 68 56 48 52 66 70 75 80 83 84 82 80 76 82 77 76 81 80 77 77 78 79 79 79 79 78 78 78 78 78 78 78 78 78 79 79 79 79 80 80 80 80 80 80 80 80
79 80 66 60 53 51 54 66 73 82 84 84 80 86 82 79 81 82 81 81 79 77 77 78 79 79 79 79 78 78 78 78 78 78 78 78 78 78 78 78 79 80 80 81 80 80 79 79 79
75 71 66 57 54 66 65 72 77 80 84 84 83 79 85 89 87 84 83 81 78 75 78 79 79 79 79 79 79 78 78 78 78 78 78 78 78 78 78 78 79 79 80 80 80 79 79 79 78
71 63 54 50 56 67 73 76 78 81 79 80 80 77 78 86 86 84 82 83 78 75 77 78 79 79 79 79 79 78 78 78 78 78 78 78 78 77 77 78 78 79 79 80 79 79 78 78 78
64 61 50 49 57 71 76 77 78 81 80 81 79 79 77 85 85 84 84 82 81 76 76 77 79 79 79 79 79 78 78 78 78 78 78 78 77 77 77 78 78 78 79 79 79 78 77 77 77
60 54 52 55 62 65 75 78 76 77 80 78 83 75 77 84 86 87 85 84 81 79 77 76 77 78 79 78 78 78 78 78 78 77 77 77 77 77 77 77 78 78 78 78 78 77 77 77 77
66 57 50 56 61 63 76 78 71 75 78 88 87 74 72 82 88 87 86 82 79 78 77 75 75 76 76 76 78 78 77 77 77 77 77 77 77 77 77 76 77 78 78 77 77 77 77 77 77
67 51 48 56 63 66 76 73 81 82 81 82 82 82 85 88 89 81 79 77 77 78 75 75 75 75 76 75 77 77 78 78 77 77 77 76 74 75 75 76 77 77 77 77 77 77 77 76 76
59 49 55 66 69 67 74 68 73 77 75 77 79 83 87 88 85 82 77 75 76 76 75 76 75 74 75 79 77 76 77 76 76 76 75 74 73 73 75 75 77 77 77 77 77 77 77 76 69
60 55 62 69 73 70 69 71 74 71 67 71 73 77 81 81 79 79 78 78 77 79 78 77 76 76 76 78 75 76 76 76 75 74 74 74 73 72 74 71 73 72 76 72 74 73 71 69 68
53 65 68 72 75 71 71 74 71 72 74 79 80 79 80 77 75 77 76 79 79 78 79 78 77 76 76 77 75 74 75 75 75 75 74 72 72 71 72 72 71 69 69 68 68 67 68 68 69
57 64 69 73 73 70 73 72 73 74 80 80 79 80 77 77 74 73 75 76 76 77 80 78 79 78 78 75 75 75 75 74 74 74 74 74 73 72 73 72 71 70 68 68 66 66 68 67 68
65 66 68 69 70 67 69 71 70 75 80 80 77 77 77 78 78 73 75 77 73 73 80 79 77 75 76 76 76 75 75 76 75 75 75 75 75 75 73 73 73 72 72 72 71 70 70 70 70
66 60 64 67 69 67 71 65 67 76 77 77 77 75 76 77 77 76 76 77 70 72 72 75 74 73 73 74 74 75 77 75 75 76 76 75 75 74 74 73 73 74 73 73 71 70 69 68 71
58 56 50 62 68 71 68 59 69 75 73 72 74 76 77 77 79 79 79 74 73 71 71 74 79 72 73 72 70 73 74 72 76 74 72 75 75 76 75 74 74 75 74 73 71 69 69 70 70
51 46 52 60 67 67 64 60 70 73 71 70 72 72 73 74 74 75 74 72 71 70 71 72 73 73 70 68 69 73 73 73 74 72 73 74 75 75 76 74 76 72 73 70 71 70 70 71 71
48 48 53 54 62 62 61 62 70 71 69 69 70 69 72 73 73 75 72 71 70 70 70 70 70 70 70 67 68 72 72 72 72 73 74 74 75 75 73 74 74 70 72 71 69 73 69 67 70
56 53 53 59 66 60 58 58 63 67 64 66 66 66 68 70 74 75 74 71 68 66 67 66 67 66 67 66 66 67 70 70 71 73 74 73 74 75 73 70 70 69 69 74 73 70 69 69 66
57 53 53 58 64 61 56 57 62 63 65 66 67 67 68 67 70 73 69 68 67 66 65 66 66 66 65 65 65 66 67 67 68 70 76 77 73 73 74 70 69 68 68 69 68 70 72 73 68
56 53 53 54 61 59 56 52 56 63 65 69 67 67 68 68 69 68 67 66 65 66 66 66 66 66 65 66 64 63 62 64 65 65 67 71 71 72 73 72 70 69 69 69 69 66 67 70 69
52 61 60 59 52 44 57 42 50 59 61 64 66 66 65 67 67 65 67 64 65 66 66 66 66 66 67 66 64 62 61 59 60 62 64 66 69 70 73 72 72 70 69 69 69 68 66 66 65
55 62 58 56 50 44 49 41 48 53 56 60 63 66 68 70 65 67 68 67 66 65 64 64 64 64 64 64 64 62 61 60 61 61 61 62 65 67 69 68 69 69 68 65 66 68 65 66 66
64 56 52 48 44 36 45 44 42 51 56 60 67 66 69 63 67 67 66 66 64 63 63 62 63 62 63 64 63 63 61 60 59 61 61 62 63 62 65 68 64 66 62 64 67 68 66 66 66
57 46 35 33 34 34 50 45 46 58 62 63 65 62 62 63 64 64 63 62 62 62 61 62 62 61 62 63 62 62 61 59 59 60 60 60 61 63 63 64 65 63 64 64 63 63 64 66 66
52 47 35 29 29 35 49 40 49 61 65 67 65 62 63 62 61 62 63 62 62 62 62 62 62 62 62 63 63 62 61 59 59 59 59 59 60 61 61 62 63 65 67 66 64 63 64 63 62
53 45 51 40 38 32 39 47 57 62 60 63 64 64 63 61 63 65 65 64 62 61 61 62 61 61 62 62 62 61 61 61 60 59 59 59 60 63 61 60 59 62 64 64 64 64 64 63 62
55 58 43 39 29 26 35 41 45 51 52 58 57 59 63 63 62 61 62 61 62 62 62 61 62 62 62 62 61 62 61 61 60 59 60 59 58 58 58 58 57 58 61 62 61 60 61 61 61
48 46 47 45 40 29 25 35 50 53 54 53 57 59 57 61 61 61 61 62 62 62 61 61 60 61 61 61 61 61 60 60 60 58 59 59 58 58 58 58 58 57 57 59 58 57 59 59 60
49 44 41 34 32 35 28 33 56 52 52 55 55 62 63 67 63 64 63 62 62 61 60 61 60 60 62 62 60 60 60 60 59 59 59 58 57 57 57 57 58 58 58 56 56 57 60 59 58

GFSSGP_sfc_temp_114.txt.gz
Temp
72 74 72 72 61 55 50 58 65 68 70 73 75 74 74 74 72 64 73 78 77 76 77 80 79 79 79 79 78 78 78 78 78 78 78 78 78 79 79 78 79 80 80 80 80 80 80 80 80
73 76 72 64 54 47 51 61 62 65 73 78 77 76 75 70 75 72 74 78 78 76 76 77 79 79 79 78 78 78 78 78 78 78 78 78 78 78 78 78 79 80 80 80 80 80 80 80 80
75 74 66 58 48 48 53 62 64 70 75 74 74 80 77 73 76 75 77 78 76 75 76 76 78 78 78 78 78 78 78 78 78 78 78 78 78 78 78 78 79 80 80 80 80 80 80 80 80
71 68 63 55 50 57 60 63 66 72 76 76 77 73 78 82 79 80 79 78 76 75 76 78 78 78 78 78 78 78 78 78 78 78 78 78 78 78 77 78 78 79 80 80 80 79 79 79 79
65 60 52 47 53 63 65 69 69 68 71 74 75 73 73 78 80 78 77 78 74 74 75 77 78 78 78 79 78 78 78 78 78 78 78 78 78 77 77 78 78 79 80 80 80 79 78 78 78
60 57 48 47 55 67 70 69 68 67 71 73 72 73 73 77 76 76 78 76 77 74 75 76 78 78 78 78 78 78 78 78 78 78 78 78 77 77 77 77 78 78 79 79 79 78 77 77 77
57 52 48 51 59 58 70 68 66 66 69 73 77 68 69 73 77 78 77 76 76 75 74 74 75 77 78 78 77 77 77 77 77 77 77 77 77 77 77 77 77 78 78 78 78 77 77 77 77
60 55 48 53 55 57 72 68 65 67 72 79 80 69 68 73 77 77 75 73 73 74 74 74 74 75 75 75 78 77 77 77 77 77 77 77 77 77 77 76 77 77 77 77 77 77 77 77 76
62 50 48 54 57 63 68 67 73 73 71 75 76 74 77 78 77 73 71 71 71 73 72 73 73 74 74 74 76 77 78 77 77 77 77 75 74 75 75 75 76 77 77 77 77 77 77 76 76
62 49 54 63 64 61 65 68 69 71 70 71 73 77 78 78 75 72 71 70 70 71 71 72 73 73 73 77 74 74 75 75 75 75 74 73 73 73 75 75 77 77 77 77 77 77 77 77 73
58 54 64 67 65 62 62 66 69 69 65 68 70 74 75 73 73 73 74 74 73 73 74 72 72 73 74 75 73 74 73 74 74 74 73 73 73 73 74 73 74 73 75 74 74 74 73 72 72
57 62 66 67 71 69 64 65 67 71 72 73 75 74 74 73 72 71 72 73 72 72 72 72 72 73 74 73 76 76 75 77 77 76 73 72 71 71 71 72 72 71 72 72 71 71 71 71 71
57 63 66 69 68 64 68 64 67 68 74 75 73 74 73 71 72 71 72 72 71 71 72 72 72 72 73 73 74 73 74 77 77 77 76 73 71 71 71 71 72 71 71 71 71 70 70 70 71
61 64 66 64 65 60 63 65 64 68 75 73 71 72 72 72 72 69 70 69 69 73 73 74 73 73 73 73 73 73 74 75 73 76 76 75 72 71 70 71 71 71 71 72 71 71 69 69 69
60 57 60 61 63 63 62 59 60 72 74 73 71 70 70 71 70 71 71 71 69 69 72 72 72 72 72 72 72 72 73 73 74 75 75 74 74 71 71 70 70 71 71 71 70 70 70 69 69
56 53 49 59 62 65 65 52 66 71 69 68 68 69 69 69 71 71 70 69 69 69 68 69 75 71 71 71 71 71 71 71 71 71 72 73 73 73 72 71 72 73 71 70 70 70 69 68 69
50 44 49 57 65 64 60 53 66 65 65 64 66 67 68 69 69 69 71 69 69 68 67 68 69 69 70 69 69 71 71 70 71 70 70 71 72 73 73 71 71 71 69 69 69 69 69 69 67
46 47 50 53 59 58 53 55 62 65 64 64 64 65 66 66 69 71 70 68 67 67 67 68 69 69 68 67 68 69 71 72 71 70 69 71 70 71 71 71 70 69 68 67 67 67 67 67 67
54 51 49 53 59 55 51 53 59 62 59 59 61 62 64 65 69 67 68 67 65 66 66 67 68 67 68 68 66 65 66 68 70 71 73 72 71 71 69 68 69 69 68 68 68 68 68 66 66
51 47 47 54 58 55 54 53 57 60 60 62 61 62 64 64 65 65 64 63 63 66 67 65 67 67 69 67 65 67 66 66 67 67 68 69 70 71 71 69 68 68 68 68 68 67 66 67 65
48 46 47 50 54 53 52 48 52 60 60 62 62 61 62 64 64 63 63 61 61 63 63 64 65 65 64 64 63 61 60 62 62 62 63 66 69 69 69 69 69 68 67 67 68 68 66 66 65
43 54 55 52 47 41 51 38 47 53 56 59 61 60 62 63 63 62 62 62 62 63 62 63 62 62 63 63 62 61 59 59 60 61 61 63 67 68 68 67 68 67 67 67 68 68 68 67 66
50 56 52 51 44 41 42 39 44 48 51 56 59 61 61 60 60 61 62 64 65 61 61 61 61 61 60 61 61 60 60 60 60 60 60 61 63 65 67 67 66 66 64 66 67 68 67 67 66
58 51 46 42 40 34 41 41 39 46 51 53 58 61 62 60 60 59 59 60 59 59 59 59 60 59 60 61 61 61 61 59 58 59 61 61 61 63 65 66 66 65 64 64 65 65 66 66 66
49 41 32 31 31 32 41 39 42 50 55 57 58 59 58 56 56 56 54 55 55 57 58 59 60 59 60 61 60 60 59 59 60 60 60 59 60 60 61 62 62 62 63 64 64 63 62 63 63
45 43 33 28 29 33 42 36 44 53 55 56 56 54 55 54 54 55 54 56 58 59 59 60 60 60 59 59 59 59 59 59 59 60 59 60 60 61 61 60 60 62 63 62 62 62 62 63 62
45 40 45 35 33 30 35 42 51 52 52 54 55 56 55 56 56 56 56 57 59 60 59 59 58 59 59 59 59 58 58 58 59 59 59 60 60 62 61 61 59 60 61 61 61 59 60 62 63
51 52 39 35 28 26 32 35 40 46 49 53 54 54 55 56 59 60 60 60 60 58 58 58 59 60 61 60 59 60 59 59 59 58 58 59 60 61 61 60 59 59 59 59 59 58 59 59 59
46 42 39 38 33 27 25 33 46 48 49 49 50 53 53 57 58 60 59 59 60 60 60 59 58 57 57 57 58 58 58 58 58 58 58 59 60 60 60 60 60 59 58 58 57 57 58 59 58
43 39 39 32 32 29 28 31 48 49 49 50 51 54 54 55 59 58 58 58 57 57 57 58 57 57 58 58 57 57 57 57 57 57 57 57 57 59 60 60 60 59 59 58 57 57 59 59 58

GFSSGP_sfc_temp_117.txt.gz
Temp
82 87 87 85 75 75 70 72 77 79 82 86 88 84 85 85 83 80 83 87 87 86 85 84 79 80 80 79 79 79 79 79 79 79 79 79 79 79 79 79 79 80 81 81 81 81 81 81 80
86 86 87 82 71 66 70 74 75 80 86 87 87 85 84 82 83 80 83 85 88 86 85 85 79 79 79 79 79 78 78 78 79 79 79 79 79 79 79 79 79 80 81 81 81 81 81 81 80
84 83 81 77 71 67 69 75 78 84 87 83 85 88 85 83 82 85 89 86 88 86 87 84 79 79 79 79 78 78 78 78 79 79 79 79 79 78 78 79 79 80 81 81 81 81 80 80 80
84 84 79 70 67 71 75 78 79 83 88 86 86 84 87 88 87 89 88 88 87 88 88 81 78 78 79 79 78 78 78 78 78 79 79 79 79 78 78 78 79 80 81 81 81 80 79 80 79
81 79 70 66 68 72 77 80 81 82 84 85 85 82 84 87 88 88 86 87 87 86 88 86 78 78 79 79 79 78 78 78 78 79 79 79 78 78 78 78 79 79 80 80 80 79 79 79 78
75 74 66 64 66 74 78 83 82 82 85 86 84 83 85 86 86 86 88 87 89 85 86 86 79 78 78 79 78 78 78 78 78 78 78 78 78 78 78 78 78 79 79 79 79 79 78 78 78
72 70 66 65 67 70 77 83 82 81 82 84 86 82 85 82 85 86 87 87 87 87 86 86 86 82 78 78 78 78 77 78 78 77 77 77 78 77 78 78 78 78 78 78 79 78 78 77 77
76 73 64 66 66 69 79 80 84 81 82 89 89 83 83 84 84 85 86 87 87 87 88 86 85 87 86 85 78 78 77 77 77 77 77 77 77 77 77 77 77 78 78 78 78 78 77 77 77
73 65 62 66 65 72 78 78 81 85 82 85 86 86 86 84 85 84 83 84 85 85 86 88 87 86 87 87 84 78 78 78 77 78 77 77 86 85 84 81 77 78 78 78 77 77 77 77 77
71 62 64 72 74 73 76 77 78 81 81 81 82 82 84 84 84 84 84 84 84 84 85 86 85 85 86 87 85 85 86 86 85 85 84 86 85 84 85 81 77 77 77 77 77 77 77 78 87
66 62 68 71 74 76 77 77 80 79 78 82 81 80 82 84 84 85 86 88 87 87 86 85 83 83 85 87 85 86 86 85 84 83 83 83 84 84 85 85 85 84 80 85 83 83 85 86 86
64 69 68 73 76 76 75 77 77 78 82 84 85 85 84 82 84 85 86 87 86 86 85 85 84 82 82 86 85 86 86 85 84 84 82 82 82 82 83 85 85 82 85 83 83 85 83 82 83
60 68 69 72 76 77 77 74 76 78 83 87 86 84 86 85 85 86 87 88 87 84 85 85 83 82 81 81 85 85 84 84 85 84 82 83 83 82 83 83 84 84 85 84 83 84 83 83 83
67 66 69 72 73 74 71 73 73 79 83 83 82 85 86 86 86 85 83 85 84 85 85 86 83 82 82 81 82 82 83 85 84 84 82 79 80 82 83 82 83 83 84 85 84 83 82 82 82
68 62 67 68 69 70 71 67 68 77 83 81 81 83 84 84 86 87 88 82 84 85 86 84 82 82 81 81 82 82 84 84 84 84 80 79 77 77 81 82 82 84 83 82 82 81 81 80 81
63 64 57 69 68 71 71 61 74 79 74 79 81 82 82 84 85 87 86 84 83 83 81 84 85 83 80 81 82 82 83 83 83 79 78 78 78 78 81 82 81 82 80 81 81 81 81 81 81
61 56 57 61 69 70 69 65 72 76 75 77 79 81 83 84 84 83 85 84 84 81 81 81 82 82 80 79 81 80 80 82 83 82 81 79 81 81 81 81 82 81 81 81 79 81 80 81 80
55 56 59 59 65 66 66 66 71 75 75 76 79 80 79 80 83 86 84 82 83 82 80 81 81 80 79 79 79 80 81 81 81 81 81 80 79 79 78 81 79 79 79 80 79 77 79 78 79
63 59 58 62 66 65 64 67 71 74 73 75 77 77 76 77 84 82 82 82 80 79 79 79 79 77 78 78 77 77 78 79 80 81 80 81 80 80 78 80 79 79 77 78 77 77 74 78 79
61 58 57 62 65 64 64 64 71 72 73 75 75 75 74 77 80 78 79 77 78 80 79 79 79 77 77 79 79 80 79 80 81 80 79 80 80 80 79 78 79 77 78 75 75 74 74 74 77
59 57 56 57 61 64 62 60 64 72 71 74 75 75 75 76 78 79 78 77 77 77 78 79 78 77 77 78 76 74 76 76 76 77 78 79 79 79 79 78 78 77 77 78 76 75 70 71 73
54 62 61 58 56 53 61 52 59 66 69 70 74 74 76 76 76 77 77 78 77 80 80 79 78 76 75 75 75 74 75 74 77 77 78 77 78 78 77 77 78 77 79 75 74 72 71 69 68
59 63 61 59 55 54 55 54 59 60 64 69 72 73 75 75 74 74 76 77 79 80 79 77 75 74 74 74 75 72 75 77 77 76 73 74 75 76 77 77 76 75 77 75 74 74 73 73 69
65 60 57 56 55 49 55 55 57 61 65 68 71 73 73 73 73 73 73 73 74 77 76 74 73 72 73 72 73 73 72 73 74 74 74 75 76 76 75 76 75 75 75 74 75 74 73 72 70
62 57 48 46 46 46 52 52 58 62 65 67 68 71 70 70 71 71 71 72 71 71 73 73 72 71 72 73 73 75 75 73 73 73 76 74 75 75 73 74 73 75 73 73 73 72 72 72 72
59 59 50 39 42 48 50 49 59 62 64 66 67 67 69 70 71 70 69 70 71 70 72 74 74 73 74 75 75 75 74 77 76 75 78 77 77 76 74 73 73 73 73 73 72 73 73 71 72
55 53 61 49 46 48 53 54 60 62 62 65 66 67 68 70 71 73 72 70 70 72 73 75 76 75 74 75 74 73 73 72 74 73 73 76 75 78 74 73 72 72 72 72 71 73 70 70 71
61 62 50 53 39 38 46 48 55 57 59 62 64 64 66 69 72 72 73 74 73 72 72 72 72 73 73 72 71 72 71 71 72 72 71 72 73 74 75 72 72 71 71 71 70 71 71 69 71
55 55 53 55 51 43 42 49 59 59 60 60 63 65 66 68 70 72 73 73 73 73 75 72 72 71 71 71 71 70 70 71 70 70 70 71 71 71 72 73 72 71 70 70 69 69 70 69 69
54 53 54 47 43 45 45 49 60 61 61 62 63 65 68 68 68 69 70 70 71 70 70 69 68 70 69 69 69 68 68 69 68 68 70 70 68 70 70 71 71 71 71 70 68 68 71 69 68

GFSSGP_sfc_temp_120.txt.gz
Temp
87 99 100 94 80 83 80 82 90 87 88 94 96 92 93 96 91 80 97 99 100 98 93 88 80 80 80 80 80 79 79 79 80 80 79 79 79 79 79 79 80 81 81 81 81 81 81 81 81
97 96 96 91 77 75 80 88 85 89 93 96 95 93 92 91 95 91 94 97 99 96 92 92 79 80 80 79 79 79 79 79 79 79 79 79 79 79 79 79 80 81 81 81 81 81 81 81 81
94 95 88 83 79 76 81 87 89 91 95 93 92 95 94 91 93 97 100 98 99 95 95 90 79 79 79 79 79 79 79 79 79 79 79 79 79 79 79 79 80 81 81 81 81 81 81 80 80
94 93 90 77 76 84 86 89 89 90 94 96 95 91 95 97 96 100 99 100 98 99 97 82 79 79 79 79 79 78 78 79 79 79 79 79 79 79 78 79 80 80 81 81 81 80 80 80 80
93 92 78 75 78 85 88 91 91 90 91 94 95 91 91 95 98 99 98 99 98 99 98 90 79 79 79 79 79 79 78 78 79 79 79 79 78 78 78 79 80 80 81 81 80 80 80 80 79
82 85 74 72 78 85 88 92 91 91 93 94 92 92 93 98 97 99 100 99 102 98 96 91 80 78 78 79 79 78 78 78 78 79 79 78 78 78 79 79 79 80 80 80 80 79 79 79 78
78 75 74 78 79 80 85 93 90 92 92 93 97 90 94 96 98 99 99 100 100 98 97 92 90 84 78 78 78 78 78 78 78 78 78 78 78 78 78 79 79 79 79 79 79 79 78 78 78
83 80 74 77 76 78 87 88 92 91 91 97 97 90 92 96 96 98 100 100 99 98 99 95 92 93 90 88 78 78 78 78 78 78 78 78 78 78 78 78 78 79 79 79 78 78 78 78 78
85 71 71 76 77 77 88 85 91 94 92 93 96 94 96 95 97 97 96 97 99 98 98 98 97 95 94 94 87 79 78 78 78 79 78 78 91 88 86 84 78 78 79 79 79 78 78 78 78
77 71 73 82 82 78 84 84 86 88 89 90 91 93 96 95 96 94 94 94 95 96 97 99 96 95 95 96 91 89 90 90 89 89 87 91 93 92 92 86 78 78 78 78 78 78 78 79 94
76 71 78 76 77 82 84 85 89 85 86 89 88 91 93 94 94 96 98 98 97 97 98 98 93 92 94 96 94 93 94 93 91 90 89 90 92 91 91 93 90 88 80 91 85 87 89 93 95
67 76 76 73 77 81 80 85 83 85 89 92 92 91 93 93 95 98 98 99 98 97 96 96 93 90 90 96 94 95 94 94 93 92 88 89 89 89 91 93 94 90 93 91 91 94 92 91 90
69 69 71 73 71 76 81 80 81 84 90 95 94 93 92 93 95 97 99 100 98 96 96 96 94 89 89 89 94 94 93 94 93 92 90 91 91 89 91 91 93 93 94 93 91 91 91 90 90
74 74 72 68 71 66 71 79 82 85 91 91 92 92 94 95 96 96 95 95 95 95 94 95 93 89 90 88 89 91 91 94 93 93 92 88 90 89 91 89 91 92 93 94 93 92 91 91 91
76 68 69 62 62 66 68 70 76 86 89 88 91 92 92 94 97 96 97 94 96 97 96 94 92 91 87 87 89 90 93 93 93 93 90 88 86 87 87 90 91 92 92 90 90 89 89 88 90
70 71 63 64 62 63 60 57 78 87 86 85 89 91 91 94 96 98 99 97 97 98 95 94 96 93 88 88 89 91 92 92 93 93 91 87 86 85 85 90 90 92 90 90 90 90 89 90 90
69 62 63 67 69 66 57 58 70 82 85 84 87 90 91 93 94 95 97 98 96 93 93 93 93 93 90 87 89 89 89 90 92 92 90 87 86 86 85 89 90 87 89 88 89 89 88 88 88
62 63 68 60 70 68 65 64 73 81 83 82 84 88 90 92 93 96 96 97 96 94 90 90 92 90 90 90 88 90 90 90 92 91 91 89 88 87 86 88 86 86 87 88 89 85 88 88 87
69 64 64 68 72 70 67 65 71 79 82 83 85 87 88 90 94 97 96 94 92 91 88 87 87 87 88 88 88 87 87 89 89 91 89 88 87 87 85 89 88 86 86 85 85 85 83 84 87
68 64 64 70 71 70 70 69 73 78 80 84 85 86 87 88 89 90 90 91 91 89 87 87 87 86 85 88 87 89 89 90 90 91 88 88 88 87 87 86 87 85 87 83 82 81 81 86 87
66 65 65 64 70 71 69 66 70 77 80 81 83 85 86 86 87 88 88 89 90 88 87 88 87 87 85 87 87 85 88 88 87 87 86 86 86 85 85 85 85 84 83 87 83 82 80 80 84
61 71 69 66 64 60 70 57 66 74 75 79 83 83 85 85 86 87 87 88 88 91 91 89 88 86 85 85 84 82 84 84 87 87 88 85 86 85 84 85 85 82 86 82 82 83 79 77 76
66 72 68 67 65 65 64 61 69 72 69 76 81 83 85 85 85 86 87 86 88 90 91 90 88 85 86 82 84 83 85 87 86 87 81 83 82 84 85 84 83 81 83 82 79 79 78 81 80
73 68 67 67 66 55 63 62 65 69 71 76 78 81 81 82 85 85 85 85 86 88 88 87 84 82 83 81 82 81 82 82 84 83 82 84 85 84 82 83 82 81 81 80 80 79 78 78 78
70 63 54 52 53 53 66 62 66 72 75 77 77 77 79 81 82 82 82 83 83 82 82 84 82 80 80 81 81 81 79 79 79 79 84 84 85 84 81 80 80 82 80 80 79 78 77 77 77
65 64 58 46 51 57 63 56 64 74 74 76 77 77 78 79 81 81 80 80 82 80 79 80 80 79 80 80 80 81 81 85 86 82 87 85 86 85 83 80 80 80 80 79 78 80 79 78 78
65 62 71 60 60 57 61 63 68 71 71 73 74 74 75 77 78 80 82 80 80 80 79 80 81 81 82 82 82 81 81 82 84 82 81 85 84 86 83 81 79 79 79 78 77 78 77 77 76
69 72 57 60 47 46 57 57 64 65 67 71 71 72 73 76 78 80 81 80 82 80 79 80 81 81 80 80 82 82 80 79 79 79 78 79 81 81 81 80 79 79 79 78 76 78 78 75 78
63 63 64 64 62 49 48 59 70 69 70 69 70 72 73 75 78 79 81 81 82 82 83 80 80 80 80 80 80 79 79 79 78 77 78 78 78 78 79 79 79 78 77 77 75 75 76 76 74
69 65 64 54 51 57 55 57 71 70 71 71 71 72 74 75 77 79 79 79 79 79 79 77 77 78 78 77 76 75 75 76 74 75 75 76 76 77 78 78 78 78 78 77 75 74 75 75 74

GFSSGP_sfc_temp_126.txt.gz
Temp
84 96 97 93 77 78 74 81 92 90 93 100 101 96 77 77 74 67 100 100 95 89 84 84 80 80 81 80 80 79 79 79 79 79 79 79 79 80 80 80 80 81 81 81 81 81 81 81 81
92 96 97 88 73 69 75 87 88 93 97 100 100 97 83 70 82 89 95 98 95 89 86 84 80 80 80 80 79 79 79 79 79 79 79 79 79 79 80 80 80 81 81 81 81 81 81 81 81
88 94 84 79 73 69 75 89 93 98 100 98 97 100 80 68 85 94 99 97 95 90 89 82 79 80 80 80 79 79 79 79 79 79 79 79 79 79 79 80 80 81 81 81 81 81 80 81 80
91 90 87 72 71 80 82 90 94 93 99 101 100 83 83 75 89 98 101 98 95 94 90 80 79 79 79 80 79 79 79 79 79 79 79 79 79 79 79 80 80 81 81 81 81 80 80 80 80
92 86 73 71 73 82 90 94 97 91 92 98 100 87 84 97 100 102 100 99 97 95 88 83 79 79 79 79 79 79 79 79 79 79 79 79 79 79 79 79 80 80 81 81 80 80 80 80 80
81 84 69 67 74 84 90 95 96 94 95 99 97 92 90 99 98 101 102 100 100 92 87 82 79 79 79 79 79 79 79 79 79 79 79 79 79 79 79 79 80 80 80 80 80 80 79 79 79
77 76 70 72 75 81 88 96 89 93 94 96 102 90 87 96 100 102 102 102 99 93 90 85 83 81 79 78 78 78 78 78 78 78 78 78 79 79 79 79 79 80 80 80 80 79 79 79 79
83 78 72 75 74 76 91 95 98 93 93 105 105 91 78 86 99 102 103 102 98 95 90 87 84 84 82 80 78 78 78 78 78 78 78 78 78 78 79 78 78 79 79 79 79 79 78 78 78
88 72 69 73 76 80 90 84 95 100 97 100 102 96 93 95 102 101 100 99 98 95 91 90 89 86 86 85 81 78 79 78 78 78 78 77 81 80 80 80 79 79 79 78 78 78 78 78 77
78 71 71 82 84 81 82 79 85 90 91 93 97 98 97 88 77 98 97 95 95 93 93 93 90 87 89 91 81 82 82 81 81 81 79 81 81 81 86 83 79 79 78 78 78 78 78 78 78
77 71 79 81 87 87 81 79 87 83 86 93 93 97 98 98 98 98 99 98 97 97 95 94 88 86 90 91 83 85 84 83 82 82 80 79 84 84 84 82 80 78 78 79 78 78 77 79 80
71 78 80 82 85 82 82 85 82 82 85 96 98 99 97 97 97 99 99 99 99 98 96 93 90 86 87 90 86 86 86 85 84 84 81 79 81 82 82 84 82 79 81 78 79 80 80 79 81
73 76 81 83 83 77 82 82 80 78 84 94 96 97 96 87 84 99 102 102 100 96 96 94 90 87 86 87 88 87 86 87 86 85 84 84 82 82 83 83 84 83 85 82 82 82 82 82 83
77 78 78 79 79 78 74 79 80 80 84 83 91 91 95 88 70 72 99 97 95 95 93 93 90 86 88 86 86 86 86 87 88 87 86 84 84 82 84 83 84 84 85 86 86 83 82 82 83
78 71 76 70 73 72 75 70 73 81 82 77 79 89 90 95 90 86 87 86 80 85 92 89 88 87 85 85 87 86 87 90 88 88 86 85 84 84 84 84 83 83 84 85 85 84 83 82 83
72 72 61 70 72 73 70 60 75 82 80 76 76 83 88 91 97 92 89 72 69 68 75 89 95 88 85 84 86 87 88 87 87 87 85 86 84 83 84 83 83 84 82 82 83 82 81 81 81
69 57 58 61 71 71 67 62 73 79 79 73 72 77 83 88 89 93 80 73 68 67 65 86 88 88 86 85 86 86 87 87 86 83 82 84 86 86 82 83 82 82 78 73 78 83 82 79 79
59 60 57 55 61 69 65 64 72 78 77 72 71 75 78 83 88 89 79 71 69 66 72 86 88 87 85 86 85 87 87 86 85 83 83 82 85 86 82 82 80 79 79 79 82 81 81 79 78
68 60 60 61 66 64 65 63 69 75 75 71 72 74 75 81 90 89 89 82 70 79 83 86 86 86 85 86 84 84 85 86 85 86 85 83 85 85 82 82 79 79 79 80 82 80 80 78 78
67 59 59 65 68 67 64 63 71 73 73 73 74 74 75 78 86 89 88 87 85 84 83 83 86 88 85 85 84 86 85 87 87 87 85 85 85 83 80 79 78 79 79 79 80 78 75 75 76
65 61 61 62 67 66 64 62 68 74 75 73 74 75 79 77 77 85 90 88 92 86 84 82 83 84 85 85 84 85 86 85 84 84 83 84 84 82 81 79 76 78 80 78 77 76 75 72 74
60 70 68 67 63 57 69 53 65 70 70 72 73 74 76 77 80 80 84 86 90 91 88 84 83 83 84 84 83 81 80 80 82 83 84 83 84 83 80 80 81 79 77 75 77 77 75 73 69
66 74 70 65 65 64 63 57 65 70 66 70 73 74 77 77 81 81 84 88 91 89 89 84 82 81 83 82 82 82 81 82 84 83 81 79 80 81 82 79 77 77 76 76 76 74 73 72 71
75 70 70 69 65 52 62 60 62 65 68 71 75 78 79 83 86 87 85 86 85 88 88 82 81 81 82 83 82 81 81 80 80 81 78 78 77 76 78 80 78 77 75 76 75 74 73 72 71
71 64 51 49 50 49 65 61 64 73 74 74 75 77 79 81 82 84 85 86 86 86 87 86 85 83 84 84 82 82 81 80 79 78 79 76 72 76 75 77 76 75 75 75 73 73 72 72 70
67 65 54 43 46 52 65 57 66 80 81 80 79 80 81 81 82 82 81 81 84 81 82 85 83 83 83 82 80 80 80 79 78 80 79 76 77 77 75 76 76 76 75 74 74 72 71 71 70
66 61 70 60 61 56 62 63 72 76 77 80 79 78 75 76 78 79 81 79 78 79 78 77 77 78 79 79 77 76 79 80 79 78 79 79 79 81 75 76 75 75 74 74 72 71 71 70 70
71 74 59 58 43 41 57 58 59 67 71 75 75 75 77 79 81 81 79 77 77 78 78 79 80 78 79 79 78 79 77 78 77 76 75 75 76 76 77 77 75 74 74 73 72 71 71 69 70
68 66 66 64 60 49 46 42 67 70 73 73 74 76 77 79 78 80 82 82 82 81 81 77 77 78 77 77 78 76 75 76 76 75 75 75 74 75 75 76 76 75 74 73 71 71 71 70 69
73 68 66 56 54 60 44 49 69 75 76 76 76 77 79 80 81 81 81 81 80 80 79 78 77 78 77 79 77 74 74 74 73 72 72 72 71 73 73 74 75 75 75 73 71 71 73 71 70